Wetterdaten: Donnerstag, 05.11.2015
Datum Zeit Temp. A. Feuchte A. Luftdruck Regen Wind Richtung Richtung Sonnenschein ET UV Solar Taupunkt Windchill Windben Empfang
05.11.2015 00:00 6,6 C 94 % 1022,4 hPa 0,0 l/m 0,4 km/h (0 Bft) S-SW 201 0 min 0,000 mm 0,0 UV-I 0 W/m 5,7 C 6,6 C 1,6 km/h (1 Bft) 100,00 %
05.11.2015 00:01 6,5 C 94 % 1022,4 hPa 0,0 l/m 0,1 km/h (0 Bft) S-SW 201 0 min 0,000 mm 0,0 UV-I 0 W/m 5,6 C 6,5 C 1,6 km/h (1 Bft) 100,00 %
05.11.2015 00:02 6,4 C 94 % 1022,4 hPa 0,0 l/m 0,6 km/h (0 Bft) S-SW 207 0 min 0,000 mm 0,0 UV-I 0 W/m 5,5 C 6,4 C 1,6 km/h (1 Bft) 100,00 %
05.11.2015 00:03 6,3 C 94 % 1022,4 hPa 0,0 l/m 0,3 km/h (0 Bft) SW 225 0 min 0,000 mm 0,0 UV-I 0 W/m 5,4 C 6,3 C 1,6 km/h (1 Bft) 100,00 %
05.11.2015 00:04 6,2 C 94 % 1022,3 hPa 0,0 l/m 0,6 km/h (0 Bft) NW 307 0 min 0,000 mm 0,0 UV-I 0 W/m 5,3 C 6,2 C 1,6 km/h (1 Bft) 100,00 %
05.11.2015 00:05 6,2 C 94 % 1022,3 hPa 0,0 l/m 0,2 km/h (0 Bft) NW 311 0 min 0,000 mm 0,0 UV-I 0 W/m 5,3 C 6,2 C 1,6 km/h (1 Bft) 100,00 %
05.11.2015 00:06 6,1 C 95 % 1022,3 hPa 0,0 l/m 0,0 km/h (0 Bft) NW 311 0 min 0,000 mm 0,0 UV-I 0 W/m 5,4 C 6,1 C 0,0 km/h (0 Bft) 100,00 %
05.11.2015 00:07 6,0 C 94 % 1022,3 hPa 0,0 l/m 0,1 km/h (0 Bft) NW 311 0 min 0,000 mm 0,0 UV-I 0 W/m 5,1 C 6,0 C 1,6 km/h (1 Bft) 100,00 %
05.11.2015 00:08 6,0 C 95 % 1022,3 hPa 0,0 l/m 0,1 km/h (0 Bft) NW 311 0 min 0,000 mm 0,0 UV-I 0 W/m 5,3 C 6,0 C 1,6 km/h (1 Bft) 100,00 %
05.11.2015 00:09 5,9 C 95 % 1022,3 hPa 0,0 l/m 0,1 km/h (0 Bft) NW 311 0 min 0,000 mm 0,0 UV-I 0 W/m 5,2 C 5,9 C 1,6 km/h (1 Bft) 100,00 %
05.11.2015 00:10 5,9 C 95 % 1022,2 hPa 0,0 l/m 1,0 km/h (0 Bft) N 11 0 min 0,000 mm 0,0 UV-I 0 W/m 5,2 C 5,9 C 1,6 km/h (1 Bft) 100,00 %
05.11.2015 00:11 5,9 C 95 % 1022,2 hPa 0,0 l/m 0,7 km/h (0 Bft) N-NO 24 0 min 0,000 mm 0,0 UV-I 0 W/m 5,2 C 5,9 C 1,6 km/h (1 Bft) 100,00 %
05.11.2015 00:12 5,9 C 95 % 1022,2 hPa 0,0 l/m 2,4 km/h (1 Bft) NO 42 0 min 0,000 mm 0,0 UV-I 0 W/m 5,2 C 5,9 C 3,2 km/h (1 Bft) 100,00 %
05.11.2015 00:13 5,8 C 95 % 1022,2 hPa 0,0 l/m 2,0 km/h (1 Bft) O 81 0 min 0,000 mm 0,0 UV-I 0 W/m 5,1 C 5,8 C 3,2 km/h (1 Bft) 97,56 %
05.11.2015 00:14 5,8 C 95 % 1022,2 hPa 0,0 l/m 0,8 km/h (0 Bft) O 84 0 min 0,000 mm 0,0 UV-I 0 W/m 5,1 C 5,8 C 1,6 km/h (1 Bft) 100,00 %
05.11.2015 00:15 5,8 C 95 % 1022,2 hPa 0,0 l/m 1,9 km/h (1 Bft) O 87 0 min 0,000 mm 0,0 UV-I 0 W/m 5,1 C 5,8 C 3,2 km/h (1 Bft) 100,00 %
05.11.2015 00:16 5,7 C 95 % 1022,2 hPa 0,0 l/m 2,1 km/h (1 Bft) O-SO 113 0 min 0,000 mm 0,0 UV-I 0 W/m 5,0 C 5,7 C 4,8 km/h (1 Bft) 100,00 %
05.11.2015 00:17 5,7 C 95 % 1022,2 hPa 0,0 l/m 2,3 km/h (1 Bft) O 97 0 min 0,000 mm 0,0 UV-I 0 W/m 5,0 C 5,7 C 3,2 km/h (1 Bft) 100,00 %
05.11.2015 00:18 5,7 C 95 % 1022,2 hPa 0,0 l/m 0,7 km/h (0 Bft) O 97 0 min 0,000 mm 0,0 UV-I 0 W/m 5,0 C 5,7 C 1,6 km/h (1 Bft) 95,83 %
05.11.2015 00:19 5,7 C 95 % 1022,2 hPa 0,0 l/m 0,7 km/h (0 Bft) O 97 0 min 0,000 mm 0,0 UV-I 0 W/m 5,0 C 5,7 C 1,6 km/h (1 Bft) 100,00 %
05.11.2015 00:20 5,7 C 95 % 1022,2 hPa 0,0 l/m 0,0 km/h (0 Bft) O 97 0 min 0,000 mm 0,0 UV-I 0 W/m 5,0 C 5,7 C 0,0 km/h (0 Bft) 95,83 %
05.11.2015 00:21 5,7 C 95 % 1022,2 hPa 0,0 l/m 0,0 km/h (0 Bft) O 97 0 min 0,000 mm 0,0 UV-I 0 W/m 5,0 C 5,7 C 0,0 km/h (0 Bft) 100,00 %
05.11.2015 00:22 5,7 C 95 % 1022,2 hPa 0,0 l/m 0,2 km/h (0 Bft) O 97 0 min 0,000 mm 0,0 UV-I 0 W/m 5,0 C 5,7 C 1,6 km/h (1 Bft) 100,00 %
05.11.2015 00:23 5,7 C 95 % 1022,2 hPa 0,0 l/m 0,0 km/h (0 Bft) O 97 0 min 0,000 mm 0,0 UV-I 0 W/m 5,0 C 5,7 C 0,0 km/h (0 Bft) 91,30 %
05.11.2015 00:24 5,7 C 96 % 1022,2 hPa 0,0 l/m 0,0 km/h (0 Bft) O 97 0 min 0,000 mm 0,0 UV-I 0 W/m 5,1 C 5,7 C 0,0 km/h (0 Bft) 100,00 %
05.11.2015 00:25 5,7 C 96 % 1022,2 hPa 0,0 l/m 0,0 km/h (0 Bft) O 97 0 min 0,000 mm 0,0 UV-I 0 W/m 5,1 C 5,7 C 0,0 km/h (0 Bft) 100,00 %
05.11.2015 00:26 5,7 C 96 % 1022,2 hPa 0,0 l/m 0,0 km/h (0 Bft) O 97 0 min 0,000 mm 0,0 UV-I 0 W/m 5,1 C 5,7 C 0,0 km/h (0 Bft) 95,83 %
05.11.2015 00:27 5,7 C 95 % 1022,2 hPa 0,0 l/m 0,0 km/h (0 Bft) O 97 0 min 0,000 mm 0,0 UV-I 0 W/m 5,0 C 5,7 C 0,0 km/h (0 Bft) 99,01 %
05.11.2015 00:28 5,7 C 95 % 1022,2 hPa 0,0 l/m 0,0 km/h (0 Bft) O 97 0 min 0,000 mm 0,0 UV-I 0 W/m 5,0 C 5,7 C 0,0 km/h (0 Bft) 97,37 %
05.11.2015 00:29 5,6 C 95 % 1022,3 hPa 0,0 l/m 0,0 km/h (0 Bft) O 97 0 min 0,000 mm 0,0 UV-I 0 W/m 4,9 C 5,6 C 0,0 km/h (0 Bft) 100,00 %
05.11.2015 00:30 5,6 C 95 % 1022,3 hPa 0,0 l/m 0,0 km/h (0 Bft) O 97 0 min 0,000 mm 0,0 UV-I 0 W/m 4,9 C 5,6 C 0,0 km/h (0 Bft) 100,00 %
05.11.2015 00:31 5,6 C 96 % 1022,3 hPa 0,0 l/m 0,0 km/h (0 Bft) O 97 0 min 0,000 mm 0,0 UV-I 0 W/m 5,0 C 5,6 C 0,0 km/h (0 Bft) 100,00 %
05.11.2015 00:32 5,7 C 96 % 1022,2 hPa 0,0 l/m 0,0 km/h (0 Bft) O 97 0 min 0,000 mm 0,0 UV-I 0 W/m 5,1 C 5,7 C 0,0 km/h (0 Bft) 95,65 %
05.11.2015 00:33 5,7 C 96 % 1022,2 hPa 0,0 l/m 0,0 km/h (0 Bft) O 97 0 min 0,000 mm 0,0 UV-I 0 W/m 5,1 C 5,7 C 0,0 km/h (0 Bft) 100,00 %
05.11.2015 00:34 5,7 C 96 % 1022,2 hPa 0,0 l/m 0,0 km/h (0 Bft) O 97 0 min 0,000 mm 0,0 UV-I 0 W/m 5,1 C 5,7 C 0,0 km/h (0 Bft) 100,00 %
05.11.2015 00:35 5,7 C 96 % 1022,2 hPa 0,0 l/m 0,0 km/h (0 Bft) O 97 0 min 0,000 mm 0,0 UV-I 0 W/m 5,1 C 5,7 C 0,0 km/h (0 Bft) 95,83 %
05.11.2015 00:36 5,7 C 96 % 1022,2 hPa 0,0 l/m 0,0 km/h (0 Bft) O 97 0 min 0,000 mm 0,0 UV-I 0 W/m 5,1 C 5,7 C 0,0 km/h (0 Bft) 100,00 %
05.11.2015 00:37 5,7 C 96 % 1022,2 hPa 0,0 l/m 0,0 km/h (0 Bft) O 97 0 min 0,000 mm 0,0 UV-I 0 W/m 5,1 C 5,7 C 0,0 km/h (0 Bft) 100,00 %
05.11.2015 00:38 5,7 C 96 % 1022,2 hPa 0,0 l/m 0,2 km/h (0 Bft) O 97 0 min 0,000 mm 0,0 UV-I 0 W/m 5,1 C 5,7 C 1,6 km/h (1 Bft) 95,65 %
05.11.2015 00:39 5,7 C 96 % 1022,2 hPa 0,0 l/m 2,3 km/h (1 Bft) O-SO 104 0 min 0,000 mm 0,0 UV-I 0 W/m 5,1 C 5,7 C 3,2 km/h (1 Bft) 100,00 %
05.11.2015 00:40 5,6 C 96 % 1022,3 hPa 0,0 l/m 1,9 km/h (1 Bft) O-SO 104 0 min 0,000 mm 0,0 UV-I 0 W/m 5,0 C 5,6 C 3,2 km/h (1 Bft) 100,00 %
05.11.2015 00:41 5,6 C 96 % 1022,4 hPa 0,0 l/m 1,6 km/h (1 Bft) O-SO 104 0 min 0,000 mm 0,0 UV-I 0 W/m 5,0 C 5,6 C 1,6 km/h (1 Bft) 100,00 %
05.11.2015 00:42 5,6 C 96 % 1022,3 hPa 0,0 l/m 0,9 km/h (0 Bft) O-SO 104 0 min 0,000 mm 0,0 UV-I 0 W/m 5,0 C 5,6 C 1,6 km/h (1 Bft) 100,00 %
05.11.2015 00:43 5,5 C 96 % 1022,3 hPa 0,0 l/m 0,2 km/h (0 Bft) O-SO 104 0 min 0,000 mm 0,0 UV-I 0 W/m 4,9 C 5,5 C 1,6 km/h (1 Bft) 100,00 %
05.11.2015 00:44 5,5 C 96 % 1022,2 hPa 0,0 l/m 0,0 km/h (0 Bft) O-SO 104 0 min 0,000 mm 0,0 UV-I 0 W/m 4,9 C 5,5 C 0,0 km/h (0 Bft) 100,00 %
05.11.2015 00:45 5,5 C 96 % 1022,2 hPa 0,0 l/m 0,0 km/h (0 Bft) O-SO 104 0 min 0,000 mm 0,0 UV-I 0 W/m 4,9 C 5,5 C 0,0 km/h (0 Bft) 100,00 %
05.11.2015 00:46 5,5 C 96 % 1022,3 hPa 0,0 l/m 0,0 km/h (0 Bft) O-SO 104 0 min 0,000 mm 0,0 UV-I 0 W/m 4,9 C 5,5 C 0,0 km/h (0 Bft) 100,00 %
05.11.2015 00:47 5,5 C 96 % 1022,2 hPa 0,0 l/m 0,0 km/h (0 Bft) O-SO 104 0 min 0,000 mm 0,0 UV-I 0 W/m 4,9 C 5,5 C 0,0 km/h (0 Bft) 100,00 %
05.11.2015 00:48 5,5 C 96 % 1022,2 hPa 0,0 l/m 0,0 km/h (0 Bft) O-SO 104 0 min 0,000 mm 0,0 UV-I 0 W/m 4,9 C 5,5 C 0,0 km/h (0 Bft) 100,00 %
05.11.2015 00:49 5,5 C 96 % 1022,2 hPa 0,0 l/m 0,0 km/h (0 Bft) O-SO 104 0 min 0,000 mm 0,0 UV-I 0 W/m 4,9 C 5,5 C 0,0 km/h (0 Bft) 100,00 %
05.11.2015 00:50 5,6 C 96 % 1022,2 hPa 0,0 l/m 0,0 km/h (0 Bft) O-SO 104 0 min 0,000 mm 0,0 UV-I 0 W/m 5,0 C 5,6 C 0,0 km/h (0 Bft) 100,00 %
05.11.2015 00:51 5,5 C 96 % 1022,2 hPa 0,0 l/m 0,0 km/h (0 Bft) O-SO 104 0 min 0,000 mm 0,0 UV-I 0 W/m 4,9 C 5,5 C 0,0 km/h (0 Bft) 100,00 %
05.11.2015 00:52 5,5 C 96 % 1022,2 hPa 0,0 l/m 0,0 km/h (0 Bft) O-SO 104 0 min 0,000 mm 0,0 UV-I 0 W/m 4,9 C 5,5 C 0,0 km/h (0 Bft) 100,00 %
05.11.2015 00:53 5,5 C 96 % 1022,2 hPa 0,0 l/m 0,1 km/h (0 Bft) O-SO 104 0 min 0,000 mm 0,0 UV-I 0 W/m 4,9 C 5,5 C 1,6 km/h (1 Bft) 100,00 %
05.11.2015 00:54 5,5 C 96 % 1022,3 hPa 0,0 l/m 0,9 km/h (0 Bft) O-SO 104 0 min 0,000 mm 0,0 UV-I 0 W/m 4,9 C 5,5 C 1,6 km/h (1 Bft) 100,00 %
05.11.2015 00:55 5,6 C 96 % 1022,3 hPa 0,0 l/m 1,0 km/h (0 Bft) O-SO 104 0 min 0,000 mm 0,0 UV-I 0 W/m 5,0 C 5,6 C 1,6 km/h (1 Bft) 100,00 %
05.11.2015 00:56 5,6 C 96 % 1022,2 hPa 0,0 l/m 0,8 km/h (0 Bft) O-SO 104 0 min 0,000 mm 0,0 UV-I 0 W/m 5,0 C 5,6 C 1,6 km/h (1 Bft) 100,00 %
05.11.2015 00:57 5,6 C 96 % 1022,2 hPa 0,0 l/m 0,1 km/h (0 Bft) O-SO 104 0 min 0,000 mm 0,0 UV-I 0 W/m 5,0 C 5,6 C 1,6 km/h (1 Bft) 100,00 %
05.11.2015 00:58 5,6 C 96 % 1022,2 hPa 0,0 l/m 1,2 km/h (1 Bft) O-SO 104 0 min 0,000 mm 0,0 UV-I 0 W/m 5,0 C 5,6 C 1,6 km/h (1 Bft) 100,00 %
05.11.2015 00:59 5,6 C 96 % 1022,1 hPa 0,0 l/m 1,3 km/h (1 Bft) O-SO 104 0 min 0,000 mm 0,0 UV-I 0 W/m 5,0 C 5,6 C 1,6 km/h (1 Bft) 100,00 %
05.11.2015 01:00 5,5 C 96 % 1022,1 hPa 0,0 l/m 1,7 km/h (1 Bft) O-SO 104 0 min 0,000 mm 0,0 UV-I 0 W/m 4,9 C 5,5 C 3,2 km/h (1 Bft) 95,83 %
05.11.2015 01:01 5,4 C 96 % 1022,1 hPa 0,0 l/m 0,5 km/h (0 Bft) O-SO 104 0 min 0,000 mm 0,0 UV-I 0 W/m 4,8 C 5,4 C 1,6 km/h (1 Bft) 100,00 %
05.11.2015 01:02 5,4 C 96 % 1022,1 hPa 0,0 l/m 0,1 km/h (0 Bft) O-SO 104 0 min 0,000 mm 0,0 UV-I 0 W/m 4,8 C 5,4 C 1,6 km/h (1 Bft) 95,83 %
05.11.2015 01:03 5,4 C 96 % 1022,1 hPa 0,0 l/m 0,0 km/h (0 Bft) O-SO 104 0 min 0,000 mm 0,0 UV-I 0 W/m 4,8 C 5,4 C 0,0 km/h (0 Bft) 100,00 %
05.11.2015 01:04 5,4 C 96 % 1022,1 hPa 0,0 l/m 0,0 km/h (0 Bft) O-SO 104 0 min 0,000 mm 0,0 UV-I 0 W/m 4,8 C 5,4 C 0,0 km/h (0 Bft) 100,00 %
05.11.2015 01:05 5,5 C 97 % 1022,0 hPa 0,0 l/m 0,0 km/h (0 Bft) O-SO 104 0 min 0,000 mm 0,0 UV-I 0 W/m 5,1 C 5,5 C 0,0 km/h (0 Bft) 95,65 %
05.11.2015 01:06 5,5 C 97 % 1022,0 hPa 0,0 l/m 0,2 km/h (0 Bft) O-SO 104 0 min 0,000 mm 0,0 UV-I 0 W/m 5,1 C 5,5 C 1,6 km/h (1 Bft) 100,00 %
05.11.2015 01:07 5,5 C 97 % 1022,0 hPa 0,0 l/m 1,0 km/h (0 Bft) O-SO 104 0 min 0,000 mm 0,0 UV-I 0 W/m 5,1 C 5,5 C 1,6 km/h (1 Bft) 100,00 %
05.11.2015 01:08 5,5 C 97 % 1022,0 hPa 0,0 l/m 1,3 km/h (1 Bft) O-SO 104 0 min 0,000 mm 0,0 UV-I 0 W/m 5,1 C 5,5 C 1,6 km/h (1 Bft) 100,00 %
05.11.2015 01:09 5,5 C 97 % 1022,0 hPa 0,0 l/m 1,1 km/h (1 Bft) O-SO 104 0 min 0,000 mm 0,0 UV-I 0 W/m 5,1 C 5,5 C 1,6 km/h (1 Bft) 100,00 %
05.11.2015 01:10 5,5 C 97 % 1022,0 hPa 0,0 l/m 1,1 km/h (1 Bft) O-SO 104 0 min 0,000 mm 0,0 UV-I 0 W/m 5,1 C 5,5 C 1,6 km/h (1 Bft) 100,00 %
05.11.2015 01:11 5,4 C 97 % 1021,9 hPa 0,0 l/m 0,7 km/h (0 Bft) O-SO 104 0 min 0,000 mm 0,0 UV-I 0 W/m 5,0 C 5,4 C 1,6 km/h (1 Bft) 100,00 %
05.11.2015 01:12 5,4 C 97 % 1022,0 hPa 0,0 l/m 0,3 km/h (0 Bft) O-SO 104 0 min 0,000 mm 0,0 UV-I 0 W/m 5,0 C 5,4 C 1,6 km/h (1 Bft) 100,00 %
05.11.2015 01:13 5,4 C 97 % 1021,9 hPa 0,0 l/m 0,0 km/h (0 Bft) O-SO 104 0 min 0,000 mm 0,0 UV-I 0 W/m 5,0 C 5,4 C 0,0 km/h (0 Bft) 100,00 %
05.11.2015 01:14 5,4 C 96 % 1021,9 hPa 0,0 l/m 0,0 km/h (0 Bft) O-SO 104 0 min 0,000 mm 0,0 UV-I 0 W/m 4,8 C 5,4 C 0,0 km/h (0 Bft) 100,00 %
05.11.2015 01:15 5,3 C 96 % 1022,0 hPa 0,0 l/m 0,0 km/h (0 Bft) O-SO 104 0 min 0,000 mm 0,0 UV-I 0 W/m 4,7 C 5,3 C 0,0 km/h (0 Bft) 100,00 %
05.11.2015 01:16 5,3 C 96 % 1022,0 hPa 0,0 l/m 0,0 km/h (0 Bft) O-SO 104 0 min 0,000 mm 0,0 UV-I 0 W/m 4,7 C 5,3 C 0,0 km/h (0 Bft) 100,00 %
05.11.2015 01:17 5,3 C 96 % 1022,0 hPa 0,0 l/m 0,2 km/h (0 Bft) O-SO 104 0 min 0,000 mm 0,0 UV-I 0 W/m 4,7 C 5,3 C 1,6 km/h (1 Bft) 100,00 %
05.11.2015 01:18 5,3 C 96 % 1022,0 hPa 0,0 l/m 0,9 km/h (0 Bft) O-SO 104 0 min 0,000 mm 0,0 UV-I 0 W/m 4,7 C 5,3 C 1,6 km/h (1 Bft) 100,00 %
05.11.2015 01:19 5,4 C 96 % 1022,0 hPa 0,0 l/m 0,2 km/h (0 Bft) O-SO 104 0 min 0,000 mm 0,0 UV-I 0 W/m 4,8 C 5,4 C 1,6 km/h (1 Bft) 100,00 %
05.11.2015 01:20 5,4 C 97 % 1022,0 hPa 0,0 l/m 0,0 km/h (0 Bft) O-SO 104 0 min 0,000 mm 0,0 UV-I 0 W/m 5,0 C 5,4 C 0,0 km/h (0 Bft) 100,00 %
05.11.2015 01:21 5,4 C 97 % 1022,0 hPa 0,0 l/m 0,2 km/h (0 Bft) O-SO 104 0 min 0,000 mm 0,0 UV-I 0 W/m 5,0 C 5,4 C 1,6 km/h (1 Bft) 100,00 %
05.11.2015 01:22 5,4 C 97 % 1022,0 hPa 0,0 l/m 0,3 km/h (0 Bft) O-SO 104 0 min 0,000 mm 0,0 UV-I 0 W/m 5,0 C 5,4 C 1,6 km/h (1 Bft) 100,00 %
05.11.2015 01:23 5,4 C 97 % 1022,0 hPa 0,0 l/m 0,0 km/h (0 Bft) O-SO 104 0 min 0,000 mm 0,0 UV-I 0 W/m 5,0 C 5,4 C 0,0 km/h (0 Bft) 100,00 %
05.11.2015 01:24 5,5 C 97 % 1022,0 hPa 0,0 l/m 0,0 km/h (0 Bft) O-SO 104 0 min 0,000 mm 0,0 UV-I 0 W/m 5,1 C 5,5 C 0,0 km/h (0 Bft) 100,00 %
05.11.2015 01:25 5,5 C 97 % 1022,0 hPa 0,0 l/m 0,0 km/h (0 Bft) O-SO 104 0 min 0,000 mm 0,0 UV-I 0 W/m 5,1 C 5,5 C 0,0 km/h (0 Bft) 100,00 %
05.11.2015 01:26 5,6 C 97 % 1022,1 hPa 0,0 l/m 0,0 km/h (0 Bft) O-SO 104 0 min 0,000 mm 0,0 UV-I 0 W/m 5,2 C 5,6 C 0,0 km/h (0 Bft) 100,00 %
05.11.2015 01:27 5,6 C 97 % 1022,1 hPa 0,0 l/m 0,8 km/h (0 Bft) O-SO 104 0 min 0,000 mm 0,0 UV-I 0 W/m 5,2 C 5,6 C 1,6 km/h (1 Bft) 95,83 %
05.11.2015 01:28 5,6 C 97 % 1022,0 hPa 0,0 l/m 0,4 km/h (0 Bft) O-SO 104 0 min 0,000 mm 0,0 UV-I 0 W/m 5,2 C 5,6 C 1,6 km/h (1 Bft) 91,30 %
05.11.2015 01:29 5,6 C 97 % 1022,0 hPa 0,0 l/m 1,1 km/h (1 Bft) O-SO 104 0 min 0,000 mm 0,0 UV-I 0 W/m 5,2 C 5,6 C 1,6 km/h (1 Bft) 100,00 %
05.11.2015 01:30 5,6 C 96 % 1022,0 hPa 0,0 l/m 1,4 km/h (1 Bft) O-SO 104 0 min 0,000 mm 0,0 UV-I 0 W/m 5,0 C 5,6 C 1,6 km/h (1 Bft) 95,65 %
05.11.2015 01:31 5,5 C 96 % 1022,0 hPa 0,0 l/m 1,2 km/h (1 Bft) O-SO 104 0 min 0,000 mm 0,0 UV-I 0 W/m 4,9 C 5,5 C 1,6 km/h (1 Bft) 100,00 %
05.11.2015 01:32 5,6 C 97 % 1022,0 hPa 0,0 l/m 1,4 km/h (1 Bft) O-SO 104 0 min 0,000 mm 0,0 UV-I 0 W/m 5,2 C 5,6 C 1,6 km/h (1 Bft) 100,00 %
05.11.2015 01:33 5,6 C 97 % 1022,1 hPa 0,0 l/m 0,4 km/h (0 Bft) O-SO 104 0 min 0,000 mm 0,0 UV-I 0 W/m 5,2 C 5,6 C 1,6 km/h (1 Bft) 100,00 %
05.11.2015 01:34 5,6 C 97 % 1022,1 hPa 0,0 l/m 0,0 km/h (0 Bft) O-SO 104 0 min 0,000 mm 0,0 UV-I 0 W/m 5,2 C 5,6 C 0,0 km/h (0 Bft) 95,65 %
05.11.2015 01:35 5,7 C 97 % 1022,1 hPa 0,0 l/m 0,1 km/h (0 Bft) O-SO 104 0 min 0,000 mm 0,0 UV-I 0 W/m 5,3 C 5,7 C 1,6 km/h (1 Bft) 100,00 %
05.11.2015 01:36 5,7 C 97 % 1022,1 hPa 0,0 l/m 1,7 km/h (1 Bft) O 91 0 min 0,000 mm 0,0 UV-I 0 W/m 5,3 C 5,7 C 3,2 km/h (1 Bft) 100,00 %
05.11.2015 01:37 5,7 C 97 % 1022,1 hPa 0,0 l/m 1,9 km/h (1 Bft) O 91 0 min 0,000 mm 0,0 UV-I 0 W/m 5,3 C 5,7 C 3,2 km/h (1 Bft) 100,00 %
05.11.2015 01:38 5,7 C 96 % 1022,1 hPa 0,0 l/m 0,1 km/h (0 Bft) O 91 0 min 0,000 mm 0,0 UV-I 0 W/m 5,1 C 5,7 C 1,6 km/h (1 Bft) 95,83 %
05.11.2015 01:39 5,7 C 96 % 1022,1 hPa 0,0 l/m 0,0 km/h (0 Bft) O 91 0 min 0,000 mm 0,0 UV-I 0 W/m 5,1 C 5,7 C 0,0 km/h (0 Bft) 100,00 %
05.11.2015 01:40 5,7 C 96 % 1022,1 hPa 0,0 l/m 0,1 km/h (0 Bft) O 91 0 min 0,000 mm 0,0 UV-I 0 W/m 5,1 C 5,7 C 1,6 km/h (1 Bft) 100,00 %
05.11.2015 01:41 5,7 C 97 % 1022,1 hPa 0,0 l/m 0,4 km/h (0 Bft) O 91 0 min 0,000 mm 0,0 UV-I 0 W/m 5,3 C 5,7 C 1,6 km/h (1 Bft) 100,00 %
05.11.2015 01:42 5,7 C 97 % 1022,1 hPa 0,0 l/m 0,0 km/h (0 Bft) O 91 0 min 0,000 mm 0,0 UV-I 0 W/m 5,3 C 5,7 C 0,0 km/h (0 Bft) 100,00 %
05.11.2015 01:43 5,7 C 97 % 1022,1 hPa 0,0 l/m 0,5 km/h (0 Bft) O 83 0 min 0,000 mm 0,0 UV-I 0 W/m 5,3 C 5,7 C 1,6 km/h (1 Bft) 100,00 %
05.11.2015 01:44 5,7 C 96 % 1022,0 hPa 0,0 l/m 1,3 km/h (1 Bft) O 79 0 min 0,000 mm 0,0 UV-I 0 W/m 5,1 C 5,7 C 1,6 km/h (1 Bft) 100,00 %
05.11.2015 01:45 5,7 C 96 % 1022,0 hPa 0,0 l/m 1,7 km/h (1 Bft) O-NO 73 0 min 0,000 mm 0,0 UV-I 0 W/m 5,1 C 5,7 C 3,2 km/h (1 Bft) 100,00 %
05.11.2015 01:46 5,6 C 96 % 1021,9 hPa 0,0 l/m 1,5 km/h (1 Bft) O-NO 71 0 min 0,000 mm 0,0 UV-I 0 W/m 5,0 C 5,6 C 3,2 km/h (1 Bft) 100,00 %
05.11.2015 01:47 5,6 C 96 % 1021,9 hPa 0,0 l/m 1,4 km/h (1 Bft) NO 40 0 min 0,000 mm 0,0 UV-I 0 W/m 5,0 C 5,6 C 3,2 km/h (1 Bft) 100,00 %
05.11.2015 01:48 5,5 C 96 % 1022,0 hPa 0,0 l/m 0,7 km/h (0 Bft) NO 40 0 min 0,000 mm 0,0 UV-I 0 W/m 4,9 C 5,5 C 1,6 km/h (1 Bft) 100,00 %
05.11.2015 01:49 5,5 C 96 % 1022,1 hPa 0,0 l/m 0,0 km/h (0 Bft) NO 40 0 min 0,000 mm 0,0 UV-I 0 W/m 4,9 C 5,5 C 0,0 km/h (0 Bft) 100,00 %
05.11.2015 01:50 5,4 C 96 % 1022,1 hPa 0,0 l/m 1,1 km/h (1 Bft) SO 140 0 min 0,000 mm 0,0 UV-I 0 W/m 4,8 C 5,4 C 3,2 km/h (1 Bft) 95,83 %
05.11.2015 01:51 5,4 C 96 % 1022,1 hPa 0,0 l/m 2,3 km/h (1 Bft) S 175 0 min 0,000 mm 0,0 UV-I 0 W/m 4,8 C 5,4 C 3,2 km/h (1 Bft) 100,00 %
05.11.2015 01:52 5,6 C 97 % 1022,1 hPa 0,0 l/m 1,0 km/h (0 Bft) S 175 0 min 0,000 mm 0,0 UV-I 0 W/m 5,2 C 5,6 C 1,6 km/h (1 Bft) 91,67 %
05.11.2015 01:53 5,6 C 97 % 1022,1 hPa 0,0 l/m 0,3 km/h (0 Bft) S 175 0 min 0,000 mm 0,0 UV-I 0 W/m 5,2 C 5,6 C 1,6 km/h (1 Bft) 100,00 %
05.11.2015 01:54 5,6 C 97 % 1022,1 hPa 0,0 l/m 0,0 km/h (0 Bft) S 175 0 min 0,000 mm 0,0 UV-I 0 W/m 5,2 C 5,6 C 0,0 km/h (0 Bft) 100,00 %
05.11.2015 01:55 5,6 C 97 % 1022,1 hPa 0,0 l/m 0,0 km/h (0 Bft) S 175 0 min 0,000 mm 0,0 UV-I 0 W/m 5,2 C 5,6 C 0,0 km/h (0 Bft) 100,00 %
05.11.2015 01:56 5,6 C 97 % 1022,1 hPa 0,0 l/m 0,2 km/h (0 Bft) S 175 0 min 0,000 mm 0,0 UV-I 0 W/m 5,2 C 5,6 C 1,6 km/h (1 Bft) 100,00 %
05.11.2015 01:57 5,6 C 96 % 1022,0 hPa 0,0 l/m 0,0 km/h (0 Bft) S 175 0 min 0,000 mm 0,0 UV-I 0 W/m 5,0 C 5,6 C 0,0 km/h (0 Bft) 100,00 %
05.11.2015 01:58 5,6 C 96 % 1022,0 hPa 0,0 l/m 0,0 km/h (0 Bft) S 175 0 min 0,000 mm 0,0 UV-I 0 W/m 5,0 C 5,6 C 0,0 km/h (0 Bft) 95,65 %
05.11.2015 01:59 5,6 C 96 % 1022,0 hPa 0,0 l/m 0,0 km/h (0 Bft) S 175 0 min 0,000 mm 0,0 UV-I 0 W/m 5,0 C 5,6 C 0,0 km/h (0 Bft) 100,00 %
05.11.2015 02:00 5,6 C 96 % 1022,0 hPa 0,0 l/m 0,0 km/h (0 Bft) S 175 0 min 0,000 mm 0,0 UV-I 0 W/m 5,0 C 5,6 C 0,0 km/h (0 Bft) 100,00 %
05.11.2015 02:01 5,6 C 96 % 1022,0 hPa 0,0 l/m 0,0 km/h (0 Bft) S 175 0 min 0,000 mm 0,0 UV-I 0 W/m 5,0 C 5,6 C 0,0 km/h (0 Bft) 100,00 %
05.11.2015 02:02 5,6 C 96 % 1021,9 hPa 0,0 l/m 0,4 km/h (0 Bft) S 175 0 min 0,000 mm 0,0 UV-I 0 W/m 5,0 C 5,6 C 1,6 km/h (1 Bft) 100,00 %
05.11.2015 02:03 5,6 C 96 % 1021,9 hPa 0,0 l/m 1,4 km/h (1 Bft) S 175 0 min 0,000 mm 0,0 UV-I 0 W/m 5,0 C 5,6 C 3,2 km/h (1 Bft) 100,00 %
05.11.2015 02:04 5,6 C 96 % 1022,0 hPa 0,0 l/m 2,2 km/h (1 Bft) S 175 0 min 0,000 mm 0,0 UV-I 0 W/m 5,0 C 5,6 C 3,2 km/h (1 Bft) 100,00 %
05.11.2015 02:05 5,5 C 96 % 1022,0 hPa 0,0 l/m 2,0 km/h (1 Bft) S 176 0 min 0,000 mm 0,0 UV-I 0 W/m 4,9 C 5,5 C 3,2 km/h (1 Bft) 100,00 %
05.11.2015 02:06 5,5 C 96 % 1022,0 hPa 0,0 l/m 2,3 km/h (1 Bft) S 173 0 min 0,000 mm 0,0 UV-I 0 W/m 4,9 C 5,5 C 3,2 km/h (1 Bft) 100,00 %
05.11.2015 02:07 5,5 C 96 % 1022,1 hPa 0,0 l/m 2,3 km/h (1 Bft) S-SO 155 0 min 0,000 mm 0,0 UV-I 0 W/m 4,9 C 5,5 C 3,2 km/h (1 Bft) 100,00 %
05.11.2015 02:08 5,5 C 97 % 1022,1 hPa 0,0 l/m 1,7 km/h (1 Bft) S-SO 156 0 min 0,000 mm 0,0 UV-I 0 W/m 5,1 C 5,5 C 3,2 km/h (1 Bft) 100,00 %
05.11.2015 02:09 5,5 C 97 % 1022,1 hPa 0,0 l/m 0,3 km/h (0 Bft) S-SO 156 0 min 0,000 mm 0,0 UV-I 0 W/m 5,1 C 5,5 C 1,6 km/h (1 Bft) 100,00 %
05.11.2015 02:10 5,6 C 97 % 1022,1 hPa 0,0 l/m 0,0 km/h (0 Bft) S-SO 156 0 min 0,000 mm 0,0 UV-I 0 W/m 5,2 C 5,6 C 0,0 km/h (0 Bft) 100,00 %
05.11.2015 02:11 5,6 C 97 % 1022,0 hPa 0,0 l/m 0,0 km/h (0 Bft) S-SO 156 0 min 0,000 mm 0,0 UV-I 0 W/m 5,2 C 5,6 C 0,0 km/h (0 Bft) 94,74 %
05.11.2015 02:12 5,6 C 97 % 1022,0 hPa 0,0 l/m 0,1 km/h (0 Bft) S-SO 156 0 min 0,000 mm 0,0 UV-I 0 W/m 5,2 C 5,6 C 1,6 km/h (1 Bft) 100,00 %
05.11.2015 02:13 5,6 C 97 % 1022,1 hPa 0,0 l/m 0,0 km/h (0 Bft) S-SO 156 0 min 0,000 mm 0,0 UV-I 0 W/m 5,2 C 5,6 C 0,0 km/h (0 Bft) 100,00 %
05.11.2015 02:14 5,6 C 97 % 1022,1 hPa 0,0 l/m 0,0 km/h (0 Bft) S-SO 156 0 min 0,000 mm 0,0 UV-I 0 W/m 5,2 C 5,6 C 0,0 km/h (0 Bft) 100,00 %
05.11.2015 02:15 5,6 C 96 % 1022,1 hPa 0,0 l/m 0,0 km/h (0 Bft) S-SO 156 0 min 0,000 mm 0,0 UV-I 0 W/m 5,0 C 5,6 C 0,0 km/h (0 Bft) 100,00 %
05.11.2015 02:16 5,6 C 96 % 1022,1 hPa 0,0 l/m 0,1 km/h (0 Bft) S-SO 156 0 min 0,000 mm 0,0 UV-I 0 W/m 5,0 C 5,6 C 1,6 km/h (1 Bft) 100,00 %
05.11.2015 02:17 5,6 C 96 % 1022,1 hPa 0,0 l/m 0,8 km/h (0 Bft) S-SO 156 0 min 0,000 mm 0,0 UV-I 0 W/m 5,0 C 5,6 C 1,6 km/h (1 Bft) 100,00 %
05.11.2015 02:18 5,6 C 96 % 1022,0 hPa 0,0 l/m 1,3 km/h (1 Bft) W-SW 250 0 min 0,000 mm 0,0 UV-I 0 W/m 5,0 C 5,6 C 1,6 km/h (1 Bft) 100,00 %
05.11.2015 02:19 5,6 C 96 % 1022,0 hPa 0,0 l/m 1,9 km/h (1 Bft) W-SW 254 0 min 0,000 mm 0,0 UV-I 0 W/m 5,0 C 5,6 C 3,2 km/h (1 Bft) 100,00 %
05.11.2015 02:20 5,5 C 96 % 1022,0 hPa 0,0 l/m 1,7 km/h (1 Bft) W-SW 254 0 min 0,000 mm 0,0 UV-I 0 W/m 4,9 C 5,5 C 3,2 km/h (1 Bft) 100,00 %
05.11.2015 02:21 5,5 C 96 % 1022,0 hPa 0,0 l/m 0,0 km/h (0 Bft) W-SW 254 0 min 0,000 mm 0,0 UV-I 0 W/m 4,9 C 5,5 C 0,0 km/h (0 Bft) 100,00 %
05.11.2015 02:22 5,5 C 96 % 1022,0 hPa 0,0 l/m 0,0 km/h (0 Bft) W-SW 254 0 min 0,000 mm 0,0 UV-I 0 W/m 4,9 C 5,5 C 0,0 km/h (0 Bft) 100,00 %
05.11.2015 02:23 5,5 C 96 % 1022,1 hPa 0,0 l/m 0,1 km/h (0 Bft) W-SW 254 0 min 0,000 mm 0,0 UV-I 0 W/m 4,9 C 5,5 C 1,6 km/h (1 Bft) 95,65 %
05.11.2015 02:24 5,5 C 97 % 1022,1 hPa 0,0 l/m 0,7 km/h (0 Bft) W-SW 253 0 min 0,000 mm 0,0 UV-I 0 W/m 5,1 C 5,5 C 1,6 km/h (1 Bft) 100,00 %
05.11.2015 02:25 5,5 C 97 % 1022,1 hPa 0,0 l/m 0,8 km/h (0 Bft) W-SW 253 0 min 0,000 mm 0,0 UV-I 0 W/m 5,1 C 5,5 C 1,6 km/h (1 Bft) 96,15 %
05.11.2015 02:26 5,5 C 97 % 1022,1 hPa 0,0 l/m 0,8 km/h (0 Bft) W-SW 253 0 min 0,000 mm 0,0 UV-I 0 W/m 5,1 C 5,5 C 1,6 km/h (1 Bft) 100,00 %
05.11.2015 02:27 5,5 C 97 % 1022,1 hPa 0,0 l/m 0,9 km/h (0 Bft) W-SW 253 0 min 0,000 mm 0,0 UV-I 0 W/m 5,1 C 5,5 C 1,6 km/h (1 Bft) 100,00 %
05.11.2015 02:28 5,5 C 97 % 1022,1 hPa 0,0 l/m 1,5 km/h (1 Bft) W-SW 253 0 min 0,000 mm 0,0 UV-I 0 W/m 5,1 C 5,5 C 3,2 km/h (1 Bft) 100,00 %
05.11.2015 02:29 5,5 C 96 % 1022,2 hPa 0,0 l/m 1,8 km/h (1 Bft) W-SW 253 0 min 0,000 mm 0,0 UV-I 0 W/m 4,9 C 5,5 C 3,2 km/h (1 Bft) 100,00 %
05.11.2015 02:30 5,6 C 97 % 1022,1 hPa 0,0 l/m 0,8 km/h (0 Bft) W-SW 253 0 min 0,000 mm 0,0 UV-I 0 W/m 5,2 C 5,6 C 1,6 km/h (1 Bft) 100,00 %
05.11.2015 02:31 5,6 C 97 % 1022,1 hPa 0,0 l/m 0,0 km/h (0 Bft) W-SW 253 0 min 0,000 mm 0,0 UV-I 0 W/m 5,2 C 5,6 C 0,0 km/h (0 Bft) 95,83 %
05.11.2015 02:32 5,6 C 97 % 1022,1 hPa 0,0 l/m 0,0 km/h (0 Bft) W-SW 253 0 min 0,000 mm 0,0 UV-I 0 W/m 5,2 C 5,6 C 0,0 km/h (0 Bft) 100,00 %
05.11.2015 02:33 5,6 C 97 % 1022,1 hPa 0,0 l/m 0,0 km/h (0 Bft) W-SW 253 0 min 0,000 mm 0,0 UV-I 0 W/m 5,2 C 5,6 C 0,0 km/h (0 Bft) 95,83 %
05.11.2015 02:34 5,6 C 96 % 1022,2 hPa 0,0 l/m 1,0 km/h (0 Bft) W-SW 253 0 min 0,000 mm 0,0 UV-I 0 W/m 5,0 C 5,6 C 1,6 km/h (1 Bft) 100,00 %
05.11.2015 02:35 5,7 C 96 % 1022,2 hPa 0,0 l/m 1,9 km/h (1 Bft) W-SW 253 0 min 0,000 mm 0,0 UV-I 0 W/m 5,1 C 5,7 C 3,2 km/h (1 Bft) 100,00 %
05.11.2015 02:36 5,7 C 97 % 1022,1 hPa 0,0 l/m 1,7 km/h (1 Bft) W-SW 253 0 min 0,000 mm 0,0 UV-I 0 W/m 5,3 C 5,7 C 3,2 km/h (1 Bft) 95,65 %
05.11.2015 02:37 5,7 C 97 % 1022,2 hPa 0,0 l/m 1,2 km/h (1 Bft) W-SW 253 0 min 0,000 mm 0,0 UV-I 0 W/m 5,3 C 5,7 C 1,6 km/h (1 Bft) 96,30 %
05.11.2015 02:38 5,7 C 97 % 1022,1 hPa 0,0 l/m 0,9 km/h (0 Bft) W-SW 253 0 min 0,000 mm 0,0 UV-I 0 W/m 5,3 C 5,7 C 1,6 km/h (1 Bft) 100,00 %
05.11.2015 02:39 5,7 C 96 % 1022,1 hPa 0,0 l/m 0,1 km/h (0 Bft) W-SW 253 0 min 0,000 mm 0,0 UV-I 0 W/m 5,1 C 5,7 C 1,6 km/h (1 Bft) 96,30 %
05.11.2015 02:40 5,7 C 97 % 1022,1 hPa 0,0 l/m 0,0 km/h (0 Bft) W-SW 253 0 min 0,000 mm 0,0 UV-I 0 W/m 5,3 C 5,7 C 0,0 km/h (0 Bft) 100,00 %
05.11.2015 02:41 5,7 C 97 % 1022,1 hPa 0,0 l/m 1,1 km/h (1 Bft) W-SW 253 0 min 0,000 mm 0,0 UV-I 0 W/m 5,3 C 5,7 C 1,6 km/h (1 Bft) 100,00 %
05.11.2015 02:42 5,7 C 97 % 1022,1 hPa 0,0 l/m 1,2 km/h (1 Bft) W-SW 253 0 min 0,000 mm 0,0 UV-I 0 W/m 5,3 C 5,7 C 3,2 km/h (1 Bft) 95,65 %
05.11.2015 02:43 5,7 C 97 % 1022,1 hPa 0,0 l/m 0,9 km/h (0 Bft) W-SW 253 0 min 0,000 mm 0,0 UV-I 0 W/m 5,3 C 5,7 C 1,6 km/h (1 Bft) 100,00 %
05.11.2015 02:44 5,7 C 96 % 1022,1 hPa 0,0 l/m 1,1 km/h (1 Bft) W-SW 253 0 min 0,000 mm 0,0 UV-I 0 W/m 5,1 C 5,7 C 1,6 km/h (1 Bft) 100,00 %
05.11.2015 02:45 5,7 C 96 % 1022,1 hPa 0,0 l/m 0,9 km/h (0 Bft) W-SW 253 0 min 0,000 mm 0,0 UV-I 0 W/m 5,1 C 5,7 C 1,6 km/h (1 Bft) 100,00 %
05.11.2015 02:46 5,7 C 97 % 1022,1 hPa 0,0 l/m 0,0 km/h (0 Bft) W-SW 253 0 min 0,000 mm 0,0 UV-I 0 W/m 5,3 C 5,7 C 0,0 km/h (0 Bft) 100,00 %
05.11.2015 02:47 5,7 C 97 % 1022,1 hPa 0,0 l/m 0,1 km/h (0 Bft) W-SW 253 0 min 0,000 mm 0,0 UV-I 0 W/m 5,3 C 5,7 C 1,6 km/h (1 Bft) 100,00 %
05.11.2015 02:48 5,7 C 97 % 1022,1 hPa 0,0 l/m 0,9 km/h (0 Bft) W-SW 253 0 min 0,000 mm 0,0 UV-I 0 W/m 5,3 C 5,7 C 1,6 km/h (1 Bft) 100,00 %
05.11.2015 02:49 5,7 C 97 % 1022,0 hPa 0,0 l/m 0,5 km/h (0 Bft) W-SW 253 0 min 0,000 mm 0,0 UV-I 0 W/m 5,3 C 5,7 C 1,6 km/h (1 Bft) 100,00 %
05.11.2015 02:50 5,7 C 96 % 1022,0 hPa 0,0 l/m 0,1 km/h (0 Bft) W-SW 253 0 min 0,000 mm 0,0 UV-I 0 W/m 5,1 C 5,7 C 1,6 km/h (1 Bft) 100,00 %
05.11.2015 02:51 5,7 C 96 % 1022,0 hPa 0,0 l/m 0,1 km/h (0 Bft) W-SW 253 0 min 0,000 mm 0,0 UV-I 0 W/m 5,1 C 5,7 C 1,6 km/h (1 Bft) 100,00 %
05.11.2015 02:52 5,7 C 96 % 1022,0 hPa 0,0 l/m 0,3 km/h (0 Bft) W-SW 253 0 min 0,000 mm 0,0 UV-I 0 W/m 5,1 C 5,7 C 1,6 km/h (1 Bft) 100,00 %
05.11.2015 02:53 5,7 C 96 % 1022,0 hPa 0,0 l/m 0,6 km/h (0 Bft) W-SW 253 0 min 0,000 mm 0,0 UV-I 0 W/m 5,1 C 5,7 C 1,6 km/h (1 Bft) 100,00 %
05.11.2015 02:54 5,7 C 96 % 1022,0 hPa 0,0 l/m 0,0 km/h (0 Bft) W-SW 253 0 min 0,000 mm 0,0 UV-I 0 W/m 5,1 C 5,7 C 0,0 km/h (0 Bft) 100,00 %
05.11.2015 02:55 5,6 C 96 % 1022,0 hPa 0,0 l/m 0,0 km/h (0 Bft) W-SW 253 0 min 0,000 mm 0,0 UV-I 0 W/m 5,0 C 5,6 C 0,0 km/h (0 Bft) 100,00 %
05.11.2015 02:56 5,6 C 96 % 1022,0 hPa 0,0 l/m 0,0 km/h (0 Bft) W-SW 253 0 min 0,000 mm 0,0 UV-I 0 W/m 5,0 C 5,6 C 0,0 km/h (0 Bft) 100,00 %
05.11.2015 02:57 5,6 C 96 % 1022,0 hPa 0,0 l/m 0,0 km/h (0 Bft) W-SW 253 0 min 0,000 mm 0,0 UV-I 0 W/m 5,0 C 5,6 C 0,0 km/h (0 Bft) 100,00 %
05.11.2015 02:58 5,5 C 96 % 1021,9 hPa 0,0 l/m 0,1 km/h (0 Bft) W-SW 253 0 min 0,000 mm 0,0 UV-I 0 W/m 4,9 C 5,5 C 1,6 km/h (1 Bft) 100,00 %
05.11.2015 02:59 5,5 C 96 % 1021,9 hPa 0,0 l/m 0,0 km/h (0 Bft) W-SW 253 0 min 0,000 mm 0,0 UV-I 0 W/m 4,9 C 5,5 C 0,0 km/h (0 Bft) 100,00 %
05.11.2015 03:00 5,5 C 96 % 1021,9 hPa 0,0 l/m 0,0 km/h (0 Bft) W-SW 253 0 min 0,000 mm 0,0 UV-I 0 W/m 4,9 C 5,5 C 0,0 km/h (0 Bft) 100,00 %
05.11.2015 03:01 5,5 C 97 % 1021,9 hPa 0,0 l/m 0,0 km/h (0 Bft) W-SW 253 0 min 0,000 mm 0,0 UV-I 0 W/m 5,1 C 5,5 C 0,0 km/h (0 Bft) 100,00 %
05.11.2015 03:02 5,5 C 97 % 1021,9 hPa 0,0 l/m 0,0 km/h (0 Bft) W-SW 253 0 min 0,000 mm 0,0 UV-I 0 W/m 5,1 C 5,5 C 0,0 km/h (0 Bft) 100,00 %
05.11.2015 03:03 5,5 C 97 % 1021,9 hPa 0,0 l/m 0,0 km/h (0 Bft) W-SW 253 0 min 0,000 mm 0,0 UV-I 0 W/m 5,1 C 5,5 C 0,0 km/h (0 Bft) 100,00 %
05.11.2015 03:04 5,6 C 97 % 1021,9 hPa 0,0 l/m 0,1 km/h (0 Bft) W-SW 253 0 min 0,000 mm 0,0 UV-I 0 W/m 5,2 C 5,6 C 1,6 km/h (1 Bft) 100,00 %
05.11.2015 03:05 5,6 C 97 % 1021,9 hPa 0,0 l/m 0,7 km/h (0 Bft) W-NW 290 0 min 0,000 mm 0,0 UV-I 0 W/m 5,2 C 5,6 C 1,6 km/h (1 Bft) 100,00 %
05.11.2015 03:06 5,6 C 97 % 1021,9 hPa 0,0 l/m 0,9 km/h (0 Bft) NO 51 0 min 0,000 mm 0,0 UV-I 0 W/m 5,2 C 5,6 C 1,6 km/h (1 Bft) 100,00 %
05.11.2015 03:07 5,6 C 97 % 1021,9 hPa 0,0 l/m 0,6 km/h (0 Bft) NO 49 0 min 0,000 mm 0,0 UV-I 0 W/m 5,2 C 5,6 C 1,6 km/h (1 Bft) 100,00 %
05.11.2015 03:08 5,6 C 97 % 1021,9 hPa 0,0 l/m 0,7 km/h (0 Bft) NO 43 0 min 0,000 mm 0,0 UV-I 0 W/m 5,2 C 5,6 C 1,6 km/h (1 Bft) 100,00 %
05.11.2015 03:09 5,6 C 97 % 1021,9 hPa 0,0 l/m 0,2 km/h (0 Bft) NO 44 0 min 0,000 mm 0,0 UV-I 0 W/m 5,2 C 5,6 C 1,6 km/h (1 Bft) 100,00 %
05.11.2015 03:10 5,6 C 97 % 1021,9 hPa 0,0 l/m 0,2 km/h (0 Bft) NO 44 0 min 0,000 mm 0,0 UV-I 0 W/m 5,2 C 5,6 C 1,6 km/h (1 Bft) 100,00 %
05.11.2015 03:11 5,5 C 97 % 1021,9 hPa 0,0 l/m 0,1 km/h (0 Bft) NO 43 0 min 0,000 mm 0,0 UV-I 0 W/m 5,1 C 5,5 C 1,6 km/h (1 Bft) 100,00 %
05.11.2015 03:12 5,5 C 97 % 1021,9 hPa 0,0 l/m 0,1 km/h (0 Bft) NO 43 0 min 0,000 mm 0,0 UV-I 0 W/m 5,1 C 5,5 C 1,6 km/h (1 Bft) 100,00 %
05.11.2015 03:13 5,5 C 97 % 1021,9 hPa 0,0 l/m 0,1 km/h (0 Bft) NO 43 0 min 0,000 mm 0,0 UV-I 0 W/m 5,1 C 5,5 C 1,6 km/h (1 Bft) 96,15 %
05.11.2015 03:14 5,5 C 97 % 1021,9 hPa 0,0 l/m 0,1 km/h (0 Bft) NO 43 0 min 0,000 mm 0,0 UV-I 0 W/m 5,1 C 5,5 C 1,6 km/h (1 Bft) 100,00 %
05.11.2015 03:15 5,5 C 97 % 1021,9 hPa 0,0 l/m 0,0 km/h (0 Bft) NO 44 0 min 0,000 mm 0,0 UV-I 0 W/m 5,1 C 5,5 C 0,0 km/h (0 Bft) 100,00 %
05.11.2015 03:16 5,4 C 97 % 1022,0 hPa 0,0 l/m 0,6 km/h (0 Bft) O-NO 63 0 min 0,000 mm 0,0 UV-I 0 W/m 5,0 C 5,4 C 1,6 km/h (1 Bft) 96,15 %
05.11.2015 03:17 5,4 C 97 % 1022,0 hPa 0,0 l/m 2,5 km/h (1 Bft) O 87 0 min 0,000 mm 0,0 UV-I 0 W/m 5,0 C 5,4 C 3,2 km/h (1 Bft) 100,00 %
05.11.2015 03:18 5,4 C 97 % 1022,1 hPa 0,0 l/m 3,1 km/h (1 Bft) O 84 0 min 0,000 mm 0,0 UV-I 0 W/m 5,0 C 5,4 C 4,8 km/h (1 Bft) 100,00 %
05.11.2015 03:19 5,5 C 97 % 1022,1 hPa 0,0 l/m 2,6 km/h (1 Bft) O 79 0 min 0,000 mm 0,0 UV-I 0 W/m 5,1 C 5,5 C 3,2 km/h (1 Bft) 100,00 %
05.11.2015 03:20 5,5 C 97 % 1022,1 hPa 0,0 l/m 2,7 km/h (1 Bft) O 88 0 min 0,000 mm 0,0 UV-I 0 W/m 5,1 C 5,5 C 4,8 km/h (1 Bft) 100,00 %
05.11.2015 03:21 5,4 C 97 % 1022,1 hPa 0,0 l/m 3,2 km/h (1 Bft) O 95 0 min 0,000 mm 0,0 UV-I 0 W/m 5,0 C 5,4 C 4,8 km/h (1 Bft) 100,00 %
05.11.2015 03:22 5,4 C 96 % 1022,0 hPa 0,0 l/m 1,6 km/h (1 Bft) O-NO 63 0 min 0,000 mm 0,0 UV-I 0 W/m 4,8 C 5,4 C 3,2 km/h (1 Bft) 100,00 %
05.11.2015 03:23 5,4 C 96 % 1022,1 hPa 0,0 l/m 1,7 km/h (1 Bft) O-NO 67 0 min 0,000 mm 0,0 UV-I 0 W/m 4,8 C 5,4 C 3,2 km/h (1 Bft) 95,83 %
05.11.2015 03:24 5,4 C 96 % 1022,1 hPa 0,0 l/m 1,7 km/h (1 Bft) O-NO 71 0 min 0,000 mm 0,0 UV-I 0 W/m 4,8 C 5,4 C 3,2 km/h (1 Bft) 100,00 %
05.11.2015 03:25 5,4 C 96 % 1022,1 hPa 0,0 l/m 0,4 km/h (0 Bft) O-NO 69 0 min 0,000 mm 0,0 UV-I 0 W/m 4,8 C 5,4 C 1,6 km/h (1 Bft) 100,00 %
05.11.2015 03:26 5,4 C 96 % 1022,1 hPa 0,0 l/m 1,5 km/h (1 Bft) N-NO 24 0 min 0,000 mm 0,0 UV-I 0 W/m 4,8 C 5,4 C 3,2 km/h (1 Bft) 100,00 %
05.11.2015 03:27 5,3 C 96 % 1022,1 hPa 0,0 l/m 1,9 km/h (1 Bft) N-NO 24 0 min 0,000 mm 0,0 UV-I 0 W/m 4,7 C 5,3 C 3,2 km/h (1 Bft) 100,00 %
05.11.2015 03:28 5,3 C 96 % 1022,1 hPa 0,0 l/m 1,1 km/h (1 Bft) N-NO 24 0 min 0,000 mm 0,0 UV-I 0 W/m 4,7 C 5,3 C 3,2 km/h (1 Bft) 95,65 %
05.11.2015 03:29 5,3 C 96 % 1022,1 hPa 0,0 l/m 0,6 km/h (0 Bft) NO 49 0 min 0,000 mm 0,0 UV-I 0 W/m 4,7 C 5,3 C 1,6 km/h (1 Bft) 95,83 %
05.11.2015 03:30 5,3 C 96 % 1022,1 hPa 0,0 l/m 0,4 km/h (0 Bft) NO 49 0 min 0,000 mm 0,0 UV-I 0 W/m 4,7 C 5,3 C 1,6 km/h (1 Bft) 100,00 %
05.11.2015 03:31 5,2 C 96 % 1022,1 hPa 0,0 l/m 0,1 km/h (0 Bft) NO 49 0 min 0,000 mm 0,0 UV-I 0 W/m 4,6 C 5,2 C 1,6 km/h (1 Bft) 100,00 %
05.11.2015 03:32 5,2 C 96 % 1022,0 hPa 0,0 l/m 1,0 km/h (0 Bft) NO 37 0 min 0,000 mm 0,0 UV-I 0 W/m 4,6 C 5,2 C 3,2 km/h (1 Bft) 100,00 %
05.11.2015 03:33 5,2 C 96 % 1022,0 hPa 0,0 l/m 2,3 km/h (1 Bft) N-NO 30 0 min 0,000 mm 0,0 UV-I 0 W/m 4,6 C 5,2 C 3,2 km/h (1 Bft) 100,00 %
05.11.2015 03:34 5,2 C 96 % 1022,1 hPa 0,0 l/m 2,2 km/h (1 Bft) N-NO 29 0 min 0,000 mm 0,0 UV-I 0 W/m 4,6 C 5,2 C 4,8 km/h (1 Bft) 100,00 %
05.11.2015 03:35 5,2 C 96 % 1022,0 hPa 0,0 l/m 2,1 km/h (1 Bft) N-NO 28 0 min 0,000 mm 0,0 UV-I 0 W/m 4,6 C 5,2 C 3,2 km/h (1 Bft) 100,00 %
05.11.2015 03:36 5,2 C 96 % 1022,0 hPa 0,0 l/m 0,7 km/h (0 Bft) N-NO 28 0 min 0,000 mm 0,0 UV-I 0 W/m 4,6 C 5,2 C 1,6 km/h (1 Bft) 100,00 %
05.11.2015 03:37 5,2 C 97 % 1022,0 hPa 0,0 l/m 1,2 km/h (1 Bft) N-NO 26 0 min 0,000 mm 0,0 UV-I 0 W/m 4,8 C 5,2 C 3,2 km/h (1 Bft) 100,00 %
05.11.2015 03:38 5,2 C 97 % 1022,1 hPa 0,0 l/m 0,6 km/h (0 Bft) N-NO 26 0 min 0,000 mm 0,0 UV-I 0 W/m 4,8 C 5,2 C 1,6 km/h (1 Bft) 100,00 %
05.11.2015 03:39 5,2 C 97 % 1022,1 hPa 0,0 l/m 0,5 km/h (0 Bft) N-NO 26 0 min 0,000 mm 0,0 UV-I 0 W/m 4,8 C 5,2 C 1,6 km/h (1 Bft) 100,00 %
05.11.2015 03:40 5,2 C 97 % 1022,0 hPa 0,0 l/m 0,0 km/h (0 Bft) N-NO 26 0 min 0,000 mm 0,0 UV-I 0 W/m 4,8 C 5,2 C 0,0 km/h (0 Bft) 100,00 %
05.11.2015 03:41 5,2 C 97 % 1022,1 hPa 0,0 l/m 0,0 km/h (0 Bft) N-NO 26 0 min 0,000 mm 0,0 UV-I 0 W/m 4,8 C 5,2 C 0,0 km/h (0 Bft) 100,00 %
05.11.2015 03:42 5,2 C 97 % 1022,1 hPa 0,0 l/m 0,0 km/h (0 Bft) N-NO 26 0 min 0,000 mm 0,0 UV-I 0 W/m 4,8 C 5,2 C 0,0 km/h (0 Bft) 100,00 %
05.11.2015 03:43 5,2 C 97 % 1022,0 hPa 0,0 l/m 0,0 km/h (0 Bft) N-NO 26 0 min 0,000 mm 0,0 UV-I 0 W/m 4,8 C 5,2 C 0,0 km/h (0 Bft) 100,00 %
05.11.2015 03:44 5,2 C 97 % 1022,1 hPa 0,0 l/m 0,0 km/h (0 Bft) N-NO 26 0 min 0,000 mm 0,0 UV-I 0 W/m 4,8 C 5,2 C 0,0 km/h (0 Bft) 100,00 %
05.11.2015 03:45 5,2 C 97 % 1022,1 hPa 0,0 l/m 0,0 km/h (0 Bft) N-NO 26 0 min 0,000 mm 0,0 UV-I 0 W/m 4,8 C 5,2 C 0,0 km/h (0 Bft) 96,15 %
05.11.2015 03:46 5,2 C 97 % 1022,1 hPa 0,0 l/m 0,0 km/h (0 Bft) N-NO 26 0 min 0,000 mm 0,0 UV-I 0 W/m 4,8 C 5,2 C 0,0 km/h (0 Bft) 100,00 %
05.11.2015 03:47 5,2 C 97 % 1022,1 hPa 0,0 l/m 0,0 km/h (0 Bft) N-NO 26 0 min 0,000 mm 0,0 UV-I 0 W/m 4,8 C 5,2 C 0,0 km/h (0 Bft) 100,00 %
05.11.2015 03:48 5,2 C 97 % 1022,1 hPa 0,0 l/m 0,0 km/h (0 Bft) N-NO 26 0 min 0,000 mm 0,0 UV-I 0 W/m 4,8 C 5,2 C 0,0 km/h (0 Bft) 100,00 %
05.11.2015 03:49 5,2 C 97 % 1022,1 hPa 0,0 l/m 0,0 km/h (0 Bft) N-NO 26 0 min 0,000 mm 0,0 UV-I 0 W/m 4,8 C 5,2 C 0,0 km/h (0 Bft) 100,00 %
05.11.2015 03:50 5,2 C 97 % 1022,1 hPa 0,0 l/m 0,0 km/h (0 Bft) N-NO 26 0 min 0,000 mm 0,0 UV-I 0 W/m 4,8 C 5,2 C 0,0 km/h (0 Bft) 100,00 %
05.11.2015 03:51 5,2 C 97 % 1022,1 hPa 0,0 l/m 0,0 km/h (0 Bft) N-NO 26 0 min 0,000 mm 0,0 UV-I 0 W/m 4,8 C 5,2 C 0,0 km/h (0 Bft) 91,67 %
05.11.2015 03:52 5,2 C 97 % 1022,0 hPa 0,0 l/m 0,0 km/h (0 Bft) N-NO 26 0 min 0,000 mm 0,0 UV-I 0 W/m 4,8 C 5,2 C 0,0 km/h (0 Bft) 100,00 %
05.11.2015 03:53 5,2 C 97 % 1022,0 hPa 0,0 l/m 0,0 km/h (0 Bft) N-NO 26 0 min 0,000 mm 0,0 UV-I 0 W/m 4,8 C 5,2 C 0,0 km/h (0 Bft) 100,00 %
05.11.2015 03:54 5,2 C 97 % 1022,0 hPa 0,0 l/m 0,0 km/h (0 Bft) N-NO 26 0 min 0,000 mm 0,0 UV-I 0 W/m 4,8 C 5,2 C 0,0 km/h (0 Bft) 100,00 %
05.11.2015 03:55 5,2 C 97 % 1022,0 hPa 0,0 l/m 0,0 km/h (0 Bft) N-NO 26 0 min 0,000 mm 0,0 UV-I 0 W/m 4,8 C 5,2 C 0,0 km/h (0 Bft) 100,00 %
05.11.2015 03:56 5,2 C 97 % 1022,0 hPa 0,0 l/m 0,0 km/h (0 Bft) N-NO 26 0 min 0,000 mm 0,0 UV-I 0 W/m 4,8 C 5,2 C 0,0 km/h (0 Bft) 95,65 %
05.11.2015 03:57 5,2 C 97 % 1022,0 hPa 0,0 l/m 0,0 km/h (0 Bft) N-NO 26 0 min 0,000 mm 0,0 UV-I 0 W/m 4,8 C 5,2 C 0,0 km/h (0 Bft) 100,00 %
05.11.2015 03:58 5,2 C 97 % 1022,0 hPa 0,0 l/m 0,0 km/h (0 Bft) N-NO 26 0 min 0,000 mm 0,0 UV-I 0 W/m 4,8 C 5,2 C 0,0 km/h (0 Bft) 100,00 %
05.11.2015 03:59 5,2 C 97 % 1022,0 hPa 0,0 l/m 0,0 km/h (0 Bft) N-NO 26 0 min 0,000 mm 0,0 UV-I 0 W/m 4,8 C 5,2 C 0,0 km/h (0 Bft) 100,00 %
05.11.2015 04:00 5,2 C 97 % 1022,1 hPa 0,0 l/m 0,0 km/h (0 Bft) N-NO 26 0 min 0,000 mm 0,0 UV-I 0 W/m 4,8 C 5,2 C 0,0 km/h (0 Bft) 100,00 %
05.11.2015 04:01 5,2 C 97 % 1022,0 hPa 0,0 l/m 0,0 km/h (0 Bft) N-NO 26 0 min 0,000 mm 0,0 UV-I 0 W/m 4,8 C 5,2 C 0,0 km/h (0 Bft) 100,00 %
05.11.2015 04:02 5,2 C 97 % 1022,0 hPa 0,0 l/m 1,0 km/h (0 Bft) N-NO 26 0 min 0,000 mm 0,0 UV-I 0 W/m 4,8 C 5,2 C 1,6 km/h (1 Bft) 100,00 %
05.11.2015 04:03 5,2 C 97 % 1022,1 hPa 0,0 l/m 1,8 km/h (1 Bft) O-NO 61 0 min 0,000 mm 0,0 UV-I 0 W/m 4,8 C 5,2 C 3,2 km/h (1 Bft) 95,83 %
05.11.2015 04:04 5,2 C 96 % 1022,0 hPa 0,0 l/m 1,6 km/h (1 Bft) O-NO 63 0 min 0,000 mm 0,0 UV-I 0 W/m 4,6 C 5,2 C 3,2 km/h (1 Bft) 96,15 %
05.11.2015 04:05 5,1 C 96 % 1022,0 hPa 0,0 l/m 0,8 km/h (0 Bft) O-NO 63 0 min 0,000 mm 0,0 UV-I 0 W/m 4,5 C 5,1 C 1,6 km/h (1 Bft) 100,00 %
05.11.2015 04:06 5,1 C 96 % 1022,1 hPa 0,0 l/m 1,3 km/h (1 Bft) O-NO 63 0 min 0,000 mm 0,0 UV-I 0 W/m 4,5 C 5,1 C 1,6 km/h (1 Bft) 100,00 %
05.11.2015 04:07 5,0 C 96 % 1022,1 hPa 0,0 l/m 0,7 km/h (0 Bft) O-NO 63 0 min 0,000 mm 0,0 UV-I 0 W/m 4,4 C 5,0 C 1,6 km/h (1 Bft) 100,00 %
05.11.2015 04:08 4,9 C 96 % 1022,1 hPa 0,0 l/m 0,9 km/h (0 Bft) O-NO 63 0 min 0,000 mm 0,0 UV-I 0 W/m 4,3 C 4,9 C 1,6 km/h (1 Bft) 100,00 %
05.11.2015 04:09 4,9 C 96 % 1022,2 hPa 0,0 l/m 0,2 km/h (0 Bft) O-NO 63 0 min 0,000 mm 0,0 UV-I 0 W/m 4,3 C 4,9 C 1,6 km/h (1 Bft) 95,83 %
05.11.2015 04:10 4,9 C 96 % 1022,2 hPa 0,0 l/m 0,7 km/h (0 Bft) O-NO 74 0 min 0,000 mm 0,0 UV-I 0 W/m 4,3 C 4,9 C 3,2 km/h (1 Bft) 100,00 %
05.11.2015 04:11 4,9 C 96 % 1022,2 hPa 0,0 l/m 1,4 km/h (1 Bft) O-NO 74 0 min 0,000 mm 0,0 UV-I 0 W/m 4,3 C 4,9 C 3,2 km/h (1 Bft) 100,00 %
05.11.2015 04:12 4,9 C 96 % 1022,2 hPa 0,0 l/m 1,9 km/h (1 Bft) O-NO 75 0 min 0,000 mm 0,0 UV-I 0 W/m 4,3 C 4,9 C 3,2 km/h (1 Bft) 100,00 %
05.11.2015 04:13 4,8 C 96 % 1022,3 hPa 0,0 l/m 1,4 km/h (1 Bft) O-NO 76 0 min 0,000 mm 0,0 UV-I 0 W/m 4,2 C 4,8 C 3,2 km/h (1 Bft) 96,15 %
05.11.2015 04:14 4,8 C 96 % 1022,3 hPa 0,0 l/m 2,3 km/h (1 Bft) SO 127 0 min 0,000 mm 0,0 UV-I 0 W/m 4,2 C 4,8 C 3,2 km/h (1 Bft) 100,00 %
05.11.2015 04:15 4,8 C 97 % 1022,4 hPa 0,0 l/m 0,9 km/h (0 Bft) O-SO 121 0 min 0,000 mm 0,0 UV-I 0 W/m 4,4 C 4,8 C 3,2 km/h (1 Bft) 95,65 %
05.11.2015 04:16 4,9 C 97 % 1022,4 hPa 0,0 l/m 1,0 km/h (0 Bft) O-SO 121 0 min 0,000 mm 0,0 UV-I 0 W/m 4,5 C 4,9 C 3,2 km/h (1 Bft) 100,00 %
05.11.2015 04:17 4,9 C 97 % 1022,4 hPa 0,0 l/m 1,4 km/h (1 Bft) SO 125 0 min 0,000 mm 0,0 UV-I 0 W/m 4,5 C 4,9 C 3,2 km/h (1 Bft) 100,00 %
05.11.2015 04:18 4,9 C 97 % 1022,4 hPa 0,0 l/m 1,4 km/h (1 Bft) O-SO 123 0 min 0,000 mm 0,0 UV-I 0 W/m 4,5 C 4,9 C 3,2 km/h (1 Bft) 100,00 %
05.11.2015 04:19 4,9 C 97 % 1022,4 hPa 0,0 l/m 1,7 km/h (1 Bft) O-SO 123 0 min 0,000 mm 0,0 UV-I 0 W/m 4,5 C 4,9 C 3,2 km/h (1 Bft) 100,00 %
05.11.2015 04:20 4,9 C 97 % 1022,4 hPa 0,0 l/m 0,6 km/h (0 Bft) S-SO 152 0 min 0,000 mm 0,0 UV-I 0 W/m 4,5 C 4,9 C 3,2 km/h (1 Bft) 95,83 %
05.11.2015 04:21 5,0 C 97 % 1022,4 hPa 0,0 l/m 0,9 km/h (0 Bft) S-SO 152 0 min 0,000 mm 0,0 UV-I 0 W/m 4,6 C 5,0 C 1,6 km/h (1 Bft) 86,96 %
05.11.2015 04:22 5,1 C 97 % 1022,4 hPa 0,0 l/m 0,6 km/h (0 Bft) SO 135 0 min 0,000 mm 0,0 UV-I 0 W/m 4,7 C 5,1 C 1,6 km/h (1 Bft) 100,00 %
05.11.2015 04:23 5,1 C 97 % 1022,4 hPa 0,0 l/m 1,1 km/h (1 Bft) SO 135 0 min 0,000 mm 0,0 UV-I 0 W/m 4,7 C 5,1 C 1,6 km/h (1 Bft) 100,00 %
05.11.2015 04:24 5,1 C 97 % 1022,5 hPa 0,0 l/m 1,9 km/h (1 Bft) S-SO 159 0 min 0,000 mm 0,0 UV-I 0 W/m 4,7 C 5,1 C 3,2 km/h (1 Bft) 100,00 %
05.11.2015 04:25 5,2 C 97 % 1022,5 hPa 0,0 l/m 1,8 km/h (1 Bft) S-SO 165 0 min 0,000 mm 0,0 UV-I 0 W/m 4,8 C 5,2 C 3,2 km/h (1 Bft) 100,00 %
05.11.2015 04:26 5,2 C 97 % 1022,4 hPa 0,0 l/m 2,0 km/h (1 Bft) S-SO 167 0 min 0,000 mm 0,0 UV-I 0 W/m 4,8 C 5,2 C 4,8 km/h (1 Bft) 100,00 %
05.11.2015 04:27 5,2 C 97 % 1022,4 hPa 0,0 l/m 1,5 km/h (1 Bft) S-SO 167 0 min 0,000 mm 0,0 UV-I 0 W/m 4,8 C 5,2 C 4,8 km/h (1 Bft) 96,15 %
05.11.2015 04:28 5,2 C 97 % 1022,4 hPa 0,0 l/m 0,2 km/h (0 Bft) S-SO 167 0 min 0,000 mm 0,0 UV-I 0 W/m 4,8 C 5,2 C 1,6 km/h (1 Bft) 96,30 %
05.11.2015 04:29 5,2 C 97 % 1022,4 hPa 0,0 l/m 0,0 km/h (0 Bft) S-SO 167 0 min 0,000 mm 0,0 UV-I 0 W/m 4,8 C 5,2 C 0,0 km/h (0 Bft) 100,00 %
05.11.2015 04:30 5,2 C 97 % 1022,4 hPa 0,0 l/m 0,0 km/h (0 Bft) S-SO 167 0 min 0,000 mm 0,0 UV-I 0 W/m 4,8 C 5,2 C 0,0 km/h (0 Bft) 100,00 %
05.11.2015 04:31 5,2 C 97 % 1022,5 hPa 0,0 l/m 0,0 km/h (0 Bft) S-SO 167 0 min 0,000 mm 0,0 UV-I 0 W/m 4,8 C 5,2 C 0,0 km/h (0 Bft) 100,00 %
05.11.2015 04:32 5,2 C 97 % 1022,5 hPa 0,0 l/m 0,0 km/h (0 Bft) S-SO 167 0 min 0,000 mm 0,0 UV-I 0 W/m 4,8 C 5,2 C 0,0 km/h (0 Bft) 100,00 %
05.11.2015 04:33 5,2 C 97 % 1022,4 hPa 0,0 l/m 0,0 km/h (0 Bft) S-SO 167 0 min 0,000 mm 0,0 UV-I 0 W/m 4,8 C 5,2 C 0,0 km/h (0 Bft) 95,65 %
05.11.2015 04:34 5,2 C 97 % 1022,4 hPa 0,0 l/m 0,1 km/h (0 Bft) S-SO 167 0 min 0,000 mm 0,0 UV-I 0 W/m 4,8 C 5,2 C 1,6 km/h (1 Bft) 100,00 %
05.11.2015 04:35 5,2 C 97 % 1022,4 hPa 0,0 l/m 0,3 km/h (0 Bft) S-SO 167 0 min 0,000 mm 0,0 UV-I 0 W/m 4,8 C 5,2 C 1,6 km/h (1 Bft) 100,00 %
05.11.2015 04:36 5,1 C 96 % 1022,4 hPa 0,0 l/m 1,0 km/h (0 Bft) O-SO 122 0 min 0,000 mm 0,0 UV-I 0 W/m 4,5 C 5,1 C 1,6 km/h (1 Bft) 100,00 %
05.11.2015 04:37 5,1 C 96 % 1022,4 hPa 0,0 l/m 1,1 km/h (1 Bft) O-SO 115 0 min 0,000 mm 0,0 UV-I 0 W/m 4,5 C 5,1 C 1,6 km/h (1 Bft) 100,00 %
05.11.2015 04:38 5,0 C 96 % 1022,3 hPa 0,0 l/m 0,4 km/h (0 Bft) O-SO 115 0 min 0,000 mm 0,0 UV-I 0 W/m 4,4 C 5,0 C 1,6 km/h (1 Bft) 100,00 %
05.11.2015 04:39 4,9 C 96 % 1022,3 hPa 0,0 l/m 0,2 km/h (0 Bft) O-SO 115 0 min 0,000 mm 0,0 UV-I 0 W/m 4,3 C 4,9 C 1,6 km/h (1 Bft) 100,00 %
05.11.2015 04:40 4,9 C 96 % 1022,4 hPa 0,0 l/m 0,0 km/h (0 Bft) O-SO 115 0 min 0,000 mm 0,0 UV-I 0 W/m 4,3 C 4,9 C 0,0 km/h (0 Bft) 100,00 %
05.11.2015 04:41 4,9 C 97 % 1022,4 hPa 0,0 l/m 0,0 km/h (0 Bft) O-SO 115 0 min 0,000 mm 0,0 UV-I 0 W/m 4,5 C 4,9 C 0,0 km/h (0 Bft) 100,00 %
05.11.2015 04:42 4,9 C 97 % 1022,4 hPa 0,0 l/m 0,3 km/h (0 Bft) O-SO 115 0 min 0,000 mm 0,0 UV-I 0 W/m 4,5 C 4,9 C 1,6 km/h (1 Bft) 100,00 %
05.11.2015 04:43 4,9 C 97 % 1022,4 hPa 0,0 l/m 1,0 km/h (0 Bft) O-SO 115 0 min 0,000 mm 0,0 UV-I 0 W/m 4,5 C 4,9 C 1,6 km/h (1 Bft) 100,00 %
05.11.2015 04:44 4,9 C 97 % 1022,4 hPa 0,0 l/m 0,1 km/h (0 Bft) O-SO 115 0 min 0,000 mm 0,0 UV-I 0 W/m 4,5 C 4,9 C 1,6 km/h (1 Bft) 100,00 %
05.11.2015 04:45 4,9 C 97 % 1022,5 hPa 0,0 l/m 0,0 km/h (0 Bft) O-SO 115 0 min 0,000 mm 0,0 UV-I 0 W/m 4,5 C 4,9 C 0,0 km/h (0 Bft) 100,00 %
05.11.2015 04:46 4,9 C 97 % 1022,5 hPa 0,0 l/m 0,0 km/h (0 Bft) O-SO 115 0 min 0,000 mm 0,0 UV-I 0 W/m 4,5 C 4,9 C 0,0 km/h (0 Bft) 100,00 %
05.11.2015 04:47 4,9 C 97 % 1022,5 hPa 0,0 l/m 0,7 km/h (0 Bft) O-SO 115 0 min 0,000 mm 0,0 UV-I 0 W/m 4,5 C 4,9 C 1,6 km/h (1 Bft) 100,00 %
05.11.2015 04:48 4,9 C 97 % 1022,5 hPa 0,0 l/m 1,4 km/h (1 Bft) O-SO 115 0 min 0,000 mm 0,0 UV-I 0 W/m 4,5 C 4,9 C 1,6 km/h (1 Bft) 95,65 %
05.11.2015 04:49 4,9 C 97 % 1022,5 hPa 0,0 l/m 2,1 km/h (1 Bft) O-SO 115 0 min 0,000 mm 0,0 UV-I 0 W/m 4,5 C 4,9 C 3,2 km/h (1 Bft) 100,00 %
05.11.2015 04:50 4,8 C 96 % 1022,5 hPa 0,0 l/m 1,4 km/h (1 Bft) O-SO 115 0 min 0,000 mm 0,0 UV-I 0 W/m 4,2 C 4,8 C 3,2 km/h (1 Bft) 100,00 %
05.11.2015 04:51 4,8 C 97 % 1022,4 hPa 0,0 l/m 0,4 km/h (0 Bft) O-SO 115 0 min 0,000 mm 0,0 UV-I 0 W/m 4,4 C 4,8 C 1,6 km/h (1 Bft) 100,00 %
05.11.2015 04:52 4,8 C 96 % 1022,4 hPa 0,0 l/m 0,1 km/h (0 Bft) O-SO 115 0 min 0,000 mm 0,0 UV-I 0 W/m 4,2 C 4,8 C 1,6 km/h (1 Bft) 100,00 %
05.11.2015 04:53 4,8 C 97 % 1022,5 hPa 0,0 l/m 0,0 km/h (0 Bft) O-SO 115 0 min 0,000 mm 0,0 UV-I 0 W/m 4,4 C 4,8 C 0,0 km/h (0 Bft) 100,00 %
05.11.2015 04:54 4,8 C 97 % 1022,4 hPa 0,0 l/m 0,7 km/h (0 Bft) O-SO 115 0 min 0,000 mm 0,0 UV-I 0 W/m 4,4 C 4,8 C 1,6 km/h (1 Bft) 95,83 %
05.11.2015 04:55 4,8 C 97 % 1022,5 hPa 0,0 l/m 1,1 km/h (1 Bft) O-SO 115 0 min 0,000 mm 0,0 UV-I 0 W/m 4,4 C 4,8 C 1,6 km/h (1 Bft) 100,00 %
05.11.2015 04:56 4,8 C 97 % 1022,5 hPa 0,0 l/m 0,1 km/h (0 Bft) O-SO 115 0 min 0,000 mm 0,0 UV-I 0 W/m 4,4 C 4,8 C 1,6 km/h (1 Bft) 100,00 %
05.11.2015 04:57 4,8 C 97 % 1022,5 hPa 0,0 l/m 0,0 km/h (0 Bft) O-SO 115 0 min 0,000 mm 0,0 UV-I 0 W/m 4,4 C 4,8 C 0,0 km/h (0 Bft) 100,00 %
05.11.2015 04:58 4,8 C 97 % 1022,5 hPa 0,0 l/m 0,0 km/h (0 Bft) O-SO 115 0 min 0,000 mm 0,0 UV-I 0 W/m 4,4 C 4,8 C 0,0 km/h (0 Bft) 100,00 %
05.11.2015 04:59 4,7 C 97 % 1022,5 hPa 0,0 l/m 0,4 km/h (0 Bft) O-SO 115 0 min 0,000 mm 0,0 UV-I 0 W/m 4,3 C 4,7 C 1,6 km/h (1 Bft) 100,00 %
05.11.2015 05:00 4,7 C 97 % 1022,5 hPa 0,0 l/m 0,1 km/h (0 Bft) O-SO 115 0 min 0,000 mm 0,0 UV-I 0 W/m 4,3 C 4,7 C 1,6 km/h (1 Bft) 100,00 %
05.11.2015 05:01 4,7 C 97 % 1022,4 hPa 0,0 l/m 0,0 km/h (0 Bft) O-SO 115 0 min 0,000 mm 0,0 UV-I 0 W/m 4,3 C 4,7 C 0,0 km/h (0 Bft) 90,91 %
05.11.2015 05:02 4,7 C 97 % 1022,4 hPa 0,0 l/m 0,0 km/h (0 Bft) O-SO 115 0 min 0,000 mm 0,0 UV-I 0 W/m 4,3 C 4,7 C 0,0 km/h (0 Bft) 100,00 %
05.11.2015 05:03 4,7 C 97 % 1022,5 hPa 0,0 l/m 0,4 km/h (0 Bft) O-SO 115 0 min 0,000 mm 0,0 UV-I 0 W/m 4,3 C 4,7 C 1,6 km/h (1 Bft) 100,00 %
05.11.2015 05:04 4,6 C 97 % 1022,5 hPa 0,0 l/m 0,1 km/h (0 Bft) O-SO 115 0 min 0,000 mm 0,0 UV-I 0 W/m 4,2 C 4,6 C 1,6 km/h (1 Bft) 100,00 %
05.11.2015 05:05 4,6 C 97 % 1022,5 hPa 0,0 l/m 0,3 km/h (0 Bft) O-SO 115 0 min 0,000 mm 0,0 UV-I 0 W/m 4,2 C 4,6 C 1,6 km/h (1 Bft) 100,00 %
05.11.2015 05:06 4,6 C 97 % 1022,5 hPa 0,0 l/m 1,7 km/h (1 Bft) SO 134 0 min 0,000 mm 0,0 UV-I 0 W/m 4,2 C 4,6 C 3,2 km/h (1 Bft) 100,00 %
05.11.2015 05:07 4,6 C 97 % 1022,5 hPa 0,0 l/m 1,5 km/h (1 Bft) S-SO 148 0 min 0,000 mm 0,0 UV-I 0 W/m 4,2 C 4,6 C 3,2 km/h (1 Bft) 100,00 %
05.11.2015 05:08 4,5 C 97 % 1022,6 hPa 0,0 l/m 1,8 km/h (1 Bft) S 171 0 min 0,000 mm 0,0 UV-I 0 W/m 4,1 C 4,5 C 3,2 km/h (1 Bft) 92,31 %
05.11.2015 05:09 4,5 C 97 % 1022,6 hPa 0,0 l/m 1,3 km/h (1 Bft) S 175 0 min 0,000 mm 0,0 UV-I 0 W/m 4,1 C 4,5 C 3,2 km/h (1 Bft) 100,00 %
05.11.2015 05:10 4,6 C 97 % 1022,5 hPa 0,0 l/m 0,5 km/h (0 Bft) S 175 0 min 0,000 mm 0,0 UV-I 0 W/m 4,2 C 4,6 C 1,6 km/h (1 Bft) 100,00 %
05.11.2015 05:11 4,6 C 97 % 1022,6 hPa 0,0 l/m 0,8 km/h (0 Bft) S 175 0 min 0,000 mm 0,0 UV-I 0 W/m 4,2 C 4,6 C 1,6 km/h (1 Bft) 100,00 %
05.11.2015 05:12 4,5 C 97 % 1022,6 hPa 0,0 l/m 0,5 km/h (0 Bft) S 175 0 min 0,000 mm 0,0 UV-I 0 W/m 4,1 C 4,5 C 1,6 km/h (1 Bft) 94,74 %
05.11.2015 05:13 4,6 C 97 % 1022,6 hPa 0,0 l/m 2,0 km/h (1 Bft) S 175 0 min 0,000 mm 0,0 UV-I 0 W/m 4,2 C 4,6 C 3,2 km/h (1 Bft) 100,00 %
05.11.2015 05:14 4,5 C 97 % 1022,6 hPa 0,0 l/m 1,3 km/h (1 Bft) S 175 0 min 0,000 mm 0,0 UV-I 0 W/m 4,1 C 4,5 C 3,2 km/h (1 Bft) 95,65 %
05.11.2015 05:15 4,6 C 97 % 1022,7 hPa 0,0 l/m 1,7 km/h (1 Bft) S 175 0 min 0,000 mm 0,0 UV-I 0 W/m 4,2 C 4,6 C 3,2 km/h (1 Bft) 96,30 %
05.11.2015 05:16 4,6 C 97 % 1022,7 hPa 0,0 l/m 2,4 km/h (1 Bft) O-SO 123 0 min 0,000 mm 0,0 UV-I 0 W/m 4,2 C 4,6 C 3,2 km/h (1 Bft) 100,00 %
05.11.2015 05:17 4,5 C 97 % 1022,8 hPa 0,0 l/m 2,8 km/h (1 Bft) O-SO 116 0 min 0,000 mm 0,0 UV-I 0 W/m 4,1 C 4,5 C 4,8 km/h (1 Bft) 95,83 %
05.11.2015 05:18 4,5 C 97 % 1022,8 hPa 0,0 l/m 2,9 km/h (1 Bft) S-SO 160 0 min 0,000 mm 0,0 UV-I 0 W/m 4,1 C 4,5 C 6,4 km/h (2 Bft) 100,00 %
05.11.2015 05:19 4,5 C 97 % 1022,8 hPa 0,0 l/m 1,3 km/h (1 Bft) S-SO 157 0 min 0,000 mm 0,0 UV-I 0 W/m 4,1 C 4,5 C 3,2 km/h (1 Bft) 100,00 %
05.11.2015 05:20 4,6 C 97 % 1022,8 hPa 0,0 l/m 1,0 km/h (0 Bft) SO 134 0 min 0,000 mm 0,0 UV-I 0 W/m 4,2 C 4,6 C 1,6 km/h (1 Bft) 100,00 %
05.11.2015 05:21 4,6 C 97 % 1022,8 hPa 0,0 l/m 2,5 km/h (1 Bft) S 180 0 min 0,000 mm 0,0 UV-I 0 W/m 4,2 C 4,6 C 6,4 km/h (2 Bft) 100,00 %
05.11.2015 05:22 4,7 C 97 % 1022,8 hPa 0,0 l/m 4,4 km/h (1 Bft) S-SO 155 0 min 0,000 mm 0,0 UV-I 0 W/m 4,3 C 4,7 C 6,4 km/h (2 Bft) 100,00 %
05.11.2015 05:23 4,9 C 98 % 1022,8 hPa 0,0 l/m 3,3 km/h (1 Bft) S-SO 168 0 min 0,000 mm 0,0 UV-I 0 W/m 4,6 C 4,9 C 4,8 km/h (1 Bft) 100,00 %
05.11.2015 05:24 5,1 C 98 % 1022,8 hPa 0,0 l/m 1,7 km/h (1 Bft) S-SO 168 0 min 0,000 mm 0,0 UV-I 0 W/m 4,8 C 5,1 C 3,2 km/h (1 Bft) 96,15 %
05.11.2015 05:25 5,2 C 98 % 1022,7 hPa 0,0 l/m 0,9 km/h (0 Bft) S-SO 168 0 min 0,000 mm 0,0 UV-I 0 W/m 4,9 C 5,2 C 1,6 km/h (1 Bft) 100,00 %
05.11.2015 05:26 5,3 C 98 % 1022,7 hPa 0,0 l/m 1,2 km/h (1 Bft) S-SO 168 0 min 0,000 mm 0,0 UV-I 0 W/m 5,0 C 5,3 C 1,6 km/h (1 Bft) 100,00 %
05.11.2015 05:27 5,3 C 98 % 1022,7 hPa 0,0 l/m 1,1 km/h (1 Bft) S-SO 168 0 min 0,000 mm 0,0 UV-I 0 W/m 5,0 C 5,3 C 3,2 km/h (1 Bft) 100,00 %
05.11.2015 05:28 5,4 C 98 % 1022,7 hPa 0,0 l/m 2,4 km/h (1 Bft) S-SO 168 0 min 0,000 mm 0,0 UV-I 0 W/m 5,1 C 5,4 C 3,2 km/h (1 Bft) 100,00 %
05.11.2015 05:29 5,4 C 98 % 1022,7 hPa 0,0 l/m 1,5 km/h (1 Bft) S-SO 168 0 min 0,000 mm 0,0 UV-I 0 W/m 5,1 C 5,4 C 3,2 km/h (1 Bft) 100,00 %
05.11.2015 05:30 5,5 C 98 % 1022,8 hPa 0,0 l/m 1,4 km/h (1 Bft) S 169 0 min 0,000 mm 0,0 UV-I 0 W/m 5,2 C 5,5 C 1,6 km/h (1 Bft) 100,00 %
05.11.2015 05:31 5,6 C 98 % 1022,8 hPa 0,0 l/m 0,1 km/h (0 Bft) S-SO 168 0 min 0,000 mm 0,0 UV-I 0 W/m 5,3 C 5,6 C 1,6 km/h (1 Bft) 100,00 %
05.11.2015 05:32 5,6 C 98 % 1022,8 hPa 0,0 l/m 1,5 km/h (1 Bft) S 169 0 min 0,000 mm 0,0 UV-I 0 W/m 5,3 C 5,6 C 3,2 km/h (1 Bft) 100,00 %
05.11.2015 05:33 5,6 C 98 % 1022,8 hPa 0,0 l/m 0,8 km/h (0 Bft) S-SO 168 0 min 0,000 mm 0,0 UV-I 0 W/m 5,3 C 5,6 C 1,6 km/h (1 Bft) 100,00 %
05.11.2015 05:34 5,5 C 98 % 1022,8 hPa 0,0 l/m 0,5 km/h (0 Bft) S 169 0 min 0,000 mm 0,0 UV-I 0 W/m 5,2 C 5,5 C 1,6 km/h (1 Bft) 100,00 %
05.11.2015 05:35 5,5 C 97 % 1022,9 hPa 0,0 l/m 1,0 km/h (0 Bft) S-SO 168 0 min 0,000 mm 0,0 UV-I 0 W/m 5,1 C 5,5 C 1,6 km/h (1 Bft) 100,00 %
05.11.2015 05:36 5,5 C 97 % 1022,9 hPa 0,0 l/m 1,5 km/h (1 Bft) S-SO 168 0 min 0,000 mm 0,0 UV-I 0 W/m 5,1 C 5,5 C 3,2 km/h (1 Bft) 91,67 %
05.11.2015 05:37 5,5 C 97 % 1022,8 hPa 0,0 l/m 0,2 km/h (0 Bft) S-SO 168 0 min 0,000 mm 0,0 UV-I 0 W/m 5,1 C 5,5 C 1,6 km/h (1 Bft) 100,00 %
05.11.2015 05:38 5,5 C 97 % 1022,8 hPa 0,0 l/m 0,0 km/h (0 Bft) S 169 0 min 0,000 mm 0,0 UV-I 0 W/m 5,1 C 5,5 C 0,0 km/h (0 Bft) 100,00 %
05.11.2015 05:39 5,4 C 97 % 1022,8 hPa 0,0 l/m 0,0 km/h (0 Bft) S-SO 168 0 min 0,000 mm 0,0 UV-I 0 W/m 5,0 C 5,4 C 0,0 km/h (0 Bft) 96,15 %
05.11.2015 05:40 5,3 C 97 % 1022,8 hPa 0,0 l/m 0,1 km/h (0 Bft) S-SO 168 0 min 0,000 mm 0,0 UV-I 0 W/m 4,9 C 5,3 C 1,6 km/h (1 Bft) 100,00 %
05.11.2015 05:41 5,3 C 96 % 1022,8 hPa 0,0 l/m 0,3 km/h (0 Bft) S-SO 168 0 min 0,000 mm 0,0 UV-I 0 W/m 4,7 C 5,3 C 1,6 km/h (1 Bft) 95,65 %
05.11.2015 05:42 5,3 C 96 % 1022,8 hPa 0,0 l/m 0,6 km/h (0 Bft) S-SO 168 0 min 0,000 mm 0,0 UV-I 0 W/m 4,7 C 5,3 C 1,6 km/h (1 Bft) 100,00 %
05.11.2015 05:43 5,3 C 97 % 1022,7 hPa 0,0 l/m 0,2 km/h (0 Bft) S 169 0 min 0,000 mm 0,0 UV-I 0 W/m 4,9 C 5,3 C 1,6 km/h (1 Bft) 100,00 %
05.11.2015 05:44 5,3 C 97 % 1022,8 hPa 0,0 l/m 0,0 km/h (0 Bft) S 169 0 min 0,000 mm 0,0 UV-I 0 W/m 4,9 C 5,3 C 0,0 km/h (0 Bft) 91,67 %
05.11.2015 05:45 5,3 C 97 % 1022,7 hPa 0,0 l/m 0,1 km/h (0 Bft) S 169 0 min 0,000 mm 0,0 UV-I 0 W/m 4,9 C 5,3 C 1,6 km/h (1 Bft) 100,00 %
05.11.2015 05:46 5,3 C 97 % 1022,7 hPa 0,0 l/m 0,0 km/h (0 Bft) S-SO 168 0 min 0,000 mm 0,0 UV-I 0 W/m 4,9 C 5,3 C 0,0 km/h (0 Bft) 100,00 %
05.11.2015 05:47 5,3 C 97 % 1022,7 hPa 0,0 l/m 0,0 km/h (0 Bft) S-SO 168 0 min 0,000 mm 0,0 UV-I 0 W/m 4,9 C 5,3 C 0,0 km/h (0 Bft) 95,65 %
05.11.2015 05:48 5,3 C 97 % 1022,7 hPa 0,0 l/m 0,1 km/h (0 Bft) S-SO 168 0 min 0,000 mm 0,0 UV-I 0 W/m 4,9 C 5,3 C 1,6 km/h (1 Bft) 100,00 %
05.11.2015 05:49 5,2 C 96 % 1022,7 hPa 0,0 l/m 0,1 km/h (0 Bft) S-SO 168 0 min 0,000 mm 0,0 UV-I 0 W/m 4,6 C 5,2 C 1,6 km/h (1 Bft) 96,15 %
05.11.2015 05:50 5,1 C 96 % 1022,8 hPa 0,0 l/m 1,3 km/h (1 Bft) S 169 0 min 0,000 mm 0,0 UV-I 0 W/m 4,5 C 5,1 C 3,2 km/h (1 Bft) 100,00 %
05.11.2015 05:51 5,0 C 96 % 1022,8 hPa 0,0 l/m 2,1 km/h (1 Bft) S 169 0 min 0,000 mm 0,0 UV-I 0 W/m 4,4 C 5,0 C 3,2 km/h (1 Bft) 100,00 %
05.11.2015 05:52 4,9 C 96 % 1022,8 hPa 0,0 l/m 1,4 km/h (1 Bft) S 169 0 min 0,000 mm 0,0 UV-I 0 W/m 4,3 C 4,9 C 1,6 km/h (1 Bft) 100,00 %
05.11.2015 05:53 4,8 C 96 % 1022,8 hPa 0,0 l/m 1,7 km/h (1 Bft) S 169 0 min 0,000 mm 0,0 UV-I 0 W/m 4,2 C 4,8 C 3,2 km/h (1 Bft) 95,83 %
05.11.2015 05:54 4,7 C 96 % 1022,8 hPa 0,0 l/m 0,4 km/h (0 Bft) S 169 0 min 0,000 mm 0,0 UV-I 0 W/m 4,1 C 4,7 C 1,6 km/h (1 Bft) 100,00 %
05.11.2015 05:55 4,7 C 96 % 1022,7 hPa 0,0 l/m 1,4 km/h (1 Bft) W 270 0 min 0,000 mm 0,0 UV-I 0 W/m 4,1 C 4,7 C 3,2 km/h (1 Bft) 100,00 %
05.11.2015 05:56 4,7 C 97 % 1022,7 hPa 0,0 l/m 2,0 km/h (1 Bft) W 280 0 min 0,000 mm 0,0 UV-I 0 W/m 4,3 C 4,7 C 3,2 km/h (1 Bft) 95,65 %
05.11.2015 05:57 4,7 C 97 % 1022,7 hPa 0,0 l/m 1,9 km/h (1 Bft) W 280 0 min 0,000 mm 0,0 UV-I 0 W/m 4,3 C 4,7 C 3,2 km/h (1 Bft) 100,00 %
05.11.2015 05:58 4,7 C 97 % 1022,6 hPa 0,0 l/m 1,4 km/h (1 Bft) W 279 0 min 0,000 mm 0,0 UV-I 0 W/m 4,3 C 4,7 C 3,2 km/h (1 Bft) 100,00 %
05.11.2015 05:59 4,7 C 97 % 1022,6 hPa 0,0 l/m 1,3 km/h (1 Bft) W 275 0 min 0,000 mm 0,0 UV-I 0 W/m 4,3 C 4,7 C 3,2 km/h (1 Bft) 100,00 %
05.11.2015 06:00 4,7 C 97 % 1022,6 hPa 0,0 l/m 1,1 km/h (1 Bft) W 275 0 min 0,000 mm 0,0 UV-I 0 W/m 4,3 C 4,7 C 1,6 km/h (1 Bft) 100,00 %
05.11.2015 06:01 4,7 C 97 % 1022,7 hPa 0,0 l/m 0,4 km/h (0 Bft) W 275 0 min 0,000 mm 0,0 UV-I 0 W/m 4,3 C 4,7 C 1,6 km/h (1 Bft) 100,00 %
05.11.2015 06:02 4,7 C 97 % 1022,7 hPa 0,0 l/m 0,6 km/h (0 Bft) W 275 0 min 0,000 mm 0,0 UV-I 0 W/m 4,3 C 4,7 C 1,6 km/h (1 Bft) 100,00 %
05.11.2015 06:03 4,7 C 97 % 1022,7 hPa 0,0 l/m 0,8 km/h (0 Bft) W 275 0 min 0,000 mm 0,0 UV-I 0 W/m 4,3 C 4,7 C 1,6 km/h (1 Bft) 100,00 %
05.11.2015 06:04 4,7 C 97 % 1022,7 hPa 0,0 l/m 0,0 km/h (0 Bft) W 275 0 min 0,000 mm 0,0 UV-I 0 W/m 4,3 C 4,7 C 0,0 km/h (0 Bft) 100,00 %
05.11.2015 06:05 4,7 C 97 % 1022,8 hPa 0,0 l/m 0,1 km/h (0 Bft) W 275 0 min 0,000 mm 0,0 UV-I 0 W/m 4,3 C 4,7 C 1,6 km/h (1 Bft) 100,00 %
05.11.2015 06:06 4,7 C 97 % 1022,7 hPa 0,0 l/m 1,1 km/h (1 Bft) S 173 0 min 0,000 mm 0,0 UV-I 0 W/m 4,3 C 4,7 C 1,6 km/h (1 Bft) 100,00 %
05.11.2015 06:07 4,7 C 97 % 1022,8 hPa 0,0 l/m 1,2 km/h (1 Bft) S 173 0 min 0,000 mm 0,0 UV-I 0 W/m 4,3 C 4,7 C 1,6 km/h (1 Bft) 100,00 %
05.11.2015 06:08 4,6 C 97 % 1022,8 hPa 0,0 l/m 0,3 km/h (0 Bft) S 173 0 min 0,000 mm 0,0 UV-I 0 W/m 4,2 C 4,6 C 1,6 km/h (1 Bft) 100,00 %
05.11.2015 06:09 4,6 C 97 % 1022,8 hPa 0,0 l/m 0,0 km/h (0 Bft) S 173 0 min 0,000 mm 0,0 UV-I 0 W/m 4,2 C 4,6 C 0,0 km/h (0 Bft) 100,00 %
05.11.2015 06:10 4,6 C 97 % 1022,8 hPa 0,0 l/m 0,0 km/h (0 Bft) S 173 0 min 0,000 mm 0,0 UV-I 0 W/m 4,2 C 4,6 C 0,0 km/h (0 Bft) 100,00 %
05.11.2015 06:11 4,6 C 97 % 1022,8 hPa 0,0 l/m 0,0 km/h (0 Bft) S 173 0 min 0,000 mm 0,0 UV-I 0 W/m 4,2 C 4,6 C 0,0 km/h (0 Bft) 100,00 %
05.11.2015 06:12 4,6 C 97 % 1022,8 hPa 0,0 l/m 0,0 km/h (0 Bft) S 173 0 min 0,000 mm 0,0 UV-I 0 W/m 4,2 C 4,6 C 0,0 km/h (0 Bft) 100,00 %
05.11.2015 06:13 4,6 C 97 % 1022,8 hPa 0,0 l/m 0,0 km/h (0 Bft) S 173 0 min 0,000 mm 0,0 UV-I 0 W/m 4,2 C 4,6 C 0,0 km/h (0 Bft) 100,00 %
05.11.2015 06:14 4,6 C 97 % 1022,8 hPa 0,0 l/m 0,0 km/h (0 Bft) S 173 0 min 0,000 mm 0,0 UV-I 0 W/m 4,2 C 4,6 C 0,0 km/h (0 Bft) 100,00 %
05.11.2015 06:15 4,6 C 97 % 1022,8 hPa 0,0 l/m 0,0 km/h (0 Bft) S 173 0 min 0,000 mm 0,0 UV-I 0 W/m 4,2 C 4,6 C 0,0 km/h (0 Bft) 100,00 %
05.11.2015 06:16 4,6 C 97 % 1022,9 hPa 0,0 l/m 0,0 km/h (0 Bft) S 173 0 min 0,000 mm 0,0 UV-I 0 W/m 4,2 C 4,6 C 0,0 km/h (0 Bft) 100,00 %
05.11.2015 06:17 4,6 C 97 % 1022,8 hPa 0,0 l/m 0,2 km/h (0 Bft) S 173 0 min 0,000 mm 0,0 UV-I 0 W/m 4,2 C 4,6 C 1,6 km/h (1 Bft) 100,00 %
05.11.2015 06:18 4,7 C 97 % 1022,9 hPa 0,0 l/m 0,4 km/h (0 Bft) S 173 0 min 0,000 mm 0,0 UV-I 0 W/m 4,3 C 4,7 C 1,6 km/h (1 Bft) 95,83 %
05.11.2015 06:19 4,7 C 97 % 1022,9 hPa 0,0 l/m 0,4 km/h (0 Bft) S 173 0 min 0,000 mm 0,0 UV-I 0 W/m 4,3 C 4,7 C 1,6 km/h (1 Bft) 100,00 %
05.11.2015 06:20 4,7 C 97 % 1022,9 hPa 0,0 l/m 0,0 km/h (0 Bft) S 173 0 min 0,000 mm 0,0 UV-I 0 W/m 4,3 C 4,7 C 0,0 km/h (0 Bft) 100,00 %
05.11.2015 06:21 4,7 C 97 % 1022,9 hPa 0,0 l/m 0,0 km/h (0 Bft) S 173 0 min 0,000 mm 0,0 UV-I 0 W/m 4,3 C 4,7 C 0,0 km/h (0 Bft) 100,00 %
05.11.2015 06:22 4,6 C 97 % 1022,9 hPa 0,0 l/m 0,0 km/h (0 Bft) S 173 0 min 0,000 mm 0,0 UV-I 0 W/m 4,2 C 4,6 C 0,0 km/h (0 Bft) 100,00 %
05.11.2015 06:23 4,6 C 97 % 1022,9 hPa 0,0 l/m 0,0 km/h (0 Bft) S 173 0 min 0,000 mm 0,0 UV-I 0 W/m 4,2 C 4,6 C 0,0 km/h (0 Bft) 100,00 %
05.11.2015 06:24 4,7 C 97 % 1022,9 hPa 0,0 l/m 0,0 km/h (0 Bft) S 173 0 min 0,000 mm 0,0 UV-I 0 W/m 4,3 C 4,7 C 0,0 km/h (0 Bft) 100,00 %
05.11.2015 06:25 4,7 C 97 % 1022,9 hPa 0,0 l/m 0,0 km/h (0 Bft) S 173 0 min 0,000 mm 0,0 UV-I 0 W/m 4,3 C 4,7 C 0,0 km/h (0 Bft) 95,65 %
05.11.2015 06:26 4,7 C 97 % 1022,9 hPa 0,0 l/m 0,0 km/h (0 Bft) S 173 0 min 0,000 mm 0,0 UV-I 0 W/m 4,3 C 4,7 C 0,0 km/h (0 Bft) 92,59 %
05.11.2015 06:27 4,7 C 97 % 1022,9 hPa 0,0 l/m 0,1 km/h (0 Bft) S 173 0 min 0,000 mm 0,0 UV-I 0 W/m 4,3 C 4,7 C 1,6 km/h (1 Bft) 100,00 %
05.11.2015 06:28 4,7 C 97 % 1022,9 hPa 0,0 l/m 0,8 km/h (0 Bft) S 173 0 min 0,000 mm 0,0 UV-I 0 W/m 4,3 C 4,7 C 1,6 km/h (1 Bft) 100,00 %
05.11.2015 06:29 4,8 C 97 % 1022,9 hPa 0,0 l/m 1,3 km/h (1 Bft) S 175 0 min 0,000 mm 0,0 UV-I 0 W/m 4,4 C 4,8 C 1,6 km/h (1 Bft) 100,00 %
05.11.2015 06:30 4,8 C 98 % 1022,9 hPa 0,0 l/m 1,0 km/h (0 Bft) S 175 0 min 0,000 mm 0,0 UV-I 0 W/m 4,5 C 4,8 C 1,6 km/h (1 Bft) 97,14 %
05.11.2015 06:31 4,8 C 98 % 1022,9 hPa 0,0 l/m 1,0 km/h (0 Bft) S 175 0 min 0,000 mm 0,0 UV-I 0 W/m 4,5 C 4,8 C 1,6 km/h (1 Bft) 100,00 %
05.11.2015 06:32 4,8 C 97 % 1022,9 hPa 0,0 l/m 1,5 km/h (1 Bft) S 186 0 min 0,000 mm 0,0 UV-I 0 W/m 4,4 C 4,8 C 1,6 km/h (1 Bft) 100,00 %
05.11.2015 06:33 4,8 C 97 % 1022,9 hPa 0,0 l/m 1,0 km/h (0 Bft) S 186 0 min 0,000 mm 0,0 UV-I 0 W/m 4,4 C 4,8 C 1,6 km/h (1 Bft) 96,30 %
05.11.2015 06:34 4,8 C 97 % 1022,9 hPa 0,0 l/m 0,9 km/h (0 Bft) S 186 0 min 0,000 mm 0,0 UV-I 0 W/m 4,4 C 4,8 C 1,6 km/h (1 Bft) 95,65 %
05.11.2015 06:35 4,8 C 97 % 1022,9 hPa 0,0 l/m 0,2 km/h (0 Bft) S 186 0 min 0,000 mm 0,0 UV-I 0 W/m 4,4 C 4,8 C 1,6 km/h (1 Bft) 100,00 %
05.11.2015 06:36 4,8 C 98 % 1022,9 hPa 0,0 l/m 0,0 km/h (0 Bft) S 186 0 min 0,000 mm 0,0 UV-I 0 W/m 4,5 C 4,8 C 0,0 km/h (0 Bft) 100,00 %
05.11.2015 06:37 4,8 C 97 % 1022,9 hPa 0,0 l/m 0,0 km/h (0 Bft) S 186 0 min 0,000 mm 0,0 UV-I 0 W/m 4,4 C 4,8 C 0,0 km/h (0 Bft) 100,00 %
05.11.2015 06:38 4,8 C 97 % 1023,0 hPa 0,0 l/m 0,0 km/h (0 Bft) S 186 0 min 0,000 mm 0,0 UV-I 0 W/m 4,4 C 4,8 C 0,0 km/h (0 Bft) 100,00 %
05.11.2015 06:39 4,8 C 97 % 1023,0 hPa 0,0 l/m 0,0 km/h (0 Bft) S 186 0 min 0,000 mm 0,0 UV-I 0 W/m 4,4 C 4,8 C 0,0 km/h (0 Bft) 100,00 %
05.11.2015 06:40 4,8 C 97 % 1023,0 hPa 0,0 l/m 0,2 km/h (0 Bft) S 186 0 min 0,000 mm 0,0 UV-I 0 W/m 4,4 C 4,8 C 1,6 km/h (1 Bft) 100,00 %
05.11.2015 06:41 4,8 C 97 % 1023,0 hPa 0,0 l/m 0,0 km/h (0 Bft) S 186 0 min 0,000 mm 0,0 UV-I 0 W/m 4,4 C 4,8 C 0,0 km/h (0 Bft) 100,00 %
05.11.2015 06:42 4,9 C 97 % 1022,9 hPa 0,0 l/m 0,0 km/h (0 Bft) S 186 0 min 0,000 mm 0,0 UV-I 0 W/m 4,5 C 4,9 C 0,0 km/h (0 Bft) 95,65 %
05.11.2015 06:43 4,9 C 97 % 1023,0 hPa 0,0 l/m 0,3 km/h (0 Bft) S 186 0 min 0,000 mm 0,0 UV-I 0 W/m 4,5 C 4,9 C 1,6 km/h (1 Bft) 100,00 %
05.11.2015 06:44 4,9 C 98 % 1023,0 hPa 0,0 l/m 0,2 km/h (0 Bft) S 186 0 min 0,000 mm 0,0 UV-I 0 W/m 4,6 C 4,9 C 1,6 km/h (1 Bft) 100,00 %
05.11.2015 06:45 4,9 C 98 % 1023,0 hPa 0,0 l/m 0,0 km/h (0 Bft) S 186 0 min 0,000 mm 0,0 UV-I 0 W/m 4,6 C 4,9 C 0,0 km/h (0 Bft) 100,00 %
05.11.2015 06:46 4,9 C 98 % 1023,0 hPa 0,0 l/m 0,2 km/h (0 Bft) S 186 0 min 0,000 mm 0,0 UV-I 0 W/m 4,6 C 4,9 C 1,6 km/h (1 Bft) 95,65 %
05.11.2015 06:47 4,9 C 98 % 1023,0 hPa 0,0 l/m 1,0 km/h (0 Bft) S 186 0 min 0,000 mm 0,0 UV-I 0 W/m 4,6 C 4,9 C 1,6 km/h (1 Bft) 100,00 %
05.11.2015 06:48 4,9 C 97 % 1023,1 hPa 0,0 l/m 1,4 km/h (1 Bft) S 186 0 min 0,000 mm 0,0 UV-I 0 W/m 4,5 C 4,9 C 3,2 km/h (1 Bft) 100,00 %
05.11.2015 06:49 4,8 C 97 % 1023,1 hPa 0,0 l/m 1,6 km/h (1 Bft) S 174 0 min 0,000 mm 0,0 UV-I 0 W/m 4,4 C 4,8 C 3,2 km/h (1 Bft) 100,00 %
05.11.2015 06:50 4,8 C 97 % 1023,1 hPa 0,0 l/m 2,4 km/h (1 Bft) S-SO 159 0 min 0,000 mm 0,0 UV-I 0 W/m 4,4 C 4,8 C 3,2 km/h (1 Bft) 100,00 %
05.11.2015 06:51 4,7 C 97 % 1023,1 hPa 0,0 l/m 2,5 km/h (1 Bft) S-SO 157 0 min 0,000 mm 0,0 UV-I 0 W/m 4,3 C 4,7 C 3,2 km/h (1 Bft) 100,00 %
05.11.2015 06:52 4,7 C 97 % 1023,1 hPa 0,0 l/m 1,7 km/h (1 Bft) S-SO 157 0 min 0,000 mm 0,0 UV-I 0 W/m 4,3 C 4,7 C 3,2 km/h (1 Bft) 100,00 %
05.11.2015 06:53 4,8 C 97 % 1023,1 hPa 0,0 l/m 1,2 km/h (1 Bft) S-SO 157 0 min 0,000 mm 0,0 UV-I 0 W/m 4,4 C 4,8 C 3,2 km/h (1 Bft) 96,15 %
05.11.2015 06:54 4,8 C 97 % 1023,1 hPa 0,0 l/m 1,0 km/h (0 Bft) S-SO 157 0 min 0,000 mm 0,0 UV-I 0 W/m 4,4 C 4,8 C 1,6 km/h (1 Bft) 100,00 %
05.11.2015 06:55 4,8 C 97 % 1023,2 hPa 0,0 l/m 0,2 km/h (0 Bft) S-SO 157 0 min 0,000 mm 0,0 UV-I 0 W/m 4,4 C 4,8 C 1,6 km/h (1 Bft) 96,15 %
05.11.2015 06:56 4,9 C 97 % 1023,2 hPa 0,0 l/m 0,0 km/h (0 Bft) S-SO 157 0 min 0,000 mm 0,0 UV-I 0 W/m 4,5 C 4,9 C 0,0 km/h (0 Bft) 100,00 %
05.11.2015 06:57 4,9 C 98 % 1023,2 hPa 0,0 l/m 0,0 km/h (0 Bft) S-SO 157 0 min 0,000 mm 0,0 UV-I 0 W/m 4,6 C 4,9 C 0,0 km/h (0 Bft) 96,15 %
05.11.2015 06:58 5,0 C 98 % 1023,2 hPa 0,0 l/m 0,0 km/h (0 Bft) S-SO 157 0 min 0,000 mm 0,0 UV-I 0 W/m 4,7 C 5,0 C 0,0 km/h (0 Bft) 100,00 %
05.11.2015 06:59 4,9 C 98 % 1023,2 hPa 0,0 l/m 0,0 km/h (0 Bft) S-SO 157 0 min 0,000 mm 0,0 UV-I 0 W/m 4,6 C 4,9 C 0,0 km/h (0 Bft) 95,65 %
05.11.2015 07:00 5,0 C 98 % 1023,2 hPa 0,0 l/m 0,9 km/h (0 Bft) S-SO 157 0 min 0,000 mm 0,0 UV-I 3 W/m 4,7 C 5,0 C 1,6 km/h (1 Bft) 100,00 %
05.11.2015 07:01 5,0 C 98 % 1023,1 hPa 0,0 l/m 1,1 km/h (1 Bft) S-SO 157 0 min 0,000 mm 0,0 UV-I 5 W/m 4,7 C 5,0 C 1,6 km/h (1 Bft) 95,65 %
05.11.2015 07:02 5,1 C 98 % 1023,2 hPa 0,0 l/m 1,1 km/h (1 Bft) S-SO 157 0 min 0,000 mm 0,0 UV-I 5 W/m 4,8 C 5,1 C 3,2 km/h (1 Bft) 100,00 %
05.11.2015 07:03 5,1 C 98 % 1023,2 hPa 0,0 l/m 0,6 km/h (0 Bft) S-SO 157 0 min 0,000 mm 0,0 UV-I 5 W/m 4,8 C 5,1 C 1,6 km/h (1 Bft) 100,00 %
05.11.2015 07:04 5,1 C 98 % 1023,2 hPa 0,0 l/m 1,7 km/h (1 Bft) S-SO 157 0 min 0,000 mm 0,0 UV-I 5 W/m 4,8 C 5,1 C 3,2 km/h (1 Bft) 100,00 %
05.11.2015 07:05 5,1 C 98 % 1023,2 hPa 0,0 l/m 1,7 km/h (1 Bft) S-SO 157 0 min 0,000 mm 0,0 UV-I 5 W/m 4,8 C 5,1 C 3,2 km/h (1 Bft) 91,67 %
05.11.2015 07:06 5,1 C 98 % 1023,3 hPa 0,0 l/m 1,2 km/h (1 Bft) S-SO 157 0 min 0,000 mm 0,0 UV-I 5 W/m 4,8 C 5,1 C 1,6 km/h (1 Bft) 100,00 %
05.11.2015 07:07 5,0 C 98 % 1023,3 hPa 0,0 l/m 0,6 km/h (0 Bft) S-SO 157 0 min 0,000 mm 0,0 UV-I 5 W/m 4,7 C 5,0 C 1,6 km/h (1 Bft) 100,00 %
05.11.2015 07:08 5,0 C 97 % 1023,2 hPa 0,0 l/m 0,0 km/h (0 Bft) S-SO 157 0 min 0,000 mm 0,0 UV-I 5 W/m 4,6 C 5,0 C 0,0 km/h (0 Bft) 100,00 %
05.11.2015 07:09 5,0 C 98 % 1023,3 hPa 0,0 l/m 0,0 km/h (0 Bft) S-SO 157 0 min 0,000 mm 0,0 UV-I 5 W/m 4,7 C 5,0 C 0,0 km/h (0 Bft) 100,00 %
05.11.2015 07:10 5,0 C 98 % 1023,3 hPa 0,0 l/m 0,3 km/h (0 Bft) S-SO 157 0 min 0,000 mm 0,0 UV-I 5 W/m 4,7 C 5,0 C 1,6 km/h (1 Bft) 100,00 %
05.11.2015 07:11 5,0 C 98 % 1023,3 hPa 0,0 l/m 0,0 km/h (0 Bft) S-SO 157 0 min 0,000 mm 0,0 UV-I 5 W/m 4,7 C 5,0 C 0,0 km/h (0 Bft) 100,00 %
05.11.2015 07:12 5,0 C 98 % 1023,3 hPa 0,0 l/m 0,0 km/h (0 Bft) S-SO 157 0 min 0,000 mm 0,0 UV-I 5 W/m 4,7 C 5,0 C 0,0 km/h (0 Bft) 100,00 %
05.11.2015 07:13 5,0 C 98 % 1023,3 hPa 0,0 l/m 0,0 km/h (0 Bft) S-SO 157 0 min 0,000 mm 0,0 UV-I 5 W/m 4,7 C 5,0 C 0,0 km/h (0 Bft) 100,00 %
05.11.2015 07:14 5,0 C 98 % 1023,4 hPa 0,0 l/m 1,1 km/h (1 Bft) S-SO 157 0 min 0,000 mm 0,0 UV-I 7 W/m 4,7 C 5,0 C 1,6 km/h (1 Bft) 100,00 %
05.11.2015 07:15 5,1 C 98 % 1023,4 hPa 0,0 l/m 1,5 km/h (1 Bft) S-SO 157 0 min 0,000 mm 0,0 UV-I 7 W/m 4,8 C 5,1 C 3,2 km/h (1 Bft) 100,00 %
05.11.2015 07:16 5,1 C 98 % 1023,4 hPa 0,0 l/m 1,5 km/h (1 Bft) S-SO 157 0 min 0,000 mm 0,0 UV-I 7 W/m 4,8 C 5,1 C 3,2 km/h (1 Bft) 100,00 %
05.11.2015 07:17 5,1 C 98 % 1023,4 hPa 0,0 l/m 1,1 km/h (1 Bft) S-SO 157 0 min 0,000 mm 0,0 UV-I 7 W/m 4,8 C 5,1 C 1,6 km/h (1 Bft) 100,00 %
05.11.2015 07:18 5,1 C 98 % 1023,3 hPa 0,0 l/m 0,9 km/h (0 Bft) S-SO 157 0 min 0,000 mm 0,0 UV-I 7 W/m 4,8 C 5,1 C 1,6 km/h (1 Bft) 100,00 %
05.11.2015 07:19 5,1 C 98 % 1023,4 hPa 0,0 l/m 0,0 km/h (0 Bft) S-SO 157 0 min 0,000 mm 0,0 UV-I 7 W/m 4,8 C 5,1 C 0,0 km/h (0 Bft) 100,00 %
05.11.2015 07:20 5,0 C 98 % 1023,4 hPa 0,0 l/m 0,0 km/h (0 Bft) S-SO 157 0 min 0,000 mm 0,0 UV-I 7 W/m 4,7 C 5,0 C 0,0 km/h (0 Bft) 95,65 %
05.11.2015 07:21 4,9 C 97 % 1023,4 hPa 0,0 l/m 0,1 km/h (0 Bft) S-SO 157 0 min 0,000 mm 0,0 UV-I 7 W/m 4,5 C 4,9 C 1,6 km/h (1 Bft) 100,00 %
05.11.2015 07:22 4,9 C 97 % 1023,4 hPa 0,0 l/m 0,1 km/h (0 Bft) S-SO 157 0 min 0,000 mm 0,0 UV-I 7 W/m 4,5 C 4,9 C 1,6 km/h (1 Bft) 100,00 %
05.11.2015 07:23 4,9 C 97 % 1023,4 hPa 0,0 l/m 0,4 km/h (0 Bft) S-SO 157 0 min 0,000 mm 0,0 UV-I 7 W/m 4,5 C 4,9 C 1,6 km/h (1 Bft) 95,83 %
05.11.2015 07:24 4,9 C 97 % 1023,4 hPa 0,0 l/m 0,4 km/h (0 Bft) S-SO 157 0 min 0,000 mm 0,0 UV-I 8 W/m 4,5 C 4,9 C 1,6 km/h (1 Bft) 96,15 %
05.11.2015 07:25 4,9 C 97 % 1023,4 hPa 0,0 l/m 0,0 km/h (0 Bft) S-SO 157 0 min 0,000 mm 0,0 UV-I 9 W/m 4,5 C 4,9 C 0,0 km/h (0 Bft) 100,00 %
05.11.2015 07:26 4,8 C 97 % 1023,4 hPa 0,0 l/m 0,0 km/h (0 Bft) S-SO 157 0 min 0,000 mm 0,0 UV-I 9 W/m 4,4 C 4,8 C 0,0 km/h (0 Bft) 95,65 %
05.11.2015 07:27 4,8 C 97 % 1023,4 hPa 0,0 l/m 0,0 km/h (0 Bft) S-SO 157 0 min 0,000 mm 0,0 UV-I 9 W/m 4,4 C 4,8 C 0,0 km/h (0 Bft) 95,83 %
05.11.2015 07:28 4,8 C 97 % 1023,4 hPa 0,0 l/m 0,0 km/h (0 Bft) S-SO 157 0 min 0,000 mm 0,0 UV-I 9 W/m 4,4 C 4,8 C 0,0 km/h (0 Bft) 100,00 %
05.11.2015 07:29 4,8 C 97 % 1023,4 hPa 0,0 l/m 0,0 km/h (0 Bft) S-SO 157 0 min 0,000 mm 0,0 UV-I 9 W/m 4,4 C 4,8 C 0,0 km/h (0 Bft) 100,00 %
05.11.2015 07:30 4,8 C 97 % 1023,5 hPa 0,0 l/m 0,0 km/h (0 Bft) S-SO 157 0 min 0,000 mm 0,0 UV-I 9 W/m 4,4 C 4,8 C 0,0 km/h (0 Bft) 100,00 %
05.11.2015 07:31 4,8 C 97 % 1023,5 hPa 0,0 l/m 0,0 km/h (0 Bft) S-SO 157 0 min 0,000 mm 0,0 UV-I 9 W/m 4,4 C 4,8 C 0,0 km/h (0 Bft) 95,83 %
05.11.2015 07:32 4,8 C 97 % 1023,5 hPa 0,0 l/m 0,0 km/h (0 Bft) S-SO 157 0 min 0,000 mm 0,0 UV-I 11 W/m 4,4 C 4,8 C 0,0 km/h (0 Bft) 95,65 %
05.11.2015 07:33 4,8 C 97 % 1023,5 hPa 0,0 l/m 0,0 km/h (0 Bft) S-SO 157 0 min 0,000 mm 0,0 UV-I 11 W/m 4,4 C 4,8 C 0,0 km/h (0 Bft) 100,00 %
05.11.2015 07:34 4,8 C 97 % 1023,5 hPa 0,0 l/m 0,0 km/h (0 Bft) S-SO 157 0 min 0,000 mm 0,0 UV-I 11 W/m 4,4 C 4,8 C 0,0 km/h (0 Bft) 100,00 %
05.11.2015 07:35 4,8 C 97 % 1023,5 hPa 0,0 l/m 0,0 km/h (0 Bft) S-SO 157 0 min 0,000 mm 0,0 UV-I 11 W/m 4,4 C 4,8 C 0,0 km/h (0 Bft) 100,00 %
05.11.2015 07:36 4,8 C 98 % 1023,5 hPa 0,0 l/m 0,0 km/h (0 Bft) S-SO 157 0 min 0,000 mm 0,0 UV-I 11 W/m 4,5 C 4,8 C 0,0 km/h (0 Bft) 100,00 %
05.11.2015 07:37 4,9 C 98 % 1023,6 hPa 0,0 l/m 0,0 km/h (0 Bft) S-SO 157 0 min 0,000 mm 0,0 UV-I 11 W/m 4,6 C 4,9 C 0,0 km/h (0 Bft) 100,00 %
05.11.2015 07:38 4,9 C 98 % 1023,5 hPa 0,0 l/m 0,0 km/h (0 Bft) S-SO 157 0 min 0,000 mm 0,0 UV-I 11 W/m 4,6 C 4,9 C 0,0 km/h (0 Bft) 100,00 %
05.11.2015 07:39 4,9 C 98 % 1023,6 hPa 0,0 l/m 0,0 km/h (0 Bft) S-SO 157 0 min 0,000 mm 0,0 UV-I 12 W/m 4,6 C 4,9 C 0,0 km/h (0 Bft) 100,00 %
05.11.2015 07:40 4,9 C 98 % 1023,6 hPa 0,0 l/m 0,0 km/h (0 Bft) S-SO 157 0 min 0,000 mm 0,0 UV-I 12 W/m 4,6 C 4,9 C 0,0 km/h (0 Bft) 100,00 %
05.11.2015 07:41 4,9 C 98 % 1023,6 hPa 0,0 l/m 0,0 km/h (0 Bft) S-SO 157 0 min 0,000 mm 0,0 UV-I 12 W/m 4,6 C 4,9 C 0,0 km/h (0 Bft) 100,00 %
05.11.2015 07:42 4,9 C 98 % 1023,7 hPa 0,0 l/m 0,1 km/h (0 Bft) S-SO 157 0 min 0,000 mm 0,0 UV-I 12 W/m 4,6 C 4,9 C 1,6 km/h (1 Bft) 100,00 %
05.11.2015 07:43 4,9 C 98 % 1023,7 hPa 0,0 l/m 0,0 km/h (0 Bft) S-SO 157 0 min 0,000 mm 0,0 UV-I 12 W/m 4,6 C 4,9 C 0,0 km/h (0 Bft) 100,00 %
05.11.2015 07:44 4,8 C 98 % 1023,7 hPa 0,0 l/m 0,6 km/h (0 Bft) S-SO 155 0 min 0,000 mm 0,0 UV-I 14 W/m 4,5 C 4,8 C 1,6 km/h (1 Bft) 100,00 %
05.11.2015 07:45 4,8 C 98 % 1023,7 hPa 0,0 l/m 2,1 km/h (1 Bft) O 91 0 min 0,000 mm 0,0 UV-I 14 W/m 4,5 C 4,8 C 3,2 km/h (1 Bft) 91,30 %
05.11.2015 07:46 4,8 C 98 % 1023,8 hPa 0,0 l/m 3,0 km/h (1 Bft) O 88 0 min 0,000 mm 0,0 UV-I 15 W/m 4,5 C 4,8 C 4,8 km/h (1 Bft) 100,00 %
05.11.2015 07:47 4,8 C 98 % 1023,8 hPa 0,0 l/m 1,7 km/h (1 Bft) O 81 0 min 0,000 mm 0,0 UV-I 16 W/m 4,5 C 4,8 C 3,2 km/h (1 Bft) 100,00 %
05.11.2015 07:48 4,8 C 98 % 1023,8 hPa 0,0 l/m 0,9 km/h (0 Bft) O 81 0 min 0,000 mm 0,0 UV-I 18 W/m 4,5 C 4,8 C 1,6 km/h (1 Bft) 95,83 %
05.11.2015 07:49 4,7 C 98 % 1023,8 hPa 0,0 l/m 2,0 km/h (1 Bft) O 85 0 min 0,000 mm 0,0 UV-I 19 W/m 4,4 C 4,7 C 3,2 km/h (1 Bft) 100,00 %
05.11.2015 07:50 4,7 C 98 % 1023,8 hPa 0,0 l/m 1,5 km/h (1 Bft) O 85 0 min 0,000 mm 0,0 UV-I 20 W/m 4,4 C 4,7 C 3,2 km/h (1 Bft) 100,00 %
05.11.2015 07:51 4,7 C 98 % 1023,8 hPa 0,0 l/m 0,9 km/h (0 Bft) O 85 0 min 0,000 mm 0,0 UV-I 22 W/m 4,4 C 4,7 C 1,6 km/h (1 Bft) 100,00 %
05.11.2015 07:52 4,6 C 97 % 1023,8 hPa 0,0 l/m 0,1 km/h (0 Bft) O 85 0 min 0,000 mm 0,0 UV-I 23 W/m 4,2 C 4,6 C 1,6 km/h (1 Bft) 100,00 %
05.11.2015 07:53 4,5 C 97 % 1023,9 hPa 0,0 l/m 0,0 km/h (0 Bft) O 85 0 min 0,000 mm 0,0 UV-I 24 W/m 4,1 C 4,5 C 0,0 km/h (0 Bft) 93,33 %
05.11.2015 07:54 4,4 C 97 % 1023,9 hPa 0,0 l/m 0,0 km/h (0 Bft) O 85 0 min 0,000 mm 0,0 UV-I 26 W/m 4,0 C 4,4 C 0,0 km/h (0 Bft) 100,00 %
05.11.2015 07:55 4,3 C 97 % 1023,9 hPa 0,0 l/m 0,0 km/h (0 Bft) O 85 0 min 0,000 mm 0,0 UV-I 26 W/m 3,9 C 4,3 C 0,0 km/h (0 Bft) 100,00 %
05.11.2015 07:56 4,3 C 97 % 1023,8 hPa 0,0 l/m 0,0 km/h (0 Bft) O 85 0 min 0,000 mm 0,0 UV-I 28 W/m 3,9 C 4,3 C 0,0 km/h (0 Bft) 100,00 %
05.11.2015 07:57 4,3 C 97 % 1023,9 hPa 0,0 l/m 0,0 km/h (0 Bft) O 85 0 min 0,000 mm 0,0 UV-I 28 W/m 3,9 C 4,3 C 0,0 km/h (0 Bft) 96,30 %
05.11.2015 07:58 4,3 C 97 % 1023,9 hPa 0,0 l/m 0,0 km/h (0 Bft) O 85 0 min 0,000 mm 0,0 UV-I 30 W/m 3,9 C 4,3 C 0,0 km/h (0 Bft) 100,00 %
05.11.2015 07:59 4,2 C 97 % 1023,9 hPa 0,0 l/m 0,0 km/h (0 Bft) O 85 0 min 0,000 mm 0,0 UV-I 33 W/m 3,8 C 4,2 C 0,0 km/h (0 Bft) 100,00 %
05.11.2015 08:00 4,2 C 97 % 1023,9 hPa 0,0 l/m 0,0 km/h (0 Bft) O 85 0 min 0,000 mm 0,0 UV-I 35 W/m 3,8 C 4,2 C 0,0 km/h (0 Bft) 96,15 %
05.11.2015 08:02 4,2 C 97 % 1023,9 hPa 0,0 l/m 0,0 km/h (0 Bft) O 85 0 min 0,000 mm 0,0 UV-I 41 W/m 3,8 C 4,2 C 0,0 km/h (0 Bft) 100,00 %
05.11.2015 08:03 4,2 C 97 % 1023,8 hPa 0,0 l/m 0,0 km/h (0 Bft) O 85 0 min 0,000 mm 0,0 UV-I 44 W/m 3,8 C 4,2 C 0,0 km/h (0 Bft) 100,00 %
05.11.2015 08:04 4,2 C 97 % 1023,8 hPa 0,0 l/m 0,0 km/h (0 Bft) O 85 0 min 0,000 mm 0,0 UV-I 40 W/m 3,8 C 4,2 C 0,0 km/h (0 Bft) 95,83 %
05.11.2015 08:05 4,2 C 97 % 1023,9 hPa 0,0 l/m 0,0 km/h (0 Bft) O 85 0 min 0,000 mm 0,0 UV-I 39 W/m 3,8 C 4,2 C 0,0 km/h (0 Bft) 100,00 %
05.11.2015 08:06 4,2 C 97 % 1023,8 hPa 0,0 l/m 0,0 km/h (0 Bft) O 85 0 min 0,000 mm 0,0 UV-I 39 W/m 3,8 C 4,2 C 0,0 km/h (0 Bft) 100,00 %
05.11.2015 08:07 4,3 C 97 % 1023,8 hPa 0,0 l/m 0,0 km/h (0 Bft) O 85 0 min 0,000 mm 0,0 UV-I 38 W/m 3,9 C 4,3 C 0,0 km/h (0 Bft) 100,00 %
05.11.2015 08:08 4,3 C 98 % 1023,8 hPa 0,0 l/m 0,0 km/h (0 Bft) O 85 0 min 0,000 mm 0,0 UV-I 37 W/m 4,0 C 4,3 C 0,0 km/h (0 Bft) 100,00 %
05.11.2015 08:09 4,4 C 98 % 1023,8 hPa 0,0 l/m 0,0 km/h (0 Bft) O 85 0 min 0,000 mm 0,0 UV-I 37 W/m 4,1 C 4,4 C 0,0 km/h (0 Bft) 100,00 %
05.11.2015 08:10 4,3 C 97 % 1023,8 hPa 0,0 l/m 0,0 km/h (0 Bft) O 85 0 min 0,000 mm 0,0 UV-I 37 W/m 3,9 C 4,3 C 0,0 km/h (0 Bft) 100,00 %
05.11.2015 08:11 4,3 C 98 % 1023,8 hPa 0,0 l/m 0,0 km/h (0 Bft) O 85 0 min 0,000 mm 0,0 UV-I 37 W/m 4,0 C 4,3 C 0,0 km/h (0 Bft) 100,00 %
05.11.2015 08:12 4,3 C 98 % 1023,8 hPa 0,0 l/m 0,0 km/h (0 Bft) O 85 0 min 0,000 mm 0,0 UV-I 37 W/m 4,0 C 4,3 C 0,0 km/h (0 Bft) 100,00 %
05.11.2015 08:13 4,4 C 98 % 1023,8 hPa 0,0 l/m 0,1 km/h (0 Bft) O 85 0 min 0,000 mm 0,0 UV-I 37 W/m 4,1 C 4,4 C 1,6 km/h (1 Bft) 95,83 %
05.11.2015 08:14 4,4 C 98 % 1023,8 hPa 0,0 l/m 0,0 km/h (0 Bft) O 85 0 min 0,000 mm 0,0 UV-I 39 W/m 4,1 C 4,4 C 0,0 km/h (0 Bft) 100,00 %
05.11.2015 08:15 4,4 C 98 % 1023,8 hPa 0,0 l/m 0,0 km/h (0 Bft) O 85 0 min 0,000 mm 0,0 UV-I 39 W/m 4,1 C 4,4 C 0,0 km/h (0 Bft) 100,00 %
05.11.2015 08:16 4,4 C 98 % 1023,8 hPa 0,0 l/m 0,0 km/h (0 Bft) O 85 0 min 0,000 mm 0,0 UV-I 39 W/m 4,1 C 4,4 C 0,0 km/h (0 Bft) 100,00 %
05.11.2015 08:17 4,4 C 98 % 1023,8 hPa 0,0 l/m 0,0 km/h (0 Bft) O 85 0 min 0,000 mm 0,0 UV-I 39 W/m 4,1 C 4,4 C 0,0 km/h (0 Bft) 100,00 %
05.11.2015 08:18 4,4 C 98 % 1023,8 hPa 0,0 l/m 0,1 km/h (0 Bft) O 85 0 min 0,000 mm 0,0 UV-I 40 W/m 4,1 C 4,4 C 1,6 km/h (1 Bft) 100,00 %
05.11.2015 08:19 4,4 C 98 % 1023,8 hPa 0,0 l/m 0,6 km/h (0 Bft) O 85 0 min 0,000 mm 0,0 UV-I 44 W/m 4,1 C 4,4 C 1,6 km/h (1 Bft) 100,00 %
05.11.2015 08:20 4,5 C 98 % 1023,8 hPa 0,0 l/m 0,4 km/h (0 Bft) O 85 0 min 0,000 mm 0,0 UV-I 62 W/m 4,2 C 4,5 C 1,6 km/h (1 Bft) 100,00 %
05.11.2015 08:21 4,4 C 98 % 1023,8 hPa 0,0 l/m 0,3 km/h (0 Bft) O 85 0 min 0,000 mm 0,0 UV-I 93 W/m 4,1 C 4,4 C 1,6 km/h (1 Bft) 100,00 %
05.11.2015 08:22 4,5 C 98 % 1023,8 hPa 0,0 l/m 0,2 km/h (0 Bft) O 85 0 min 0,000 mm 0,0 UV-I 112 W/m 4,2 C 4,5 C 1,6 km/h (1 Bft) 100,00 %
05.11.2015 08:23 4,6 C 98 % 1023,8 hPa 0,0 l/m 0,1 km/h (0 Bft) O 85 0 min 0,000 mm 0,0 UV-I 100 W/m 4,3 C 4,6 C 1,6 km/h (1 Bft) 96,15 %
05.11.2015 08:24 4,7 C 98 % 1023,9 hPa 0,0 l/m 0,2 km/h (0 Bft) O 85 1 min 0,000 mm 0,0 UV-I 133 W/m 4,4 C 4,7 C 1,6 km/h (1 Bft) 96,30 %
05.11.2015 08:25 4,7 C 98 % 1023,9 hPa 0,0 l/m 0,0 km/h (0 Bft) O 85 1 min 0,000 mm 0,0 UV-I 128 W/m 4,4 C 4,7 C 0,0 km/h (0 Bft) 100,00 %
05.11.2015 08:26 4,7 C 98 % 1023,9 hPa 0,0 l/m 0,0 km/h (0 Bft) O 85 0 min 0,000 mm 0,0 UV-I 105 W/m 4,4 C 4,7 C 0,0 km/h (0 Bft) 100,00 %
05.11.2015 08:27 4,8 C 98 % 1023,8 hPa 0,0 l/m 0,0 km/h (0 Bft) O 85 1 min 0,000 mm 0,0 UV-I 127 W/m 4,5 C 4,8 C 0,0 km/h (0 Bft) 100,00 %
05.11.2015 08:28 4,8 C 98 % 1023,8 hPa 0,0 l/m 0,0 km/h (0 Bft) O 85 1 min 0,000 mm 0,0 UV-I 146 W/m 4,5 C 4,8 C 0,0 km/h (0 Bft) 100,00 %
05.11.2015 08:29 4,9 C 98 % 1023,8 hPa 0,0 l/m 0,0 km/h (0 Bft) O 85 1 min 0,000 mm 0,0 UV-I 148 W/m 4,6 C 4,9 C 0,0 km/h (0 Bft) 100,00 %
05.11.2015 08:30 5,0 C 98 % 1023,8 hPa 0,0 l/m 0,0 km/h (0 Bft) O 85 1 min 0,000 mm 0,0 UV-I 153 W/m 4,7 C 5,0 C 0,0 km/h (0 Bft) 100,00 %
05.11.2015 08:31 5,1 C 98 % 1023,8 hPa 0,0 l/m 0,0 km/h (0 Bft) O 85 1 min 0,000 mm 0,0 UV-I 156 W/m 4,8 C 5,1 C 0,0 km/h (0 Bft) 100,00 %
05.11.2015 08:32 5,2 C 98 % 1023,8 hPa 0,0 l/m 0,0 km/h (0 Bft) O 85 1 min 0,000 mm 0,0 UV-I 160 W/m 4,9 C 5,2 C 0,0 km/h (0 Bft) 96,15 %
05.11.2015 08:33 5,2 C 98 % 1023,9 hPa 0,0 l/m 0,0 km/h (0 Bft) O 85 1 min 0,000 mm 0,0 UV-I 164 W/m 4,9 C 5,2 C 0,0 km/h (0 Bft) 100,00 %
05.11.2015 08:34 5,3 C 98 % 1023,8 hPa 0,0 l/m 0,2 km/h (0 Bft) O 85 1 min 0,000 mm 0,0 UV-I 168 W/m 5,0 C 5,3 C 1,6 km/h (1 Bft) 100,00 %
05.11.2015 08:35 5,3 C 98 % 1023,8 hPa 0,0 l/m 0,3 km/h (0 Bft) O 85 1 min 0,000 mm 0,0 UV-I 171 W/m 5,0 C 5,3 C 1,6 km/h (1 Bft) 100,00 %
05.11.2015 08:36 5,4 C 98 % 1023,8 hPa 0,0 l/m 0,0 km/h (0 Bft) O 85 1 min 0,000 mm 0,0 UV-I 175 W/m 5,1 C 5,4 C 0,0 km/h (0 Bft) 100,00 %
05.11.2015 08:37 5,4 C 98 % 1023,8 hPa 0,0 l/m 0,3 km/h (0 Bft) O 85 1 min 0,000 mm 0,0 UV-I 180 W/m 5,1 C 5,4 C 1,6 km/h (1 Bft) 100,00 %
05.11.2015 08:38 5,4 C 98 % 1023,7 hPa 0,0 l/m 0,0 km/h (0 Bft) O 85 1 min 0,000 mm 0,0 UV-I 184 W/m 5,1 C 5,4 C 0,0 km/h (0 Bft) 100,00 %
05.11.2015 08:39 5,4 C 98 % 1023,8 hPa 0,0 l/m 0,1 km/h (0 Bft) O 84 1 min 0,000 mm 0,0 UV-I 187 W/m 5,1 C 5,4 C 1,6 km/h (1 Bft) 95,83 %
05.11.2015 08:40 5,5 C 97 % 1023,8 hPa 0,0 l/m 0,4 km/h (0 Bft) O 84 1 min 0,000 mm 0,0 UV-I 184 W/m 5,1 C 5,5 C 1,6 km/h (1 Bft) 100,00 %
05.11.2015 08:41 5,5 C 97 % 1023,8 hPa 0,0 l/m 0,0 km/h (0 Bft) O 84 1 min 0,000 mm 0,0 UV-I 142 W/m 5,1 C 5,5 C 0,0 km/h (0 Bft) 100,00 %
05.11.2015 08:42 5,6 C 97 % 1023,8 hPa 0,0 l/m 0,0 km/h (0 Bft) O 84 1 min 0,000 mm 0,0 UV-I 154 W/m 5,2 C 5,6 C 0,0 km/h (0 Bft) 100,00 %
05.11.2015 08:43 5,7 C 97 % 1023,8 hPa 0,0 l/m 0,0 km/h (0 Bft) O 84 0 min 0,000 mm 0,0 UV-I 124 W/m 5,3 C 5,7 C 0,0 km/h (0 Bft) 100,00 %
05.11.2015 08:44 5,7 C 97 % 1023,8 hPa 0,0 l/m 0,0 km/h (0 Bft) O 84 0 min 0,000 mm 0,0 UV-I 109 W/m 5,3 C 5,7 C 0,0 km/h (0 Bft) 96,15 %
05.11.2015 08:45 5,7 C 97 % 1023,8 hPa 0,0 l/m 0,0 km/h (0 Bft) O 84 1 min 0,000 mm 0,0 UV-I 153 W/m 5,3 C 5,7 C 0,0 km/h (0 Bft) 100,00 %
05.11.2015 08:46 5,8 C 97 % 1023,8 hPa 0,0 l/m 0,0 km/h (0 Bft) O 84 1 min 0,000 mm 0,0 UV-I 193 W/m 5,4 C 5,8 C 0,0 km/h (0 Bft) 100,00 %
05.11.2015 08:47 5,8 C 97 % 1023,8 hPa 0,0 l/m 0,0 km/h (0 Bft) O 84 1 min 0,000 mm 0,0 UV-I 180 W/m 5,4 C 5,8 C 0,0 km/h (0 Bft) 100,00 %
05.11.2015 08:48 5,9 C 97 % 1023,8 hPa 0,0 l/m 0,0 km/h (0 Bft) O 84 1 min 0,000 mm 0,0 UV-I 213 W/m 5,5 C 5,9 C 0,0 km/h (0 Bft) 100,00 %
05.11.2015 08:49 6,0 C 97 % 1023,8 hPa 0,0 l/m 0,0 km/h (0 Bft) O 84 1 min 0,000 mm 0,0 UV-I 199 W/m 5,6 C 6,0 C 0,0 km/h (0 Bft) 100,00 %
05.11.2015 08:50 6,1 C 97 % 1023,8 hPa 0,0 l/m 0,0 km/h (0 Bft) O 84 0 min 0,000 mm 0,0 UV-I 144 W/m 5,7 C 6,1 C 0,0 km/h (0 Bft) 100,00 %
05.11.2015 08:51 6,2 C 97 % 1023,8 hPa 0,0 l/m 0,0 km/h (0 Bft) O 84 0 min 0,000 mm 0,0 UV-I 99 W/m 5,8 C 6,2 C 0,0 km/h (0 Bft) 100,00 %
05.11.2015 08:52 6,3 C 96 % 1023,8 hPa 0,0 l/m 0,0 km/h (0 Bft) O 84 0 min 0,000 mm 0,0 UV-I 89 W/m 5,7 C 6,3 C 0,0 km/h (0 Bft) 100,00 %
05.11.2015 08:53 6,3 C 96 % 1023,8 hPa 0,0 l/m 0,0 km/h (0 Bft) O 84 0 min 0,000 mm 0,0 UV-I 88 W/m 5,7 C 6,3 C 0,0 km/h (0 Bft) 100,00 %
05.11.2015 08:54 6,4 C 96 % 1023,8 hPa 0,0 l/m 0,0 km/h (0 Bft) O 84 0 min 0,000 mm 0,0 UV-I 93 W/m 5,8 C 6,4 C 0,0 km/h (0 Bft) 95,83 %
05.11.2015 08:55 6,4 C 96 % 1023,9 hPa 0,0 l/m 0,0 km/h (0 Bft) O 84 0 min 0,000 mm 0,0 UV-I 98 W/m 5,8 C 6,4 C 0,0 km/h (0 Bft) 100,00 %
05.11.2015 08:56 6,4 C 96 % 1023,8 hPa 0,0 l/m 0,0 km/h (0 Bft) O 84 0 min 0,000 mm 0,0 UV-I 92 W/m 5,8 C 6,4 C 0,0 km/h (0 Bft) 100,00 %
05.11.2015 08:57 6,4 C 96 % 1023,9 hPa 0,0 l/m 0,0 km/h (0 Bft) O 84 0 min 0,000 mm 0,0 UV-I 99 W/m 5,8 C 6,4 C 0,0 km/h (0 Bft) 100,00 %
05.11.2015 08:58 6,5 C 96 % 1023,9 hPa 0,0 l/m 0,0 km/h (0 Bft) O 84 0 min 0,000 mm 0,0 UV-I 96 W/m 5,9 C 6,5 C 0,0 km/h (0 Bft) 100,00 %
05.11.2015 08:59 6,6 C 96 % 1023,9 hPa 0,0 l/m 0,0 km/h (0 Bft) O 84 0 min 0,000 mm 0,0 UV-I 88 W/m 6,0 C 6,6 C 0,0 km/h (0 Bft) 100,00 %
05.11.2015 09:00 6,6 C 96 % 1023,9 hPa 0,0 l/m 0,0 km/h (0 Bft) O 84 0 min 0,051 mm 0,0 UV-I 89 W/m 6,0 C 6,6 C 0,0 km/h (0 Bft) 100,00 %
05.11.2015 09:02 6,7 C 95 % 1023,9 hPa 0,0 l/m 0,1 km/h (0 Bft) O 84 0 min 0,000 mm 0,0 UV-I 98 W/m 6,0 C 6,7 C 1,6 km/h (1 Bft) 100,00 %
05.11.2015 09:03 6,7 C 95 % 1023,9 hPa 0,0 l/m 0,0 km/h (0 Bft) O 84 0 min 0,000 mm 0,0 UV-I 112 W/m 6,0 C 6,7 C 0,0 km/h (0 Bft) 100,00 %
05.11.2015 09:04 6,8 C 96 % 1023,9 hPa 0,0 l/m 0,0 km/h (0 Bft) O 84 1 min 0,000 mm 0,0 UV-I 164 W/m 6,2 C 6,8 C 0,0 km/h (0 Bft) 95,83 %
05.11.2015 09:05 6,8 C 96 % 1023,9 hPa 0,0 l/m 0,0 km/h (0 Bft) O 84 1 min 0,000 mm 0,0 UV-I 191 W/m 6,2 C 6,8 C 0,0 km/h (0 Bft) 100,00 %
05.11.2015 09:06 6,8 C 96 % 1024,0 hPa 0,0 l/m 0,0 km/h (0 Bft) O 84 0 min 0,000 mm 0,0 UV-I 160 W/m 6,2 C 6,8 C 0,0 km/h (0 Bft) 100,00 %
05.11.2015 09:07 6,8 C 96 % 1024,0 hPa 0,0 l/m 0,2 km/h (0 Bft) O 84 0 min 0,000 mm 0,0 UV-I 154 W/m 6,2 C 6,8 C 1,6 km/h (1 Bft) 100,00 %
05.11.2015 09:08 6,8 C 96 % 1024,0 hPa 0,0 l/m 0,1 km/h (0 Bft) O 84 1 min 0,000 mm 0,2 UV-I 171 W/m 6,2 C 6,8 C 1,6 km/h (1 Bft) 95,65 %
05.11.2015 09:09 6,9 C 95 % 1024,0 hPa 0,0 l/m 0,1 km/h (0 Bft) O 84 1 min 0,000 mm 0,5 UV-I 180 W/m 6,2 C 6,9 C 1,6 km/h (1 Bft) 100,00 %
05.11.2015 09:10 7,0 C 95 % 1024,0 hPa 0,0 l/m 0,0 km/h (0 Bft) O 84 1 min 0,000 mm 0,5 UV-I 178 W/m 6,3 C 7,0 C 0,0 km/h (0 Bft) 100,00 %
05.11.2015 09:11 7,1 C 95 % 1024,0 hPa 0,0 l/m 0,0 km/h (0 Bft) O 84 1 min 0,000 mm 0,5 UV-I 176 W/m 6,4 C 7,1 C 0,0 km/h (0 Bft) 100,00 %
05.11.2015 09:12 7,1 C 95 % 1024,0 hPa 0,0 l/m 0,0 km/h (0 Bft) O 84 1 min 0,000 mm 0,5 UV-I 182 W/m 6,4 C 7,1 C 0,0 km/h (0 Bft) 100,00 %
05.11.2015 09:13 7,2 C 95 % 1024,0 hPa 0,0 l/m 0,0 km/h (0 Bft) O 84 1 min 0,000 mm 0,5 UV-I 183 W/m 6,5 C 7,2 C 0,0 km/h (0 Bft) 100,00 %
05.11.2015 09:14 7,2 C 95 % 1024,0 hPa 0,0 l/m 0,7 km/h (0 Bft) O 84 1 min 0,000 mm 0,5 UV-I 183 W/m 6,5 C 7,2 C 1,6 km/h (1 Bft) 100,00 %
05.11.2015 09:15 7,2 C 95 % 1024,0 hPa 0,0 l/m 0,4 km/h (0 Bft) O 84 1 min 0,000 mm 0,5 UV-I 175 W/m 6,5 C 7,2 C 1,6 km/h (1 Bft) 100,00 %
05.11.2015 09:16 7,2 C 95 % 1024,0 hPa 0,0 l/m 0,0 km/h (0 Bft) O 84 0 min 0,000 mm 0,5 UV-I 167 W/m 6,5 C 7,2 C 0,0 km/h (0 Bft) 100,00 %
05.11.2015 09:17 7,2 C 95 % 1024,0 hPa 0,0 l/m 0,0 km/h (0 Bft) O 84 0 min 0,000 mm 0,5 UV-I 165 W/m 6,5 C 7,2 C 0,0 km/h (0 Bft) 100,00 %
05.11.2015 09:18 7,3 C 95 % 1023,9 hPa 0,0 l/m 0,0 km/h (0 Bft) O 84 0 min 0,000 mm 0,5 UV-I 163 W/m 6,6 C 7,3 C 0,0 km/h (0 Bft) 100,00 %
05.11.2015 09:19 7,3 C 95 % 1023,9 hPa 0,0 l/m 0,7 km/h (0 Bft) NW 321 0 min 0,000 mm 0,5 UV-I 163 W/m 6,6 C 7,3 C 1,6 km/h (1 Bft) 100,00 %
05.11.2015 09:20 7,3 C 95 % 1023,9 hPa 0,0 l/m 0,9 km/h (0 Bft) NW 321 0 min 0,000 mm 0,5 UV-I 164 W/m 6,6 C 7,3 C 1,6 km/h (1 Bft) 100,00 %
05.11.2015 09:21 7,3 C 95 % 1023,9 hPa 0,0 l/m 0,1 km/h (0 Bft) NW 321 0 min 0,000 mm 0,5 UV-I 166 W/m 6,6 C 7,3 C 1,6 km/h (1 Bft) 95,83 %
05.11.2015 09:22 7,3 C 95 % 1023,9 hPa 0,0 l/m 1,1 km/h (1 Bft) NW 320 0 min 0,000 mm 0,5 UV-I 169 W/m 6,6 C 7,3 C 1,6 km/h (1 Bft) 100,00 %
05.11.2015 09:23 7,3 C 94 % 1023,8 hPa 0,0 l/m 0,7 km/h (0 Bft) NW 320 0 min 0,000 mm 0,5 UV-I 172 W/m 6,4 C 7,3 C 1,6 km/h (1 Bft) 100,00 %
05.11.2015 09:24 7,4 C 95 % 1023,8 hPa 0,0 l/m 0,7 km/h (0 Bft) NW 321 0 min 0,000 mm 0,5 UV-I 172 W/m 6,7 C 7,4 C 1,6 km/h (1 Bft) 100,00 %
05.11.2015 09:25 7,4 C 94 % 1023,8 hPa 0,0 l/m 2,2 km/h (1 Bft) N 9 0 min 0,000 mm 0,5 UV-I 172 W/m 6,5 C 7,4 C 3,2 km/h (1 Bft) 100,00 %
05.11.2015 09:26 7,4 C 94 % 1023,8 hPa 0,0 l/m 1,9 km/h (1 Bft) N 11 0 min 0,000 mm 0,5 UV-I 171 W/m 6,5 C 7,4 C 3,2 km/h (1 Bft) 100,00 %
05.11.2015 09:27 7,4 C 94 % 1023,8 hPa 0,0 l/m 0,8 km/h (0 Bft) N 11 0 min 0,000 mm 0,5 UV-I 168 W/m 6,5 C 7,4 C 1,6 km/h (1 Bft) 95,83 %
05.11.2015 09:28 7,4 C 95 % 1023,8 hPa 0,0 l/m 0,6 km/h (0 Bft) N 11 0 min 0,000 mm 0,5 UV-I 162 W/m 6,7 C 7,4 C 1,6 km/h (1 Bft) 93,33 %
05.11.2015 09:29 7,4 C 94 % 1023,8 hPa 0,0 l/m 1,1 km/h (1 Bft) N 11 0 min 0,000 mm 0,5 UV-I 158 W/m 6,5 C 7,4 C 3,2 km/h (1 Bft) 100,00 %
05.11.2015 09:30 7,4 C 94 % 1023,8 hPa 0,0 l/m 0,6 km/h (0 Bft) N 11 0 min 0,000 mm 0,5 UV-I 156 W/m 6,5 C 7,4 C 1,6 km/h (1 Bft) 100,00 %
05.11.2015 09:31 7,4 C 95 % 1023,9 hPa 0,0 l/m 1,0 km/h (0 Bft) N 11 0 min 0,000 mm 0,5 UV-I 155 W/m 6,7 C 7,4 C 1,6 km/h (1 Bft) 96,55 %
05.11.2015 09:32 7,5 C 94 % 1023,8 hPa 0,0 l/m 0,1 km/h (0 Bft) N 11 0 min 0,000 mm 0,5 UV-I 155 W/m 6,6 C 7,5 C 1,6 km/h (1 Bft) 100,00 %
05.11.2015 09:33 7,5 C 94 % 1023,9 hPa 0,0 l/m 0,0 km/h (0 Bft) N 11 0 min 0,000 mm 0,5 UV-I 156 W/m 6,6 C 7,5 C 0,0 km/h (0 Bft) 95,65 %
05.11.2015 09:34 7,5 C 94 % 1023,9 hPa 0,0 l/m 0,0 km/h (0 Bft) N 11 0 min 0,000 mm 0,5 UV-I 156 W/m 6,6 C 7,5 C 0,0 km/h (0 Bft) 100,00 %
05.11.2015 09:35 7,6 C 94 % 1023,8 hPa 0,0 l/m 0,1 km/h (0 Bft) N 11 0 min 0,000 mm 0,5 UV-I 156 W/m 6,7 C 7,6 C 1,6 km/h (1 Bft) 100,00 %
05.11.2015 09:36 7,6 C 94 % 1023,8 hPa 0,0 l/m 0,2 km/h (0 Bft) N 11 0 min 0,000 mm 0,5 UV-I 156 W/m 6,7 C 7,6 C 1,6 km/h (1 Bft) 100,00 %
05.11.2015 09:37 7,7 C 94 % 1023,8 hPa 0,0 l/m 0,7 km/h (0 Bft) N 11 0 min 0,000 mm 0,5 UV-I 155 W/m 6,8 C 7,7 C 1,6 km/h (1 Bft) 100,00 %
05.11.2015 09:38 7,7 C 94 % 1023,8 hPa 0,0 l/m 0,1 km/h (0 Bft) N 11 0 min 0,000 mm 0,6 UV-I 155 W/m 6,8 C 7,7 C 1,6 km/h (1 Bft) 100,00 %
05.11.2015 09:39 7,7 C 94 % 1023,8 hPa 0,0 l/m 0,0 km/h (0 Bft) N 11 0 min 0,000 mm 0,6 UV-I 156 W/m 6,8 C 7,7 C 0,0 km/h (0 Bft) 100,00 %
05.11.2015 09:40 7,7 C 94 % 1023,8 hPa 0,0 l/m 0,0 km/h (0 Bft) N 11 0 min 0,000 mm 0,6 UV-I 156 W/m 6,8 C 7,7 C 0,0 km/h (0 Bft) 95,83 %
05.11.2015 09:41 7,7 C 93 % 1023,8 hPa 0,0 l/m 0,3 km/h (0 Bft) N 11 0 min 0,000 mm 0,6 UV-I 158 W/m 6,6 C 7,7 C 1,6 km/h (1 Bft) 99,04 %
05.11.2015 09:42 7,7 C 93 % 1023,8 hPa 0,0 l/m 0,1 km/h (0 Bft) N 11 0 min 0,000 mm 0,6 UV-I 160 W/m 6,6 C 7,7 C 1,6 km/h (1 Bft) 97,37 %
05.11.2015 09:43 7,7 C 93 % 1023,8 hPa 0,0 l/m 0,0 km/h (0 Bft) N 11 0 min 0,000 mm 0,6 UV-I 161 W/m 6,6 C 7,7 C 0,0 km/h (0 Bft) 100,00 %
05.11.2015 09:44 7,7 C 93 % 1023,9 hPa 0,0 l/m 0,3 km/h (0 Bft) N 11 0 min 0,000 mm 0,6 UV-I 163 W/m 6,6 C 7,7 C 1,6 km/h (1 Bft) 100,00 %
05.11.2015 09:45 7,8 C 94 % 1023,8 hPa 0,0 l/m 0,6 km/h (0 Bft) N 11 0 min 0,000 mm 0,6 UV-I 165 W/m 6,9 C 7,8 C 1,6 km/h (1 Bft) 100,00 %
05.11.2015 09:46 7,8 C 93 % 1023,8 hPa 0,0 l/m 0,7 km/h (0 Bft) N 11 0 min 0,000 mm 0,6 UV-I 167 W/m 6,7 C 7,8 C 1,6 km/h (1 Bft) 100,00 %
05.11.2015 09:47 7,9 C 94 % 1023,8 hPa 0,0 l/m 0,7 km/h (0 Bft) N 11 0 min 0,000 mm 0,6 UV-I 170 W/m 7,0 C 7,9 C 1,6 km/h (1 Bft) 100,00 %
05.11.2015 09:48 7,9 C 93 % 1023,8 hPa 0,0 l/m 0,3 km/h (0 Bft) N 11 0 min 0,000 mm 0,6 UV-I 171 W/m 6,8 C 7,9 C 1,6 km/h (1 Bft) 100,00 %
05.11.2015 09:49 7,9 C 94 % 1023,8 hPa 0,0 l/m 1,0 km/h (0 Bft) N 11 0 min 0,000 mm 0,6 UV-I 171 W/m 7,0 C 7,9 C 1,6 km/h (1 Bft) 100,00 %
05.11.2015 09:50 7,9 C 93 % 1023,8 hPa 0,0 l/m 0,5 km/h (0 Bft) N 11 0 min 0,000 mm 0,6 UV-I 173 W/m 6,8 C 7,9 C 1,6 km/h (1 Bft) 100,00 %
05.11.2015 09:51 8,0 C 93 % 1023,8 hPa 0,0 l/m 0,2 km/h (0 Bft) N 11 0 min 0,000 mm 0,6 UV-I 174 W/m 6,9 C 8,0 C 1,6 km/h (1 Bft) 100,00 %
05.11.2015 09:52 8,1 C 93 % 1023,9 hPa 0,0 l/m 0,5 km/h (0 Bft) N 11 0 min 0,000 mm 0,7 UV-I 174 W/m 7,0 C 8,1 C 1,6 km/h (1 Bft) 100,00 %
05.11.2015 09:53 8,1 C 93 % 1023,8 hPa 0,0 l/m 0,9 km/h (0 Bft) N 11 0 min 0,000 mm 0,7 UV-I 173 W/m 7,0 C 8,1 C 3,2 km/h (1 Bft) 100,00 %
05.11.2015 09:54 8,1 C 93 % 1023,9 hPa 0,0 l/m 0,3 km/h (0 Bft) N 11 0 min 0,000 mm 0,7 UV-I 172 W/m 7,0 C 8,1 C 1,6 km/h (1 Bft) 95,65 %
05.11.2015 09:55 8,1 C 92 % 1023,8 hPa 0,0 l/m 0,0 km/h (0 Bft) N 11 0 min 0,000 mm 0,7 UV-I 173 W/m 6,9 C 8,1 C 0,0 km/h (0 Bft) 100,00 %
05.11.2015 09:56 8,1 C 93 % 1023,8 hPa 0,0 l/m 0,0 km/h (0 Bft) N 11 0 min 0,000 mm 0,7 UV-I 176 W/m 7,0 C 8,1 C 0,0 km/h (0 Bft) 100,00 %
05.11.2015 09:57 8,2 C 93 % 1023,8 hPa 0,0 l/m 0,0 km/h (0 Bft) N 11 0 min 0,000 mm 0,7 UV-I 178 W/m 7,1 C 8,2 C 0,0 km/h (0 Bft) 100,00 %
05.11.2015 09:58 8,2 C 93 % 1023,8 hPa 0,0 l/m 0,0 km/h (0 Bft) N 11 0 min 0,000 mm 0,7 UV-I 179 W/m 7,1 C 8,2 C 0,0 km/h (0 Bft) 96,55 %
05.11.2015 09:59 8,2 C 93 % 1023,8 hPa 0,0 l/m 0,0 km/h (0 Bft) N 11 0 min 0,000 mm 0,7 UV-I 179 W/m 7,1 C 8,2 C 0,0 km/h (0 Bft) 100,00 %
05.11.2015 10:00 8,2 C 93 % 1023,9 hPa 0,0 l/m 0,3 km/h (0 Bft) N 11 0 min 0,076 mm 0,7 UV-I 178 W/m 7,1 C 8,2 C 1,6 km/h (1 Bft) 100,00 %
05.11.2015 10:01 8,3 C 92 % 1023,8 hPa 0,0 l/m 0,2 km/h (0 Bft) N 11 0 min 0,000 mm 0,7 UV-I 178 W/m 7,1 C 8,3 C 1,6 km/h (1 Bft) 100,00 %
05.11.2015 10:02 8,3 C 92 % 1023,9 hPa 0,0 l/m 0,7 km/h (0 Bft) N 11 0 min 0,000 mm 0,7 UV-I 179 W/m 7,1 C 8,3 C 1,6 km/h (1 Bft) 100,00 %
05.11.2015 10:03 8,3 C 92 % 1023,9 hPa 0,0 l/m 0,0 km/h (0 Bft) N 11 0 min 0,000 mm 0,8 UV-I 178 W/m 7,1 C 8,3 C 0,0 km/h (0 Bft) 100,00 %
05.11.2015 10:04 8,3 C 92 % 1023,9 hPa 0,0 l/m 0,2 km/h (0 Bft) N 11 0 min 0,000 mm 0,8 UV-I 182 W/m 7,1 C 8,3 C 1,6 km/h (1 Bft) 100,00 %
05.11.2015 10:05 8,3 C 92 % 1023,9 hPa 0,0 l/m 0,3 km/h (0 Bft) N 11 0 min 0,000 mm 0,8 UV-I 198 W/m 7,1 C 8,3 C 1,6 km/h (1 Bft) 95,83 %
05.11.2015 10:06 8,3 C 92 % 1023,9 hPa 0,0 l/m 0,0 km/h (0 Bft) N 11 0 min 0,000 mm 0,8 UV-I 196 W/m 7,1 C 8,3 C 0,0 km/h (0 Bft) 96,15 %
05.11.2015 10:07 8,4 C 92 % 1023,9 hPa 0,0 l/m 0,5 km/h (0 Bft) N 11 0 min 0,000 mm 0,8 UV-I 187 W/m 7,2 C 8,4 C 1,6 km/h (1 Bft) 100,00 %
05.11.2015 10:08 8,4 C 92 % 1023,9 hPa 0,0 l/m 0,0 km/h (0 Bft) N 11 0 min 0,000 mm 0,8 UV-I 208 W/m 7,2 C 8,4 C 0,0 km/h (0 Bft) 100,00 %
05.11.2015 10:09 8,4 C 92 % 1023,9 hPa 0,0 l/m 0,3 km/h (0 Bft) N 11 1 min 0,000 mm 0,9 UV-I 258 W/m 7,2 C 8,4 C 1,6 km/h (1 Bft) 100,00 %
05.11.2015 10:10 8,5 C 92 % 1023,9 hPa 0,0 l/m 0,4 km/h (0 Bft) N 11 1 min 0,000 mm 1,0 UV-I 272 W/m 7,3 C 8,5 C 1,6 km/h (1 Bft) 100,00 %
05.11.2015 10:11 8,6 C 92 % 1023,9 hPa 0,0 l/m 0,0 km/h (0 Bft) N 11 1 min 0,000 mm 0,9 UV-I 403 W/m 7,4 C 8,6 C 0,0 km/h (0 Bft) 100,00 %
05.11.2015 10:12 8,7 C 92 % 1023,8 hPa 0,0 l/m 0,1 km/h (0 Bft) N 11 1 min 0,000 mm 0,9 UV-I 326 W/m 7,5 C 8,7 C 1,6 km/h (1 Bft) 100,00 %
05.11.2015 10:13 8,8 C 92 % 1023,8 hPa 0,0 l/m 0,4 km/h (0 Bft) N 11 1 min 0,000 mm 0,9 UV-I 248 W/m 7,6 C 8,8 C 1,6 km/h (1 Bft) 100,00 %
05.11.2015 10:14 8,9 C 93 % 1023,9 hPa 0,0 l/m 0,9 km/h (0 Bft) N 11 1 min 0,000 mm 1,0 UV-I 347 W/m 7,8 C 8,9 C 3,2 km/h (1 Bft) 100,00 %
05.11.2015 10:15 9,1 C 92 % 1023,9 hPa 0,0 l/m 1,2 km/h (1 Bft) N-NO 15 1 min 0,000 mm 1,0 UV-I 406 W/m 7,9 C 9,1 C 1,6 km/h (1 Bft) 100,00 %
05.11.2015 10:16 9,2 C 92 % 1023,9 hPa 0,0 l/m 0,7 km/h (0 Bft) N-NO 15 1 min 0,000 mm 1,0 UV-I 418 W/m 8,0 C 9,2 C 1,6 km/h (1 Bft) 100,00 %
05.11.2015 10:17 9,3 C 91 % 1023,9 hPa 0,0 l/m 0,9 km/h (0 Bft) N-NO 24 1 min 0,000 mm 1,0 UV-I 351 W/m 7,9 C 9,3 C 1,6 km/h (1 Bft) 100,00 %
05.11.2015 10:18 9,3 C 90 % 1023,8 hPa 0,0 l/m 0,8 km/h (0 Bft) NO 36 1 min 0,000 mm 1,0 UV-I 278 W/m 7,7 C 9,3 C 1,6 km/h (1 Bft) 100,00 %
05.11.2015 10:19 9,4 C 90 % 1023,8 hPa 0,0 l/m 0,3 km/h (0 Bft) NO 36 1 min 0,000 mm 1,0 UV-I 253 W/m 7,8 C 9,4 C 1,6 km/h (1 Bft) 100,00 %
05.11.2015 10:20 9,5 C 90 % 1023,8 hPa 0,0 l/m 0,1 km/h (0 Bft) NO 36 1 min 0,000 mm 1,0 UV-I 308 W/m 7,9 C 9,5 C 1,6 km/h (1 Bft) 100,00 %
05.11.2015 10:21 9,5 C 89 % 1023,9 hPa 0,0 l/m 0,1 km/h (0 Bft) NO 36 1 min 0,000 mm 1,1 UV-I 378 W/m 7,8 C 9,5 C 1,6 km/h (1 Bft) 100,00 %
05.11.2015 10:22 9,6 C 89 % 1023,8 hPa 0,0 l/m 1,4 km/h (1 Bft) NO 36 1 min 0,000 mm 1,1 UV-I 374 W/m 7,9 C 9,6 C 3,2 km/h (1 Bft) 100,00 %
05.11.2015 10:23 9,6 C 89 % 1023,8 hPa 0,0 l/m 0,9 km/h (0 Bft) NO 36 1 min 0,000 mm 1,1 UV-I 389 W/m 7,9 C 9,6 C 3,2 km/h (1 Bft) 100,00 %
05.11.2015 10:24 9,7 C 89 % 1023,8 hPa 0,0 l/m 0,4 km/h (0 Bft) NO 36 1 min 0,000 mm 1,1 UV-I 390 W/m 8,0 C 9,7 C 1,6 km/h (1 Bft) 100,00 %
05.11.2015 10:27 9,8 C 88 % 1023,8 hPa 0,0 l/m 1,2 km/h (1 Bft) N-NW 332 3 min 0,000 mm 1,1 UV-I 380 W/m 7,9 C 9,8 C 3,2 km/h (1 Bft) 100,00 %
05.11.2015 10:28 9,8 C 88 % 1023,8 hPa 0,0 l/m 1,3 km/h (1 Bft) N-NW 334 1 min 0,000 mm 1,1 UV-I 375 W/m 7,9 C 9,8 C 1,6 km/h (1 Bft) 100,00 %
05.11.2015 10:29 9,8 C 87 % 1023,8 hPa 0,0 l/m 0,2 km/h (0 Bft) N-NW 345 1 min 0,000 mm 1,1 UV-I 370 W/m 7,7 C 9,8 C 1,6 km/h (1 Bft) 95,83 %
05.11.2015 10:30 9,9 C 87 % 1023,9 hPa 0,0 l/m 2,0 km/h (1 Bft) N 349 1 min 0,000 mm 1,1 UV-I 367 W/m 7,8 C 9,9 C 3,2 km/h (1 Bft) 100,00 %
05.11.2015 10:31 9,9 C 88 % 1023,8 hPa 0,0 l/m 1,2 km/h (1 Bft) N 350 1 min 0,000 mm 1,1 UV-I 365 W/m 8,0 C 9,9 C 3,2 km/h (1 Bft) 100,00 %
05.11.2015 10:32 9,9 C 86 % 1023,8 hPa 0,0 l/m 1,3 km/h (1 Bft) N 350 1 min 0,000 mm 1,2 UV-I 364 W/m 7,7 C 9,9 C 3,2 km/h (1 Bft) 100,00 %
05.11.2015 10:33 10,0 C 86 % 1023,8 hPa 0,0 l/m 2,0 km/h (1 Bft) N-NO 32 1 min 0,000 mm 1,2 UV-I 362 W/m 7,8 C 10,0 C 3,2 km/h (1 Bft) 100,00 %
05.11.2015 10:34 10,1 C 86 % 1023,8 hPa 0,0 l/m 2,7 km/h (1 Bft) N 9 1 min 0,000 mm 1,2 UV-I 362 W/m 7,9 C 10,1 C 3,2 km/h (1 Bft) 100,00 %
05.11.2015 10:35 10,1 C 86 % 1023,8 hPa 0,0 l/m 2,7 km/h (1 Bft) N-NO 12 1 min 0,000 mm 1,2 UV-I 362 W/m 7,9 C 10,1 C 4,8 km/h (1 Bft) 100,00 %
05.11.2015 10:36 10,1 C 86 % 1023,8 hPa 0,0 l/m 2,9 km/h (1 Bft) N-NO 13 1 min 0,000 mm 1,2 UV-I 361 W/m 7,9 C 10,1 C 4,8 km/h (1 Bft) 100,00 %
05.11.2015 10:37 10,2 C 86 % 1023,8 hPa 0,0 l/m 2,0 km/h (1 Bft) NW 321 1 min 0,000 mm 1,2 UV-I 363 W/m 8,0 C 10,2 C 3,2 km/h (1 Bft) 100,00 %
05.11.2015 10:38 10,2 C 86 % 1023,8 hPa 0,0 l/m 2,2 km/h (1 Bft) N 360 1 min 0,000 mm 1,2 UV-I 364 W/m 8,0 C 10,2 C 3,2 km/h (1 Bft) 100,00 %
05.11.2015 10:39 10,2 C 86 % 1023,8 hPa 0,0 l/m 2,3 km/h (1 Bft) N 355 1 min 0,000 mm 1,2 UV-I 366 W/m 8,0 C 10,2 C 3,2 km/h (1 Bft) 100,00 %
05.11.2015 10:40 10,2 C 86 % 1023,8 hPa 0,0 l/m 2,3 km/h (1 Bft) N-NW 344 1 min 0,000 mm 1,2 UV-I 368 W/m 8,0 C 10,2 C 3,2 km/h (1 Bft) 100,00 %
05.11.2015 10:41 10,3 C 86 % 1023,7 hPa 0,0 l/m 0,8 km/h (0 Bft) N-NW 340 1 min 0,000 mm 1,2 UV-I 370 W/m 8,1 C 10,3 C 3,2 km/h (1 Bft) 100,00 %
05.11.2015 10:42 10,4 C 86 % 1023,7 hPa 0,0 l/m 2,3 km/h (1 Bft) N-NO 25 1 min 0,000 mm 1,2 UV-I 372 W/m 8,2 C 10,4 C 4,8 km/h (1 Bft) 100,00 %
05.11.2015 10:43 10,4 C 86 % 1023,7 hPa 0,0 l/m 2,4 km/h (1 Bft) N-NO 17 1 min 0,000 mm 1,2 UV-I 373 W/m 8,2 C 10,4 C 4,8 km/h (1 Bft) 100,00 %
05.11.2015 10:44 10,4 C 87 % 1023,8 hPa 0,0 l/m 1,1 km/h (1 Bft) N-NO 20 1 min 0,000 mm 1,2 UV-I 371 W/m 8,3 C 10,4 C 3,2 km/h (1 Bft) 100,00 %
05.11.2015 10:45 10,5 C 86 % 1023,7 hPa 0,0 l/m 2,3 km/h (1 Bft) N 5 1 min 0,000 mm 1,2 UV-I 371 W/m 8,3 C 10,5 C 4,8 km/h (1 Bft) 100,00 %
05.11.2015 10:46 10,6 C 87 % 1023,8 hPa 0,0 l/m 1,3 km/h (1 Bft) N 9 1 min 0,000 mm 1,2 UV-I 373 W/m 8,5 C 10,6 C 3,2 km/h (1 Bft) 100,00 %
05.11.2015 10:47 10,6 C 85 % 1023,8 hPa 0,0 l/m 0,3 km/h (0 Bft) N 9 1 min 0,000 mm 1,2 UV-I 373 W/m 8,2 C 10,6 C 1,6 km/h (1 Bft) 100,00 %
05.11.2015 10:48 10,6 C 86 % 1023,8 hPa 0,0 l/m 1,3 km/h (1 Bft) N 5 1 min 0,000 mm 1,2 UV-I 373 W/m 8,4 C 10,6 C 4,8 km/h (1 Bft) 100,00 %
05.11.2015 10:49 10,7 C 85 % 1023,8 hPa 0,0 l/m 2,1 km/h (1 Bft) N 5 1 min 0,000 mm 1,3 UV-I 374 W/m 8,3 C 10,7 C 3,2 km/h (1 Bft) 100,00 %
05.11.2015 10:50 10,7 C 85 % 1023,8 hPa 0,0 l/m 1,4 km/h (1 Bft) N 5 1 min 0,000 mm 1,3 UV-I 373 W/m 8,3 C 10,7 C 3,2 km/h (1 Bft) 100,00 %
05.11.2015 10:51 10,7 C 86 % 1023,7 hPa 0,0 l/m 0,9 km/h (0 Bft) N 5 1 min 0,000 mm 1,3 UV-I 374 W/m 8,5 C 10,7 C 1,6 km/h (1 Bft) 100,00 %
05.11.2015 10:52 10,8 C 85 % 1023,7 hPa 0,0 l/m 1,5 km/h (1 Bft) NW 316 1 min 0,000 mm 1,3 UV-I 375 W/m 8,4 C 10,8 C 3,2 km/h (1 Bft) 100,00 %
05.11.2015 10:53 10,9 C 84 % 1023,7 hPa 0,0 l/m 1,3 km/h (1 Bft) NW 317 1 min 0,000 mm 1,3 UV-I 376 W/m 8,3 C 10,9 C 3,2 km/h (1 Bft) 100,00 %
05.11.2015 10:54 10,9 C 85 % 1023,7 hPa 0,0 l/m 0,7 km/h (0 Bft) NW 315 1 min 0,000 mm 1,3 UV-I 377 W/m 8,5 C 10,9 C 1,6 km/h (1 Bft) 100,00 %
05.11.2015 10:55 11,0 C 83 % 1023,6 hPa 0,0 l/m 2,8 km/h (1 Bft) W-NW 294 1 min 0,000 mm 1,3 UV-I 378 W/m 8,2 C 11,0 C 4,8 km/h (1 Bft) 100,00 %
05.11.2015 10:56 11,0 C 83 % 1023,6 hPa 0,0 l/m 2,2 km/h (1 Bft) W 271 1 min 0,000 mm 1,3 UV-I 378 W/m 8,2 C 11,0 C 3,2 km/h (1 Bft) 100,00 %
05.11.2015 10:57 11,1 C 83 % 1023,6 hPa 0,0 l/m 1,9 km/h (1 Bft) W 277 1 min 0,000 mm 1,3 UV-I 380 W/m 8,3 C 11,1 C 3,2 km/h (1 Bft) 100,00 %
05.11.2015 10:58 11,1 C 84 % 1023,6 hPa 0,0 l/m 0,2 km/h (0 Bft) W 277 1 min 0,000 mm 1,3 UV-I 382 W/m 8,5 C 11,1 C 1,6 km/h (1 Bft) 100,00 %
05.11.2015 10:59 11,2 C 83 % 1023,6 hPa 0,0 l/m 1,6 km/h (1 Bft) N-NW 340 1 min 0,000 mm 1,3 UV-I 382 W/m 8,4 C 11,2 C 3,2 km/h (1 Bft) 100,00 %
05.11.2015 11:00 11,2 C 83 % 1023,6 hPa 0,0 l/m 1,8 km/h (1 Bft) W 260 1 min 0,000 mm 1,3 UV-I 381 W/m 8,4 C 11,2 C 4,8 km/h (1 Bft) 100,00 %
05.11.2015 11:01 11,2 C 82 % 1023,5 hPa 0,0 l/m 2,7 km/h (1 Bft) W 276 1 min 0,152 mm 1,3 UV-I 383 W/m 8,2 C 11,2 C 4,8 km/h (1 Bft) 100,00 %
05.11.2015 11:02 11,3 C 82 % 1023,6 hPa 0,0 l/m 1,8 km/h (1 Bft) NW 305 1 min 0,000 mm 1,3 UV-I 383 W/m 8,3 C 11,3 C 3,2 km/h (1 Bft) 100,00 %
05.11.2015 11:03 11,3 C 83 % 1023,5 hPa 0,0 l/m 0,5 km/h (0 Bft) W-SW 240 1 min 0,000 mm 1,3 UV-I 382 W/m 8,5 C 11,3 C 3,2 km/h (1 Bft) 100,00 %
05.11.2015 11:04 11,4 C 83 % 1023,5 hPa 0,0 l/m 3,7 km/h (1 Bft) W 266 1 min 0,000 mm 1,3 UV-I 386 W/m 8,6 C 11,4 C 4,8 km/h (1 Bft) 100,00 %
05.11.2015 11:05 11,5 C 82 % 1023,5 hPa 0,0 l/m 2,5 km/h (1 Bft) NW 314 1 min 0,000 mm 1,3 UV-I 387 W/m 8,5 C 11,5 C 4,8 km/h (1 Bft) 100,00 %
05.11.2015 11:06 11,6 C 81 % 1023,5 hPa 0,0 l/m 1,8 km/h (1 Bft) NW 313 1 min 0,000 mm 1,3 UV-I 388 W/m 8,5 C 11,6 C 3,2 km/h (1 Bft) 100,00 %
05.11.2015 11:07 11,6 C 81 % 1023,5 hPa 0,0 l/m 2,7 km/h (1 Bft) W-NW 286 1 min 0,000 mm 1,3 UV-I 387 W/m 8,5 C 11,6 C 4,8 km/h (1 Bft) 100,00 %
05.11.2015 11:08 11,6 C 80 % 1023,5 hPa 0,0 l/m 2,7 km/h (1 Bft) W 279 1 min 0,000 mm 1,3 UV-I 387 W/m 8,3 C 11,6 C 4,8 km/h (1 Bft) 100,00 %
05.11.2015 11:09 11,6 C 81 % 1023,5 hPa 0,0 l/m 1,1 km/h (1 Bft) W 281 1 min 0,000 mm 1,4 UV-I 388 W/m 8,5 C 11,6 C 3,2 km/h (1 Bft) 100,00 %
05.11.2015 11:10 11,7 C 83 % 1023,5 hPa 0,0 l/m 0,3 km/h (0 Bft) W 281 1 min 0,000 mm 1,4 UV-I 389 W/m 8,9 C 11,7 C 1,6 km/h (1 Bft) 100,00 %
05.11.2015 11:11 11,7 C 82 % 1023,5 hPa 0,0 l/m 0,0 km/h (0 Bft) W 281 1 min 0,000 mm 1,4 UV-I 389 W/m 8,7 C 11,7 C 0,0 km/h (0 Bft) 95,83 %
05.11.2015 11:12 11,8 C 82 % 1023,5 hPa 0,0 l/m 1,1 km/h (1 Bft) N 10 1 min 0,000 mm 1,4 UV-I 388 W/m 8,8 C 11,8 C 3,2 km/h (1 Bft) 100,00 %
05.11.2015 11:13 11,8 C 80 % 1023,5 hPa 0,0 l/m 2,6 km/h (1 Bft) N-NO 13 1 min 0,000 mm 1,4 UV-I 391 W/m 8,5 C 11,8 C 4,8 km/h (1 Bft) 99,18 %
05.11.2015 11:14 11,8 C 81 % 1023,5 hPa 0,0 l/m 1,2 km/h (1 Bft) N-NO 13 1 min 0,000 mm 1,4 UV-I 392 W/m 8,6 C 11,8 C 1,6 km/h (1 Bft) 100,00 %
05.11.2015 11:15 11,8 C 81 % 1023,4 hPa 0,0 l/m 1,5 km/h (1 Bft) N 5 1 min 0,000 mm 1,4 UV-I 391 W/m 8,6 C 11,8 C 3,2 km/h (1 Bft) 100,00 %
05.11.2015 11:16 11,8 C 80 % 1023,4 hPa 0,0 l/m 1,1 km/h (1 Bft) W-NW 300 1 min 0,000 mm 1,4 UV-I 388 W/m 8,5 C 11,8 C 3,2 km/h (1 Bft) 100,00 %
05.11.2015 11:17 11,9 C 82 % 1023,4 hPa 0,0 l/m 0,6 km/h (0 Bft) N-NW 342 1 min 0,000 mm 1,4 UV-I 388 W/m 8,9 C 11,9 C 1,6 km/h (1 Bft) 100,00 %
05.11.2015 11:18 11,9 C 82 % 1023,4 hPa 0,0 l/m 1,4 km/h (1 Bft) N-NW 348 1 min 0,000 mm 1,4 UV-I 394 W/m 8,9 C 11,9 C 1,6 km/h (1 Bft) 95,65 %
05.11.2015 11:19 11,9 C 80 % 1023,4 hPa 0,0 l/m 2,3 km/h (1 Bft) N 10 1 min 0,000 mm 1,4 UV-I 393 W/m 8,6 C 11,9 C 3,2 km/h (1 Bft) 100,00 %
05.11.2015 11:20 11,9 C 81 % 1023,4 hPa 0,0 l/m 0,6 km/h (0 Bft) N 10 1 min 0,000 mm 1,4 UV-I 390 W/m 8,7 C 11,9 C 3,2 km/h (1 Bft) 100,00 %
05.11.2015 11:21 12,0 C 82 % 1023,4 hPa 0,0 l/m 1,0 km/h (0 Bft) N 9 1 min 0,000 mm 1,4 UV-I 390 W/m 9,0 C 12,0 C 3,2 km/h (1 Bft) 100,00 %
05.11.2015 11:22 12,1 C 81 % 1023,4 hPa 0,0 l/m 1,0 km/h (0 Bft) W-NW 297 1 min 0,000 mm 1,4 UV-I 391 W/m 8,9 C 12,1 C 1,6 km/h (1 Bft) 100,00 %
05.11.2015 11:23 12,2 C 81 % 1023,4 hPa 0,0 l/m 0,5 km/h (0 Bft) N-NW 347 1 min 0,000 mm 1,4 UV-I 394 W/m 9,0 C 12,2 C 3,2 km/h (1 Bft) 100,00 %
05.11.2015 11:24 12,2 C 81 % 1023,4 hPa 0,0 l/m 0,7 km/h (0 Bft) N-NW 347 1 min 0,000 mm 1,4 UV-I 394 W/m 9,0 C 12,2 C 3,2 km/h (1 Bft) 100,00 %
05.11.2015 11:25 12,2 C 81 % 1023,3 hPa 0,0 l/m 0,5 km/h (0 Bft) N-NW 347 1 min 0,000 mm 1,4 UV-I 396 W/m 9,0 C 12,2 C 1,6 km/h (1 Bft) 95,65 %
05.11.2015 11:26 12,3 C 80 % 1023,3 hPa 0,0 l/m 2,9 km/h (1 Bft) N-NW 348 1 min 0,000 mm 1,4 UV-I 394 W/m 8,9 C 12,3 C 4,8 km/h (1 Bft) 100,00 %
05.11.2015 11:27 12,3 C 80 % 1023,3 hPa 0,0 l/m 3,3 km/h (1 Bft) N-NO 22 1 min 0,000 mm 1,4 UV-I 397 W/m 8,9 C 12,3 C 4,8 km/h (1 Bft) 100,00 %
05.11.2015 11:28 12,2 C 78 % 1023,3 hPa 0,0 l/m 4,1 km/h (1 Bft) N-NW 331 1 min 0,000 mm 1,4 UV-I 396 W/m 8,5 C 12,2 C 6,4 km/h (2 Bft) 100,00 %
05.11.2015 11:29 12,2 C 80 % 1023,3 hPa 0,0 l/m 3,4 km/h (1 Bft) N 11 1 min 0,000 mm 1,4 UV-I 399 W/m 8,9 C 12,2 C 4,8 km/h (1 Bft) 100,00 %
05.11.2015 11:30 12,2 C 79 % 1023,2 hPa 0,0 l/m 1,7 km/h (1 Bft) N 11 1 min 0,000 mm 1,4 UV-I 401 W/m 8,7 C 12,2 C 3,2 km/h (1 Bft) 100,00 %
05.11.2015 11:31 12,2 C 80 % 1023,2 hPa 0,0 l/m 1,7 km/h (1 Bft) NO 34 1 min 0,000 mm 1,4 UV-I 394 W/m 8,9 C 12,2 C 4,8 km/h (1 Bft) 100,00 %
05.11.2015 11:32 12,3 C 79 % 1023,2 hPa 0,0 l/m 2,5 km/h (1 Bft) N 5 1 min 0,000 mm 1,4 UV-I 390 W/m 8,8 C 12,3 C 3,2 km/h (1 Bft) 100,00 %
05.11.2015 11:33 12,3 C 79 % 1023,3 hPa 0,0 l/m 1,7 km/h (1 Bft) N 5 1 min 0,000 mm 1,4 UV-I 400 W/m 8,8 C 12,3 C 3,2 km/h (1 Bft) 95,65 %
05.11.2015 11:34 12,4 C 79 % 1023,3 hPa 0,0 l/m 0,7 km/h (0 Bft) N 5 1 min 0,000 mm 1,4 UV-I 398 W/m 8,9 C 12,4 C 1,6 km/h (1 Bft) 100,00 %
05.11.2015 11:35 12,5 C 80 % 1023,3 hPa 0,0 l/m 1,6 km/h (1 Bft) N 360 1 min 0,000 mm 1,4 UV-I 396 W/m 9,1 C 12,5 C 4,8 km/h (1 Bft) 100,00 %
05.11.2015 11:39 12,7 C 78 % 1023,2 hPa 0,0 l/m 0,8 km/h (0 Bft) W-NW 283 4 min 0,000 mm 1,4 UV-I 399 W/m 9,0 C 12,7 C 1,6 km/h (1 Bft) 98,84 %
05.11.2015 11:40 12,8 C 77 % 1023,2 hPa 0,0 l/m 1,9 km/h (1 Bft) W-NW 298 1 min 0,000 mm 1,4 UV-I 402 W/m 8,9 C 12,8 C 4,8 km/h (1 Bft) 100,00 %
05.11.2015 11:41 12,7 C 76 % 1023,2 hPa 0,0 l/m 3,4 km/h (1 Bft) W 260 1 min 0,000 mm 1,4 UV-I 402 W/m 8,6 C 12,7 C 4,8 km/h (1 Bft) 100,00 %
05.11.2015 11:42 12,7 C 77 % 1023,1 hPa 0,0 l/m 1,7 km/h (1 Bft) W 281 1 min 0,000 mm 1,4 UV-I 409 W/m 8,8 C 12,7 C 3,2 km/h (1 Bft) 100,00 %
05.11.2015 11:43 12,8 C 77 % 1023,1 hPa 0,0 l/m 0,5 km/h (0 Bft) N 355 1 min 0,000 mm 1,4 UV-I 406 W/m 8,9 C 12,8 C 3,2 km/h (1 Bft) 100,00 %
05.11.2015 11:44 12,8 C 79 % 1023,1 hPa 0,0 l/m 3,6 km/h (1 Bft) N-NW 329 1 min 0,000 mm 1,4 UV-I 404 W/m 9,2 C 12,8 C 6,4 km/h (2 Bft) 95,83 %
05.11.2015 11:45 12,8 C 77 % 1023,1 hPa 0,0 l/m 1,3 km/h (1 Bft) N-NW 344 1 min 0,000 mm 1,4 UV-I 403 W/m 8,9 C 12,8 C 3,2 km/h (1 Bft) 96,77 %
05.11.2015 11:46 12,8 C 77 % 1023,1 hPa 0,0 l/m 1,4 km/h (1 Bft) N-NW 344 1 min 0,000 mm 1,4 UV-I 403 W/m 8,9 C 12,8 C 3,2 km/h (1 Bft) 100,00 %
05.11.2015 11:47 12,8 C 77 % 1023,1 hPa 0,0 l/m 1,4 km/h (1 Bft) W-NW 286 1 min 0,000 mm 1,4 UV-I 405 W/m 8,9 C 12,8 C 3,2 km/h (1 Bft) 100,00 %
05.11.2015 11:48 12,9 C 77 % 1023,1 hPa 0,0 l/m 1,4 km/h (1 Bft) NW 317 1 min 0,000 mm 1,4 UV-I 406 W/m 9,0 C 12,9 C 3,2 km/h (1 Bft) 100,00 %
05.11.2015 11:49 12,9 C 78 % 1023,1 hPa 0,0 l/m 1,3 km/h (1 Bft) NW 321 1 min 0,000 mm 1,4 UV-I 403 W/m 9,2 C 12,9 C 1,6 km/h (1 Bft) 100,00 %
05.11.2015 11:50 13,0 C 78 % 1023,1 hPa 0,0 l/m 2,1 km/h (1 Bft) O-NO 77 1 min 0,000 mm 1,4 UV-I 404 W/m 9,3 C 13,0 C 4,8 km/h (1 Bft) 91,30 %
05.11.2015 11:51 12,9 C 77 % 1023,1 hPa 0,0 l/m 1,5 km/h (1 Bft) N-NW 338 1 min 0,000 mm 1,4 UV-I 405 W/m 9,0 C 12,9 C 3,2 km/h (1 Bft) 100,00 %
05.11.2015 11:52 12,9 C 76 % 1023,1 hPa 0,0 l/m 2,6 km/h (1 Bft) N-NO 19 1 min 0,000 mm 1,4 UV-I 404 W/m 8,8 C 12,9 C 4,8 km/h (1 Bft) 100,00 %
05.11.2015 11:53 12,9 C 77 % 1023,0 hPa 0,0 l/m 3,6 km/h (1 Bft) N-NO 13 1 min 0,000 mm 1,4 UV-I 404 W/m 9,0 C 12,9 C 6,4 km/h (2 Bft) 100,00 %
05.11.2015 11:54 12,9 C 77 % 1023,0 hPa 0,0 l/m 3,5 km/h (1 Bft) W 279 1 min 0,000 mm 1,4 UV-I 404 W/m 9,0 C 12,9 C 4,8 km/h (1 Bft) 100,00 %
05.11.2015 11:55 12,9 C 77 % 1023,0 hPa 0,0 l/m 2,3 km/h (1 Bft) N 9 1 min 0,000 mm 1,4 UV-I 406 W/m 9,0 C 12,9 C 3,2 km/h (1 Bft) 100,00 %
05.11.2015 11:56 12,9 C 78 % 1023,0 hPa 0,0 l/m 2,5 km/h (1 Bft) N-NW 344 1 min 0,000 mm 1,4 UV-I 404 W/m 9,2 C 12,9 C 4,8 km/h (1 Bft) 100,00 %
05.11.2015 11:57 13,0 C 77 % 1023,0 hPa 0,0 l/m 3,4 km/h (1 Bft) N-NW 344 1 min 0,000 mm 1,4 UV-I 408 W/m 9,1 C 13,0 C 6,4 km/h (2 Bft) 96,30 %
05.11.2015 11:58 13,0 C 78 % 1023,0 hPa 0,0 l/m 2,0 km/h (1 Bft) N-NO 16 1 min 0,000 mm 1,4 UV-I 407 W/m 9,3 C 13,0 C 4,8 km/h (1 Bft) 100,00 %
05.11.2015 11:59 13,0 C 75 % 1023,0 hPa 0,0 l/m 2,5 km/h (1 Bft) N 355 1 min 0,000 mm 1,4 UV-I 403 W/m 8,7 C 13,0 C 4,8 km/h (1 Bft) 100,00 %
05.11.2015 12:00 13,1 C 78 % 1023,0 hPa 0,0 l/m 2,1 km/h (1 Bft) W-NW 296 1 min 0,204 mm 1,4 UV-I 403 W/m 9,4 C 13,1 C 3,2 km/h (1 Bft) 100,00 %
05.11.2015 12:01 13,1 C 78 % 1023,0 hPa 0,0 l/m 1,0 km/h (0 Bft) N-NW 343 1 min 0,000 mm 1,4 UV-I 401 W/m 9,4 C 13,1 C 3,2 km/h (1 Bft) 100,00 %
05.11.2015 12:02 13,1 C 76 % 1023,0 hPa 0,0 l/m 3,3 km/h (1 Bft) N 355 1 min 0,000 mm 1,4 UV-I 400 W/m 9,0 C 13,1 C 4,8 km/h (1 Bft) 100,00 %
05.11.2015 12:03 13,1 C 75 % 1022,9 hPa 0,0 l/m 2,5 km/h (1 Bft) N-NO 16 1 min 0,000 mm 1,4 UV-I 401 W/m 8,8 C 13,1 C 4,8 km/h (1 Bft) 100,00 %
05.11.2015 12:04 13,2 C 76 % 1022,9 hPa 0,0 l/m 1,5 km/h (1 Bft) N-NO 13 1 min 0,000 mm 1,4 UV-I 403 W/m 9,1 C 13,2 C 4,8 km/h (1 Bft) 100,00 %
05.11.2015 12:05 13,2 C 76 % 1022,9 hPa 0,0 l/m 2,6 km/h (1 Bft) N 11 1 min 0,000 mm 1,4 UV-I 403 W/m 9,1 C 13,2 C 4,8 km/h (1 Bft) 100,00 %
05.11.2015 12:06 13,2 C 75 % 1022,9 hPa 0,0 l/m 1,8 km/h (1 Bft) N-NW 327 1 min 0,000 mm 1,4 UV-I 403 W/m 8,9 C 13,2 C 3,2 km/h (1 Bft) 100,00 %
05.11.2015 12:07 13,3 C 78 % 1022,9 hPa 0,0 l/m 1,9 km/h (1 Bft) NW 308 1 min 0,000 mm 1,4 UV-I 401 W/m 9,5 C 13,3 C 4,8 km/h (1 Bft) 100,00 %
05.11.2015 12:08 13,3 C 75 % 1022,9 hPa 0,0 l/m 2,5 km/h (1 Bft) NW 311 1 min 0,000 mm 1,4 UV-I 403 W/m 9,0 C 13,3 C 4,8 km/h (1 Bft) 100,00 %
05.11.2015 12:09 13,4 C 76 % 1022,9 hPa 0,0 l/m 1,6 km/h (1 Bft) N-NO 17 1 min 0,000 mm 1,4 UV-I 402 W/m 9,3 C 13,4 C 3,2 km/h (1 Bft) 96,15 %
05.11.2015 12:10 13,4 C 76 % 1022,9 hPa 0,0 l/m 2,7 km/h (1 Bft) N 360 1 min 0,000 mm 1,4 UV-I 402 W/m 9,3 C 13,4 C 4,8 km/h (1 Bft) 100,00 %
05.11.2015 12:11 13,3 C 74 % 1022,9 hPa 0,0 l/m 2,4 km/h (1 Bft) N-NO 19 1 min 0,000 mm 1,4 UV-I 399 W/m 8,8 C 13,3 C 4,8 km/h (1 Bft) 96,15 %
05.11.2015 12:12 13,4 C 75 % 1022,9 hPa 0,0 l/m 2,7 km/h (1 Bft) N 9 1 min 0,000 mm 1,4 UV-I 399 W/m 9,1 C 13,4 C 4,8 km/h (1 Bft) 100,00 %
05.11.2015 12:13 13,4 C 78 % 1022,9 hPa 0,0 l/m 2,4 km/h (1 Bft) N-NW 333 1 min 0,000 mm 1,4 UV-I 401 W/m 9,6 C 13,4 C 4,8 km/h (1 Bft) 100,00 %
05.11.2015 12:14 13,4 C 75 % 1022,9 hPa 0,0 l/m 4,4 km/h (1 Bft) N-NO 19 1 min 0,000 mm 1,4 UV-I 402 W/m 9,1 C 13,4 C 8,0 km/h (2 Bft) 100,00 %
05.11.2015 12:15 13,4 C 74 % 1022,9 hPa 0,0 l/m 3,4 km/h (1 Bft) NO 34 1 min 0,000 mm 1,4 UV-I 402 W/m 8,9 C 13,4 C 4,8 km/h (1 Bft) 95,65 %
05.11.2015 12:16 13,4 C 75 % 1022,8 hPa 0,0 l/m 3,2 km/h (1 Bft) N 11 1 min 0,000 mm 1,4 UV-I 404 W/m 9,1 C 13,4 C 4,8 km/h (1 Bft) 100,00 %
05.11.2015 12:17 13,4 C 75 % 1022,8 hPa 0,0 l/m 1,1 km/h (1 Bft) N 9 1 min 0,000 mm 1,4 UV-I 403 W/m 9,1 C 13,4 C 3,2 km/h (1 Bft) 100,00 %
05.11.2015 12:18 13,5 C 77 % 1022,8 hPa 0,0 l/m 2,3 km/h (1 Bft) NO 54 1 min 0,000 mm 1,4 UV-I 401 W/m 9,5 C 13,5 C 3,2 km/h (1 Bft) 100,00 %
05.11.2015 12:19 13,6 C 76 % 1022,8 hPa 0,0 l/m 2,0 km/h (1 Bft) N 350 1 min 0,000 mm 1,4 UV-I 401 W/m 9,4 C 13,6 C 3,2 km/h (1 Bft) 100,00 %
05.11.2015 12:20 13,6 C 75 % 1022,8 hPa 0,0 l/m 2,5 km/h (1 Bft) W 274 1 min 0,000 mm 1,4 UV-I 401 W/m 9,3 C 13,6 C 6,4 km/h (2 Bft) 100,00 %
05.11.2015 12:21 13,6 C 74 % 1022,8 hPa 0,0 l/m 2,7 km/h (1 Bft) W 273 1 min 0,000 mm 1,4 UV-I 404 W/m 9,1 C 13,6 C 4,8 km/h (1 Bft) 100,00 %
05.11.2015 12:22 13,6 C 75 % 1022,7 hPa 0,0 l/m 1,8 km/h (1 Bft) W 259 1 min 0,000 mm 1,4 UV-I 401 W/m 9,3 C 13,6 C 3,2 km/h (1 Bft) 100,00 %
05.11.2015 12:23 13,7 C 75 % 1022,7 hPa 0,0 l/m 1,2 km/h (1 Bft) NO 44 1 min 0,000 mm 1,4 UV-I 397 W/m 9,3 C 13,7 C 3,2 km/h (1 Bft) 100,00 %
05.11.2015 12:24 13,8 C 76 % 1022,7 hPa 0,0 l/m 2,1 km/h (1 Bft) N 5 1 min 0,000 mm 1,4 UV-I 399 W/m 9,6 C 13,8 C 3,2 km/h (1 Bft) 100,00 %
05.11.2015 12:25 13,9 C 77 % 1022,7 hPa 0,0 l/m 0,0 km/h (0 Bft) N 5 1 min 0,000 mm 1,4 UV-I 399 W/m 9,9 C 13,9 C 0,0 km/h (0 Bft) 100,00 %
05.11.2015 12:26 14,0 C 76 % 1022,7 hPa 0,0 l/m 0,9 km/h (0 Bft) N-NW 346 1 min 0,000 mm 1,4 UV-I 400 W/m 9,8 C 14,0 C 1,6 km/h (1 Bft) 100,00 %
05.11.2015 12:27 14,0 C 73 % 1022,7 hPa 0,0 l/m 0,7 km/h (0 Bft) NO 44 1 min 0,000 mm 1,4 UV-I 398 W/m 9,2 C 14,0 C 1,6 km/h (1 Bft) 100,00 %
05.11.2015 12:28 13,9 C 72 % 1022,7 hPa 0,0 l/m 2,3 km/h (1 Bft) SW 235 1 min 0,000 mm 1,4 UV-I 397 W/m 8,9 C 13,9 C 3,2 km/h (1 Bft) 100,00 %
05.11.2015 12:29 13,9 C 76 % 1022,7 hPa 0,0 l/m 1,0 km/h (0 Bft) NO 40 1 min 0,000 mm 1,4 UV-I 397 W/m 9,7 C 13,9 C 1,6 km/h (1 Bft) 100,00 %
05.11.2015 12:30 14,0 C 75 % 1022,7 hPa 0,0 l/m 1,2 km/h (1 Bft) N-NO 22 1 min 0,000 mm 1,4 UV-I 397 W/m 9,6 C 14,0 C 3,2 km/h (1 Bft) 100,00 %
05.11.2015 12:31 13,9 C 73 % 1022,7 hPa 0,0 l/m 0,9 km/h (0 Bft) N-NO 23 1 min 0,000 mm 1,4 UV-I 395 W/m 9,1 C 13,9 C 3,2 km/h (1 Bft) 100,00 %
05.11.2015 12:32 14,0 C 74 % 1022,6 hPa 0,0 l/m 2,1 km/h (1 Bft) W 273 1 min 0,000 mm 1,4 UV-I 394 W/m 9,4 C 14,0 C 3,2 km/h (1 Bft) 100,00 %
05.11.2015 12:33 14,0 C 73 % 1022,6 hPa 0,0 l/m 0,7 km/h (0 Bft) W-SW 249 1 min 0,000 mm 1,4 UV-I 394 W/m 9,2 C 14,0 C 1,6 km/h (1 Bft) 100,00 %
05.11.2015 12:34 14,0 C 75 % 1022,7 hPa 0,0 l/m 1,4 km/h (1 Bft) NW 314 1 min 0,000 mm 1,4 UV-I 394 W/m 9,6 C 14,0 C 3,2 km/h (1 Bft) 100,00 %
05.11.2015 12:35 13,9 C 73 % 1022,7 hPa 0,0 l/m 0,9 km/h (0 Bft) NW 315 1 min 0,000 mm 1,3 UV-I 394 W/m 9,1 C 13,9 C 1,6 km/h (1 Bft) 100,00 %
05.11.2015 12:36 13,9 C 74 % 1022,6 hPa 0,0 l/m 2,4 km/h (1 Bft) W-NW 296 1 min 0,000 mm 1,3 UV-I 390 W/m 9,3 C 13,9 C 3,2 km/h (1 Bft) 100,00 %
05.11.2015 12:37 13,9 C 74 % 1022,6 hPa 0,0 l/m 3,0 km/h (1 Bft) W-NW 302 1 min 0,000 mm 1,3 UV-I 390 W/m 9,3 C 13,9 C 4,8 km/h (1 Bft) 100,00 %
05.11.2015 12:38 13,9 C 74 % 1022,6 hPa 0,0 l/m 3,5 km/h (1 Bft) W-NW 290 1 min 0,000 mm 1,3 UV-I 389 W/m 9,3 C 13,9 C 6,4 km/h (2 Bft) 100,00 %
05.11.2015 12:39 13,9 C 73 % 1022,6 hPa 0,0 l/m 0,6 km/h (0 Bft) N 5 1 min 0,000 mm 1,3 UV-I 388 W/m 9,1 C 13,9 C 1,6 km/h (1 Bft) 100,00 %
05.11.2015 12:40 13,9 C 73 % 1022,6 hPa 0,0 l/m 2,5 km/h (1 Bft) NW 326 1 min 0,000 mm 1,3 UV-I 387 W/m 9,1 C 13,9 C 4,8 km/h (1 Bft) 100,00 %
05.11.2015 12:41 13,9 C 72 % 1022,6 hPa 0,0 l/m 2,7 km/h (1 Bft) NW 305 1 min 0,000 mm 1,3 UV-I 387 W/m 8,9 C 13,9 C 4,8 km/h (1 Bft) 100,00 %
05.11.2015 12:42 13,9 C 73 % 1022,6 hPa 0,0 l/m 1,8 km/h (1 Bft) NW 305 1 min 0,000 mm 1,3 UV-I 387 W/m 9,1 C 13,9 C 3,2 km/h (1 Bft) 100,00 %
05.11.2015 12:43 14,0 C 73 % 1022,6 hPa 0,0 l/m 1,7 km/h (1 Bft) NW 305 1 min 0,000 mm 1,3 UV-I 388 W/m 9,2 C 14,0 C 3,2 km/h (1 Bft) 100,00 %
05.11.2015 12:44 14,1 C 74 % 1022,5 hPa 0,0 l/m 0,1 km/h (0 Bft) NW 305 1 min 0,000 mm 1,3 UV-I 384 W/m 9,5 C 14,1 C 1,6 km/h (1 Bft) 100,00 %
05.11.2015 12:45 14,2 C 72 % 1022,5 hPa 0,0 l/m 1,3 km/h (1 Bft) W 277 1 min 0,000 mm 1,3 UV-I 386 W/m 9,2 C 14,2 C 3,2 km/h (1 Bft) 100,00 %
05.11.2015 12:46 14,2 C 73 % 1022,5 hPa 0,0 l/m 2,0 km/h (1 Bft) N 5 1 min 0,000 mm 1,3 UV-I 387 W/m 9,4 C 14,2 C 6,4 km/h (2 Bft) 100,00 %
05.11.2015 12:47 14,2 C 73 % 1022,5 hPa 0,0 l/m 1,9 km/h (1 Bft) N 11 1 min 0,000 mm 1,3 UV-I 387 W/m 9,4 C 14,2 C 6,4 km/h (2 Bft) 100,00 %
05.11.2015 12:48 14,3 C 75 % 1022,5 hPa 0,0 l/m 2,1 km/h (1 Bft) NW 306 1 min 0,000 mm 1,3 UV-I 384 W/m 9,9 C 14,3 C 3,2 km/h (1 Bft) 100,00 %
05.11.2015 12:49 14,3 C 74 % 1022,5 hPa 0,0 l/m 2,3 km/h (1 Bft) N-NW 329 1 min 0,000 mm 1,3 UV-I 382 W/m 9,7 C 14,3 C 3,2 km/h (1 Bft) 95,65 %
05.11.2015 12:50 14,3 C 74 % 1022,4 hPa 0,0 l/m 2,8 km/h (1 Bft) N 5 1 min 0,000 mm 1,3 UV-I 385 W/m 9,7 C 14,3 C 4,8 km/h (1 Bft) 100,00 %
05.11.2015 12:51 14,3 C 73 % 1022,4 hPa 0,0 l/m 3,6 km/h (1 Bft) N-NO 13 1 min 0,000 mm 1,3 UV-I 384 W/m 9,5 C 14,3 C 4,8 km/h (1 Bft) 100,00 %
05.11.2015 12:52 14,3 C 73 % 1022,4 hPa 0,0 l/m 3,2 km/h (1 Bft) NO 35 1 min 0,000 mm 1,3 UV-I 383 W/m 9,5 C 14,3 C 4,8 km/h (1 Bft) 100,00 %
05.11.2015 12:53 14,3 C 72 % 1022,4 hPa 0,0 l/m 3,2 km/h (1 Bft) N 5 1 min 0,000 mm 1,3 UV-I 383 W/m 9,3 C 14,3 C 4,8 km/h (1 Bft) 100,00 %
05.11.2015 12:54 14,3 C 71 % 1022,4 hPa 0,0 l/m 2,7 km/h (1 Bft) W 261 1 min 0,000 mm 1,3 UV-I 380 W/m 9,1 C 14,3 C 3,2 km/h (1 Bft) 100,00 %
05.11.2015 12:55 14,3 C 73 % 1022,4 hPa 0,0 l/m 2,0 km/h (1 Bft) N-NW 340 1 min 0,000 mm 1,3 UV-I 381 W/m 9,5 C 14,3 C 3,2 km/h (1 Bft) 100,00 %
05.11.2015 12:56 14,3 C 73 % 1022,4 hPa 0,0 l/m 2,5 km/h (1 Bft) N 349 1 min 0,000 mm 1,3 UV-I 382 W/m 9,5 C 14,3 C 3,2 km/h (1 Bft) 100,00 %
05.11.2015 12:57 14,4 C 72 % 1022,3 hPa 0,0 l/m 1,9 km/h (1 Bft) NW 319 1 min 0,000 mm 1,3 UV-I 379 W/m 9,4 C 14,4 C 3,2 km/h (1 Bft) 96,15 %
05.11.2015 12:58 14,4 C 73 % 1022,3 hPa 0,0 l/m 0,7 km/h (0 Bft) NW 319 1 min 0,000 mm 1,3 UV-I 378 W/m 9,6 C 14,4 C 1,6 km/h (1 Bft) 95,83 %
05.11.2015 12:59 14,4 C 73 % 1022,4 hPa 0,0 l/m 1,1 km/h (1 Bft) N 355 1 min 0,000 mm 1,2 UV-I 376 W/m 9,6 C 14,4 C 3,2 km/h (1 Bft) 99,22 %
05.11.2015 13:00 14,4 C 74 % 1022,3 hPa 0,0 l/m 1,5 km/h (1 Bft) N 5 1 min 0,203 mm 1,2 UV-I 376 W/m 9,8 C 14,4 C 3,2 km/h (1 Bft) 100,00 %
05.11.2015 13:01 14,4 C 74 % 1022,3 hPa 0,0 l/m 3,5 km/h (1 Bft) N-NW 344 1 min 0,000 mm 1,2 UV-I 374 W/m 9,8 C 14,4 C 4,8 km/h (1 Bft) 100,00 %
05.11.2015 13:02 14,4 C 73 % 1022,2 hPa 0,0 l/m 4,0 km/h (1 Bft) W-NW 298 1 min 0,000 mm 1,2 UV-I 374 W/m 9,6 C 14,4 C 4,8 km/h (1 Bft) 88,46 %
05.11.2015 13:03 14,4 C 72 % 1022,2 hPa 0,0 l/m 2,3 km/h (1 Bft) W 277 1 min 0,000 mm 1,2 UV-I 372 W/m 9,4 C 14,4 C 3,2 km/h (1 Bft) 100,00 %
05.11.2015 13:04 14,4 C 72 % 1022,2 hPa 0,0 l/m 1,5 km/h (1 Bft) W 277 1 min 0,000 mm 1,2 UV-I 370 W/m 9,4 C 14,4 C 1,6 km/h (1 Bft) 100,00 %
05.11.2015 13:05 14,4 C 72 % 1022,2 hPa 0,0 l/m 1,4 km/h (1 Bft) W 277 1 min 0,000 mm 1,2 UV-I 371 W/m 9,4 C 14,4 C 3,2 km/h (1 Bft) 100,00 %
05.11.2015 13:06 14,4 C 72 % 1022,2 hPa 0,0 l/m 3,4 km/h (1 Bft) N 360 1 min 0,000 mm 1,2 UV-I 373 W/m 9,4 C 14,4 C 6,4 km/h (2 Bft) 100,00 %
05.11.2015 13:07 14,4 C 72 % 1022,2 hPa 0,0 l/m 2,1 km/h (1 Bft) NW 309 1 min 0,000 mm 1,2 UV-I 370 W/m 9,4 C 14,4 C 3,2 km/h (1 Bft) 100,00 %
05.11.2015 13:08 14,4 C 72 % 1022,2 hPa 0,0 l/m 2,1 km/h (1 Bft) W-NW 286 1 min 0,000 mm 1,2 UV-I 369 W/m 9,4 C 14,4 C 3,2 km/h (1 Bft) 100,00 %
05.11.2015 13:09 14,4 C 72 % 1022,2 hPa 0,0 l/m 2,1 km/h (1 Bft) N-NW 343 1 min 0,000 mm 1,2 UV-I 372 W/m 9,4 C 14,4 C 3,2 km/h (1 Bft) 95,83 %
05.11.2015 13:10 14,3 C 71 % 1022,1 hPa 0,0 l/m 3,6 km/h (1 Bft) W-NW 298 1 min 0,000 mm 1,2 UV-I 368 W/m 9,1 C 14,3 C 4,8 km/h (1 Bft) 100,00 %
05.11.2015 13:11 14,3 C 72 % 1022,1 hPa 0,0 l/m 3,0 km/h (1 Bft) W-NW 286 1 min 0,000 mm 1,2 UV-I 367 W/m 9,3 C 14,3 C 4,8 km/h (1 Bft) 100,00 %
05.11.2015 13:12 14,3 C 71 % 1022,1 hPa 0,0 l/m 3,0 km/h (1 Bft) N-NW 336 1 min 0,000 mm 1,2 UV-I 368 W/m 9,1 C 14,3 C 4,8 km/h (1 Bft) 100,00 %
05.11.2015 13:13 14,3 C 73 % 1022,1 hPa 0,0 l/m 1,7 km/h (1 Bft) N 5 1 min 0,000 mm 1,2 UV-I 368 W/m 9,5 C 14,3 C 3,2 km/h (1 Bft) 100,00 %
05.11.2015 13:14 14,4 C 72 % 1022,1 hPa 0,0 l/m 1,0 km/h (0 Bft) N-NO 13 1 min 0,000 mm 1,2 UV-I 364 W/m 9,4 C 14,4 C 3,2 km/h (1 Bft) 100,00 %
05.11.2015 13:15 14,4 C 73 % 1022,0 hPa 0,0 l/m 1,1 km/h (1 Bft) N-NO 13 1 min 0,000 mm 1,2 UV-I 362 W/m 9,6 C 14,4 C 1,6 km/h (1 Bft) 100,00 %
05.11.2015 13:16 14,4 C 72 % 1022,0 hPa 0,0 l/m 1,7 km/h (1 Bft) W-NW 294 1 min 0,000 mm 1,2 UV-I 360 W/m 9,4 C 14,4 C 3,2 km/h (1 Bft) 100,00 %
05.11.2015 13:17 14,4 C 71 % 1022,1 hPa 0,0 l/m 0,5 km/h (0 Bft) N-NW 336 1 min 0,000 mm 1,1 UV-I 360 W/m 9,2 C 14,4 C 1,6 km/h (1 Bft) 95,83 %
05.11.2015 13:18 14,6 C 73 % 1022,1 hPa 0,0 l/m 0,7 km/h (0 Bft) N-NW 336 1 min 0,000 mm 1,1 UV-I 359 W/m 9,8 C 14,6 C 1,6 km/h (1 Bft) 100,00 %
05.11.2015 13:19 14,6 C 72 % 1022,0 hPa 0,0 l/m 0,9 km/h (0 Bft) NW 321 1 min 0,000 mm 1,1 UV-I 360 W/m 9,6 C 14,6 C 3,2 km/h (1 Bft) 100,00 %
05.11.2015 13:20 14,6 C 72 % 1022,0 hPa 0,0 l/m 0,6 km/h (0 Bft) NW 321 1 min 0,000 mm 1,1 UV-I 358 W/m 9,6 C 14,6 C 1,6 km/h (1 Bft) 100,00 %
05.11.2015 13:21 14,6 C 71 % 1022,0 hPa 0,0 l/m 1,3 km/h (1 Bft) N 355 1 min 0,000 mm 1,1 UV-I 358 W/m 9,4 C 14,6 C 3,2 km/h (1 Bft) 100,00 %
05.11.2015 13:22 14,6 C 71 % 1022,0 hPa 0,0 l/m 1,4 km/h (1 Bft) N-NW 344 1 min 0,000 mm 1,1 UV-I 355 W/m 9,4 C 14,6 C 3,2 km/h (1 Bft) 100,00 %
05.11.2015 13:23 14,6 C 71 % 1022,0 hPa 0,0 l/m 2,1 km/h (1 Bft) W-NW 303 1 min 0,000 mm 1,1 UV-I 355 W/m 9,4 C 14,6 C 3,2 km/h (1 Bft) 100,00 %
05.11.2015 13:24 14,6 C 70 % 1022,1 hPa 0,0 l/m 2,7 km/h (1 Bft) N 355 1 min 0,000 mm 1,1 UV-I 353 W/m 9,2 C 14,6 C 4,8 km/h (1 Bft) 100,00 %
05.11.2015 13:25 14,6 C 72 % 1022,1 hPa 0,0 l/m 1,9 km/h (1 Bft) W 277 1 min 0,000 mm 1,1 UV-I 353 W/m 9,6 C 14,6 C 3,2 km/h (1 Bft) 100,00 %
05.11.2015 13:26 14,6 C 71 % 1022,1 hPa 0,0 l/m 2,1 km/h (1 Bft) W 279 1 min 0,000 mm 1,1 UV-I 351 W/m 9,4 C 14,6 C 4,8 km/h (1 Bft) 100,00 %
05.11.2015 13:27 14,6 C 72 % 1022,0 hPa 0,0 l/m 1,0 km/h (0 Bft) N-NW 334 1 min 0,000 mm 1,1 UV-I 348 W/m 9,6 C 14,6 C 1,6 km/h (1 Bft) 96,55 %
05.11.2015 13:28 14,7 C 72 % 1022,0 hPa 0,0 l/m 1,1 km/h (1 Bft) NW 325 1 min 0,000 mm 1,1 UV-I 346 W/m 9,7 C 14,7 C 3,2 km/h (1 Bft) 95,83 %
05.11.2015 13:29 14,7 C 72 % 1022,0 hPa 0,0 l/m 0,9 km/h (0 Bft) NW 323 1 min 0,000 mm 1,1 UV-I 345 W/m 9,7 C 14,7 C 1,6 km/h (1 Bft) 100,00 %
05.11.2015 13:30 14,7 C 70 % 1022,0 hPa 0,0 l/m 0,7 km/h (0 Bft) NW 323 1 min 0,000 mm 1,1 UV-I 342 W/m 9,3 C 14,7 C 1,6 km/h (1 Bft) 100,00 %
05.11.2015 13:31 14,7 C 69 % 1022,0 hPa 0,0 l/m 0,0 km/h (0 Bft) NW 323 1 min 0,000 mm 1,1 UV-I 340 W/m 9,1 C 14,7 C 0,0 km/h (0 Bft) 100,00 %
05.11.2015 13:32 14,8 C 71 % 1022,0 hPa 0,0 l/m 1,7 km/h (1 Bft) W 261 1 min 0,000 mm 1,0 UV-I 340 W/m 9,6 C 14,8 C 3,2 km/h (1 Bft) 100,00 %
05.11.2015 13:33 14,8 C 69 % 1022,0 hPa 0,0 l/m 3,6 km/h (1 Bft) W-NW 285 1 min 0,000 mm 1,0 UV-I 339 W/m 9,2 C 14,8 C 4,8 km/h (1 Bft) 96,15 %
05.11.2015 13:34 14,8 C 71 % 1022,0 hPa 0,0 l/m 2,0 km/h (1 Bft) N 11 1 min 0,000 mm 1,0 UV-I 342 W/m 9,6 C 14,8 C 3,2 km/h (1 Bft) 100,00 %
05.11.2015 13:35 14,8 C 71 % 1022,0 hPa 0,0 l/m 2,7 km/h (1 Bft) N 11 1 min 0,000 mm 1,0 UV-I 338 W/m 9,6 C 14,8 C 3,2 km/h (1 Bft) 100,00 %
05.11.2015 13:36 14,8 C 71 % 1022,0 hPa 0,0 l/m 1,7 km/h (1 Bft) N 11 1 min 0,000 mm 1,0 UV-I 337 W/m 9,6 C 14,8 C 3,2 km/h (1 Bft) 95,83 %
05.11.2015 13:37 14,8 C 69 % 1021,9 hPa 0,0 l/m 1,8 km/h (1 Bft) N-NO 13 1 min 0,000 mm 1,0 UV-I 335 W/m 9,2 C 14,8 C 4,8 km/h (1 Bft) 100,00 %
05.11.2015 13:38 14,8 C 69 % 1022,0 hPa 0,0 l/m 3,3 km/h (1 Bft) N 5 1 min 0,000 mm 1,0 UV-I 334 W/m 9,2 C 14,8 C 6,4 km/h (2 Bft) 100,00 %
05.11.2015 13:39 14,8 C 70 % 1021,9 hPa 0,0 l/m 2,7 km/h (1 Bft) N-NO 13 1 min 0,000 mm 1,0 UV-I 333 W/m 9,4 C 14,8 C 3,2 km/h (1 Bft) 100,00 %
05.11.2015 13:40 14,8 C 72 % 1021,9 hPa 0,0 l/m 1,9 km/h (1 Bft) N 5 1 min 0,000 mm 1,0 UV-I 330 W/m 9,8 C 14,8 C 3,2 km/h (1 Bft) 100,00 %
05.11.2015 13:41 14,8 C 70 % 1022,0 hPa 0,0 l/m 0,5 km/h (0 Bft) N 5 1 min 0,000 mm 1,0 UV-I 330 W/m 9,4 C 14,8 C 1,6 km/h (1 Bft) 100,00 %
05.11.2015 13:42 14,9 C 71 % 1021,9 hPa 0,0 l/m 0,0 km/h (0 Bft) N 5 1 min 0,000 mm 1,0 UV-I 330 W/m 9,7 C 14,9 C 0,0 km/h (0 Bft) 100,00 %
05.11.2015 13:43 15,1 C 71 % 1021,9 hPa 0,0 l/m 0,3 km/h (0 Bft) N 5 1 min 0,000 mm 1,0 UV-I 329 W/m 9,9 C 15,1 C 1,6 km/h (1 Bft) 100,00 %
05.11.2015 13:44 15,1 C 69 % 1021,9 hPa 0,0 l/m 0,7 km/h (0 Bft) N 5 1 min 0,000 mm 1,0 UV-I 328 W/m 9,5 C 15,1 C 1,6 km/h (1 Bft) 100,00 %
05.11.2015 13:45 15,2 C 68 % 1021,9 hPa 0,0 l/m 3,1 km/h (1 Bft) W-NW 294 1 min 0,000 mm 1,0 UV-I 324 W/m 9,3 C 15,2 C 4,8 km/h (1 Bft) 100,00 %
05.11.2015 13:46 15,2 C 67 % 1021,9 hPa 0,0 l/m 1,7 km/h (1 Bft) NW 306 1 min 0,000 mm 0,9 UV-I 325 W/m 9,1 C 15,2 C 3,2 km/h (1 Bft) 100,00 %
05.11.2015 13:47 15,2 C 68 % 1021,9 hPa 0,0 l/m 1,9 km/h (1 Bft) W-NW 288 1 min 0,000 mm 0,9 UV-I 324 W/m 9,3 C 15,2 C 3,2 km/h (1 Bft) 100,00 %
05.11.2015 13:48 15,2 C 69 % 1021,9 hPa 0,0 l/m 3,3 km/h (1 Bft) W 259 1 min 0,000 mm 0,9 UV-I 322 W/m 9,6 C 15,2 C 6,4 km/h (2 Bft) 100,00 %
05.11.2015 13:49 15,2 C 68 % 1021,8 hPa 0,0 l/m 2,8 km/h (1 Bft) W 266 1 min 0,000 mm 0,9 UV-I 321 W/m 9,3 C 15,2 C 4,8 km/h (1 Bft) 100,00 %
05.11.2015 13:50 15,2 C 67 % 1021,9 hPa 0,0 l/m 5,0 km/h (1 Bft) W-SW 240 1 min 0,000 mm 0,9 UV-I 319 W/m 9,1 C 15,2 C 6,4 km/h (2 Bft) 100,00 %
05.11.2015 13:51 15,2 C 67 % 1021,9 hPa 0,0 l/m 3,1 km/h (1 Bft) W-NW 292 1 min 0,000 mm 0,9 UV-I 318 W/m 9,1 C 15,2 C 4,8 km/h (1 Bft) 100,00 %
05.11.2015 13:52 15,2 C 68 % 1021,9 hPa 0,0 l/m 3,7 km/h (1 Bft) W-SW 249 1 min 0,000 mm 0,9 UV-I 315 W/m 9,3 C 15,2 C 6,4 km/h (2 Bft) 96,15 %
05.11.2015 13:53 15,2 C 67 % 1021,8 hPa 0,0 l/m 4,5 km/h (1 Bft) W-NW 284 1 min 0,000 mm 0,9 UV-I 314 W/m 9,1 C 15,2 C 6,4 km/h (2 Bft) 100,00 %
05.11.2015 13:54 15,2 C 68 % 1021,9 hPa 0,0 l/m 2,3 km/h (1 Bft) W-NW 291 1 min 0,000 mm 0,9 UV-I 312 W/m 9,3 C 15,2 C 4,8 km/h (1 Bft) 100,00 %
05.11.2015 13:55 15,3 C 68 % 1021,8 hPa 0,0 l/m 3,6 km/h (1 Bft) W 269 1 min 0,000 mm 0,9 UV-I 311 W/m 9,4 C 15,3 C 6,4 km/h (2 Bft) 100,00 %
05.11.2015 13:56 15,2 C 67 % 1021,9 hPa 0,0 l/m 5,6 km/h (1 Bft) NW 323 1 min 0,000 mm 0,9 UV-I 310 W/m 9,1 C 15,2 C 8,0 km/h (2 Bft) 100,00 %
05.11.2015 13:57 15,2 C 68 % 1021,8 hPa 0,0 l/m 3,0 km/h (1 Bft) W-NW 301 1 min 0,000 mm 0,8 UV-I 306 W/m 9,3 C 15,2 C 6,4 km/h (2 Bft) 100,00 %
05.11.2015 13:58 15,2 C 67 % 1021,8 hPa 0,0 l/m 4,0 km/h (1 Bft) W-NW 298 1 min 0,000 mm 0,8 UV-I 304 W/m 9,1 C 15,2 C 6,4 km/h (2 Bft) 100,00 %
05.11.2015 13:59 15,2 C 67 % 1021,8 hPa 0,0 l/m 2,4 km/h (1 Bft) W-NW 298 1 min 0,000 mm 0,8 UV-I 302 W/m 9,1 C 15,2 C 3,2 km/h (1 Bft) 99,23 %
05.11.2015 14:02 15,2 C 67 % 1021,8 hPa 0,0 l/m 3,2 km/h (1 Bft) W 270 3 min 0,178 mm 0,8 UV-I 297 W/m 9,1 C 15,2 C 4,8 km/h (1 Bft) 98,90 %
05.11.2015 14:03 15,2 C 67 % 1021,8 hPa 0,0 l/m 4,3 km/h (1 Bft) NW 308 1 min 0,000 mm 0,8 UV-I 297 W/m 9,1 C 15,2 C 6,4 km/h (2 Bft) 100,00 %
05.11.2015 14:04 15,2 C 68 % 1021,8 hPa 0,0 l/m 3,3 km/h (1 Bft) W-NW 290 1 min 0,000 mm 0,8 UV-I 295 W/m 9,3 C 15,2 C 6,4 km/h (2 Bft) 100,00 %
05.11.2015 14:05 15,2 C 68 % 1021,8 hPa 0,0 l/m 4,0 km/h (1 Bft) W 280 1 min 0,000 mm 0,8 UV-I 293 W/m 9,3 C 15,2 C 9,7 km/h (2 Bft) 100,00 %
05.11.2015 14:06 15,2 C 67 % 1021,8 hPa 0,0 l/m 3,8 km/h (1 Bft) W-NW 286 1 min 0,000 mm 0,8 UV-I 291 W/m 9,1 C 15,2 C 6,4 km/h (2 Bft) 100,00 %
05.11.2015 14:07 15,2 C 67 % 1021,8 hPa 0,0 l/m 2,7 km/h (1 Bft) W-NW 296 1 min 0,000 mm 0,8 UV-I 289 W/m 9,1 C 15,2 C 4,8 km/h (1 Bft) 100,00 %
05.11.2015 14:08 15,1 C 68 % 1021,8 hPa 0,0 l/m 1,9 km/h (1 Bft) SW 232 1 min 0,000 mm 0,7 UV-I 287 W/m 9,2 C 15,1 C 3,2 km/h (1 Bft) 100,00 %
05.11.2015 14:09 15,2 C 67 % 1021,8 hPa 0,0 l/m 3,1 km/h (1 Bft) W-NW 300 1 min 0,000 mm 0,7 UV-I 283 W/m 9,1 C 15,2 C 4,8 km/h (1 Bft) 96,00 %
05.11.2015 14:10 15,2 C 68 % 1021,8 hPa 0,0 l/m 1,9 km/h (1 Bft) W-NW 302 1 min 0,000 mm 0,7 UV-I 281 W/m 9,3 C 15,2 C 3,2 km/h (1 Bft) 100,00 %
05.11.2015 14:11 15,2 C 67 % 1021,8 hPa 0,0 l/m 4,3 km/h (1 Bft) N 5 1 min 0,000 mm 0,7 UV-I 279 W/m 9,1 C 15,2 C 6,4 km/h (2 Bft) 100,00 %
05.11.2015 14:12 15,2 C 68 % 1021,8 hPa 0,0 l/m 2,2 km/h (1 Bft) N 355 1 min 0,000 mm 0,7 UV-I 279 W/m 9,3 C 15,2 C 4,8 km/h (1 Bft) 100,00 %
05.11.2015 14:13 15,2 C 68 % 1021,9 hPa 0,0 l/m 2,3 km/h (1 Bft) N-NW 345 1 min 0,000 mm 0,7 UV-I 278 W/m 9,3 C 15,2 C 3,2 km/h (1 Bft) 100,00 %
05.11.2015 14:14 15,2 C 70 % 1021,8 hPa 0,0 l/m 2,4 km/h (1 Bft) N 11 1 min 0,000 mm 0,7 UV-I 275 W/m 9,8 C 15,2 C 4,8 km/h (1 Bft) 100,00 %
05.11.2015 14:15 15,2 C 70 % 1021,8 hPa 0,0 l/m 1,7 km/h (1 Bft) N-NW 344 1 min 0,000 mm 0,7 UV-I 272 W/m 9,8 C 15,2 C 3,2 km/h (1 Bft) 100,00 %
05.11.2015 14:16 15,1 C 68 % 1021,8 hPa 0,0 l/m 0,4 km/h (0 Bft) N-NW 344 1 min 0,000 mm 0,7 UV-I 271 W/m 9,2 C 15,1 C 1,6 km/h (1 Bft) 100,00 %
05.11.2015 14:17 15,1 C 70 % 1021,8 hPa 0,0 l/m 0,4 km/h (0 Bft) N-NW 344 1 min 0,000 mm 0,7 UV-I 268 W/m 9,7 C 15,1 C 1,6 km/h (1 Bft) 100,00 %
05.11.2015 14:18 15,1 C 69 % 1021,8 hPa 0,0 l/m 0,2 km/h (0 Bft) N-NW 344 1 min 0,000 mm 0,7 UV-I 267 W/m 9,5 C 15,1 C 1,6 km/h (1 Bft) 100,00 %
05.11.2015 14:19 15,1 C 68 % 1021,8 hPa 0,0 l/m 1,7 km/h (1 Bft) N-NW 344 1 min 0,000 mm 0,7 UV-I 267 W/m 9,2 C 15,1 C 3,2 km/h (1 Bft) 100,00 %
05.11.2015 14:20 15,1 C 69 % 1021,7 hPa 0,0 l/m 0,9 km/h (0 Bft) N-NO 20 1 min 0,000 mm 0,6 UV-I 265 W/m 9,5 C 15,1 C 3,2 km/h (1 Bft) 96,15 %
05.11.2015 14:21 15,1 C 69 % 1021,7 hPa 0,0 l/m 2,4 km/h (1 Bft) NO 55 1 min 0,000 mm 0,6 UV-I 264 W/m 9,5 C 15,1 C 3,2 km/h (1 Bft) 100,00 %
05.11.2015 14:22 15,2 C 70 % 1021,7 hPa 0,0 l/m 0,2 km/h (0 Bft) NO 55 1 min 0,000 mm 0,6 UV-I 261 W/m 9,8 C 15,2 C 1,6 km/h (1 Bft) 100,00 %
05.11.2015 14:23 15,1 C 69 % 1021,7 hPa 0,0 l/m 0,3 km/h (0 Bft) O-NO 76 1 min 0,000 mm 0,6 UV-I 257 W/m 9,5 C 15,1 C 1,6 km/h (1 Bft) 100,00 %
05.11.2015 14:24 15,2 C 70 % 1021,7 hPa 0,0 l/m 1,5 km/h (1 Bft) O-NO 63 1 min 0,000 mm 0,6 UV-I 258 W/m 9,8 C 15,2 C 3,2 km/h (1 Bft) 100,00 %
05.11.2015 14:25 15,2 C 68 % 1021,7 hPa 0,0 l/m 2,2 km/h (1 Bft) O 80 1 min 0,000 mm 0,6 UV-I 256 W/m 9,3 C 15,2 C 3,2 km/h (1 Bft) 100,00 %
05.11.2015 14:26 15,3 C 70 % 1021,7 hPa 0,0 l/m 1,0 km/h (0 Bft) O-NO 65 1 min 0,000 mm 0,6 UV-I 254 W/m 9,9 C 15,3 C 1,6 km/h (1 Bft) 99,24 %
05.11.2015 14:27 15,3 C 68 % 1021,8 hPa 0,0 l/m 1,1 km/h (1 Bft) N-NO 30 1 min 0,000 mm 0,6 UV-I 251 W/m 9,4 C 15,3 C 1,6 km/h (1 Bft) 100,00 %
05.11.2015 14:28 15,3 C 69 % 1021,8 hPa 0,0 l/m 1,3 km/h (1 Bft) N-NO 12 1 min 0,000 mm 0,6 UV-I 250 W/m 9,6 C 15,3 C 3,2 km/h (1 Bft) 95,65 %
05.11.2015 14:29 15,3 C 69 % 1021,8 hPa 0,0 l/m 2,2 km/h (1 Bft) N-NW 346 1 min 0,000 mm 0,6 UV-I 247 W/m 9,6 C 15,3 C 4,8 km/h (1 Bft) 100,00 %
05.11.2015 14:30 15,2 C 67 % 1021,8 hPa 0,0 l/m 1,6 km/h (1 Bft) N-NW 338 1 min 0,000 mm 0,6 UV-I 245 W/m 9,1 C 15,2 C 3,2 km/h (1 Bft) 100,00 %
05.11.2015 14:31 15,2 C 68 % 1021,8 hPa 0,0 l/m 2,3 km/h (1 Bft) W-NW 284 1 min 0,000 mm 0,6 UV-I 243 W/m 9,3 C 15,2 C 3,2 km/h (1 Bft) 100,00 %
05.11.2015 14:32 15,2 C 67 % 1021,8 hPa 0,0 l/m 2,2 km/h (1 Bft) W 267 1 min 0,000 mm 0,6 UV-I 241 W/m 9,1 C 15,2 C 3,2 km/h (1 Bft) 96,15 %
05.11.2015 14:33 15,1 C 67 % 1021,8 hPa 0,0 l/m 0,7 km/h (0 Bft) W 267 1 min 0,000 mm 0,5 UV-I 239 W/m 9,0 C 15,1 C 1,6 km/h (1 Bft) 100,00 %
05.11.2015 14:34 15,1 C 67 % 1021,8 hPa 0,0 l/m 1,1 km/h (1 Bft) W 267 1 min 0,000 mm 0,5 UV-I 237 W/m 9,0 C 15,1 C 3,2 km/h (1 Bft) 100,00 %
05.11.2015 14:35 15,1 C 67 % 1021,7 hPa 0,0 l/m 2,7 km/h (1 Bft) W-NW 293 1 min 0,000 mm 0,5 UV-I 235 W/m 9,0 C 15,1 C 4,8 km/h (1 Bft) 100,00 %
05.11.2015 14:36 15,1 C 67 % 1021,8 hPa 0,0 l/m 1,9 km/h (1 Bft) NW 321 1 min 0,000 mm 0,5 UV-I 233 W/m 9,0 C 15,1 C 4,8 km/h (1 Bft) 100,00 %
05.11.2015 14:37 15,1 C 69 % 1021,8 hPa 0,0 l/m 0,7 km/h (0 Bft) NW 321 1 min 0,000 mm 0,5 UV-I 230 W/m 9,5 C 15,1 C 1,6 km/h (1 Bft) 96,43 %
05.11.2015 14:38 15,1 C 70 % 1021,8 hPa 0,0 l/m 2,2 km/h (1 Bft) N 5 1 min 0,000 mm 0,5 UV-I 227 W/m 9,7 C 15,1 C 3,2 km/h (1 Bft) 100,00 %
05.11.2015 14:39 15,1 C 70 % 1021,8 hPa 0,0 l/m 3,4 km/h (1 Bft) N-NO 30 1 min 0,000 mm 0,5 UV-I 225 W/m 9,7 C 15,1 C 4,8 km/h (1 Bft) 100,00 %
05.11.2015 14:40 15,1 C 68 % 1021,8 hPa 0,0 l/m 2,7 km/h (1 Bft) N-NO 26 1 min 0,000 mm 0,5 UV-I 221 W/m 9,2 C 15,1 C 3,2 km/h (1 Bft) 100,00 %
05.11.2015 14:41 15,1 C 69 % 1021,8 hPa 0,0 l/m 2,5 km/h (1 Bft) N-NO 26 1 min 0,000 mm 0,5 UV-I 219 W/m 9,5 C 15,1 C 3,2 km/h (1 Bft) 100,00 %
05.11.2015 14:42 15,1 C 69 % 1021,7 hPa 0,0 l/m 1,3 km/h (1 Bft) NO 45 1 min 0,000 mm 0,5 UV-I 217 W/m 9,5 C 15,1 C 1,6 km/h (1 Bft) 100,00 %
05.11.2015 14:43 15,1 C 68 % 1021,7 hPa 0,0 l/m 1,3 km/h (1 Bft) NO 44 1 min 0,000 mm 0,5 UV-I 214 W/m 9,2 C 15,1 C 3,2 km/h (1 Bft) 95,83 %
05.11.2015 14:44 15,2 C 69 % 1021,8 hPa 0,0 l/m 0,7 km/h (0 Bft) NO 44 1 min 0,000 mm 0,5 UV-I 211 W/m 9,6 C 15,2 C 3,2 km/h (1 Bft) 100,00 %
05.11.2015 14:45 15,2 C 68 % 1021,7 hPa 0,0 l/m 0,7 km/h (0 Bft) NO 44 1 min 0,000 mm 0,5 UV-I 209 W/m 9,3 C 15,2 C 1,6 km/h (1 Bft) 100,00 %
05.11.2015 14:46 15,2 C 70 % 1021,6 hPa 0,0 l/m 0,1 km/h (0 Bft) NO 44 1 min 0,000 mm 0,0 UV-I 207 W/m 9,8 C 15,2 C 1,6 km/h (1 Bft) 100,00 %
05.11.2015 14:47 15,3 C 68 % 1021,6 hPa 0,0 l/m 0,1 km/h (0 Bft) NO 44 1 min 0,000 mm 0,0 UV-I 205 W/m 9,4 C 15,3 C 1,6 km/h (1 Bft) 100,00 %
05.11.2015 14:48 15,3 C 68 % 1021,7 hPa 0,0 l/m 0,9 km/h (0 Bft) NO 44 1 min 0,000 mm 0,0 UV-I 203 W/m 9,4 C 15,3 C 3,2 km/h (1 Bft) 100,00 %
05.11.2015 14:49 15,2 C 68 % 1021,7 hPa 0,0 l/m 0,8 km/h (0 Bft) NO 44 1 min 0,000 mm 0,0 UV-I 200 W/m 9,3 C 15,2 C 1,6 km/h (1 Bft) 100,00 %
05.11.2015 14:50 15,3 C 70 % 1021,6 hPa 0,0 l/m 0,3 km/h (0 Bft) N-NO 32 1 min 0,000 mm 0,0 UV-I 199 W/m 9,9 C 15,3 C 1,6 km/h (1 Bft) 100,00 %
05.11.2015 14:51 15,3 C 69 % 1021,7 hPa 0,0 l/m 2,6 km/h (1 Bft) N 11 1 min 0,000 mm 0,0 UV-I 197 W/m 9,6 C 15,3 C 3,2 km/h (1 Bft) 100,00 %
05.11.2015 14:52 15,2 C 67 % 1021,6 hPa 0,0 l/m 1,7 km/h (1 Bft) N 11 1 min 0,000 mm 0,0 UV-I 196 W/m 9,1 C 15,2 C 3,2 km/h (1 Bft) 95,83 %
05.11.2015 14:53 15,1 C 68 % 1021,6 hPa 0,0 l/m 1,0 km/h (0 Bft) N 11 1 min 0,000 mm 0,0 UV-I 192 W/m 9,2 C 15,1 C 1,6 km/h (1 Bft) 100,00 %
05.11.2015 14:54 15,1 C 69 % 1021,6 hPa 0,0 l/m 1,9 km/h (1 Bft) N-NO 13 1 min 0,000 mm 0,0 UV-I 191 W/m 9,5 C 15,1 C 3,2 km/h (1 Bft) 100,00 %
05.11.2015 14:55 15,1 C 69 % 1021,6 hPa 0,0 l/m 1,7 km/h (1 Bft) N-NO 28 1 min 0,000 mm 0,0 UV-I 188 W/m 9,5 C 15,1 C 3,2 km/h (1 Bft) 100,00 %
05.11.2015 14:56 15,1 C 68 % 1021,6 hPa 0,0 l/m 2,3 km/h (1 Bft) N-NO 18 1 min 0,000 mm 0,0 UV-I 186 W/m 9,2 C 15,1 C 3,2 km/h (1 Bft) 100,00 %
05.11.2015 14:57 15,1 C 68 % 1021,6 hPa 0,0 l/m 1,9 km/h (1 Bft) N-NO 18 1 min 0,000 mm 0,0 UV-I 183 W/m 9,2 C 15,1 C 3,2 km/h (1 Bft) 95,65 %
05.11.2015 14:58 15,1 C 67 % 1021,7 hPa 0,0 l/m 1,5 km/h (1 Bft) W-NW 301 1 min 0,000 mm 0,0 UV-I 180 W/m 9,0 C 15,1 C 3,2 km/h (1 Bft) 100,00 %
05.11.2015 14:59 15,1 C 67 % 1021,6 hPa 0,0 l/m 1,7 km/h (1 Bft) N 355 1 min 0,000 mm 0,0 UV-I 179 W/m 9,0 C 15,1 C 3,2 km/h (1 Bft) 100,00 %
05.11.2015 15:00 15,1 C 68 % 1021,7 hPa 0,0 l/m 1,5 km/h (1 Bft) NW 322 1 min 0,127 mm 0,0 UV-I 176 W/m 9,2 C 15,1 C 3,2 km/h (1 Bft) 100,00 %
05.11.2015 15:01 15,1 C 68 % 1021,7 hPa 0,0 l/m 1,0 km/h (0 Bft) N-NW 339 1 min 0,000 mm 0,0 UV-I 172 W/m 9,2 C 15,1 C 1,6 km/h (1 Bft) 100,00 %
05.11.2015 15:02 15,1 C 68 % 1021,7 hPa 0,0 l/m 2,2 km/h (1 Bft) W-NW 284 1 min 0,000 mm 0,0 UV-I 171 W/m 9,2 C 15,1 C 3,2 km/h (1 Bft) 100,00 %
05.11.2015 15:03 15,1 C 67 % 1021,7 hPa 0,0 l/m 0,6 km/h (0 Bft) W-NW 284 1 min 0,000 mm 0,0 UV-I 169 W/m 9,0 C 15,1 C 1,6 km/h (1 Bft) 100,00 %
05.11.2015 15:04 15,1 C 68 % 1021,7 hPa 0,0 l/m 0,2 km/h (0 Bft) W-NW 284 1 min 0,000 mm 0,0 UV-I 165 W/m 9,2 C 15,1 C 1,6 km/h (1 Bft) 100,00 %
05.11.2015 15:05 15,1 C 68 % 1021,6 hPa 0,0 l/m 1,0 km/h (0 Bft) NW 323 1 min 0,000 mm 0,0 UV-I 162 W/m 9,2 C 15,1 C 1,6 km/h (1 Bft) 100,00 %
05.11.2015 15:06 15,1 C 69 % 1021,6 hPa 0,0 l/m 0,6 km/h (0 Bft) N-NW 331 1 min 0,000 mm 0,0 UV-I 159 W/m 9,5 C 15,1 C 1,6 km/h (1 Bft) 100,00 %
05.11.2015 15:07 15,1 C 69 % 1021,6 hPa 0,0 l/m 0,1 km/h (0 Bft) N-NW 331 1 min 0,000 mm 0,0 UV-I 156 W/m 9,5 C 15,1 C 1,6 km/h (1 Bft) 100,00 %
05.11.2015 15:08 15,1 C 69 % 1021,6 hPa 0,0 l/m 1,9 km/h (1 Bft) N 351 1 min 0,000 mm 0,0 UV-I 153 W/m 9,5 C 15,1 C 3,2 km/h (1 Bft) 100,00 %
05.11.2015 15:09 15,0 C 68 % 1021,6 hPa 0,0 l/m 1,8 km/h (1 Bft) N 351 1 min 0,000 mm 0,0 UV-I 150 W/m 9,1 C 15,0 C 3,2 km/h (1 Bft) 100,00 %
05.11.2015 15:10 15,0 C 68 % 1021,6 hPa 0,0 l/m 0,4 km/h (0 Bft) N 351 1 min 0,000 mm 0,0 UV-I 149 W/m 9,1 C 15,0 C 1,6 km/h (1 Bft) 100,00 %
05.11.2015 15:11 15,0 C 68 % 1021,6 hPa 0,0 l/m 0,6 km/h (0 Bft) N 351 1 min 0,000 mm 0,0 UV-I 147 W/m 9,1 C 15,0 C 1,6 km/h (1 Bft) 100,00 %
05.11.2015 15:12 14,9 C 69 % 1021,6 hPa 0,0 l/m 2,3 km/h (1 Bft) N 351 1 min 0,000 mm 0,0 UV-I 144 W/m 9,3 C 14,9 C 3,2 km/h (1 Bft) 100,00 %
05.11.2015 15:13 14,9 C 69 % 1021,6 hPa 0,0 l/m 1,3 km/h (1 Bft) N 351 1 min 0,000 mm 0,0 UV-I 142 W/m 9,3 C 14,9 C 3,2 km/h (1 Bft) 91,67 %
05.11.2015 15:14 14,9 C 69 % 1021,6 hPa 0,0 l/m 1,5 km/h (1 Bft) N 351 1 min 0,000 mm 0,0 UV-I 139 W/m 9,3 C 14,9 C 1,6 km/h (1 Bft) 100,00 %
05.11.2015 15:15 14,9 C 70 % 1021,6 hPa 0,0 l/m 1,5 km/h (1 Bft) N 355 1 min 0,000 mm 0,0 UV-I 135 W/m 9,5 C 14,9 C 3,2 km/h (1 Bft) 95,83 %
05.11.2015 15:16 14,9 C 70 % 1021,6 hPa 0,0 l/m 1,3 km/h (1 Bft) N 355 1 min 0,000 mm 0,0 UV-I 133 W/m 9,5 C 14,9 C 1,6 km/h (1 Bft) 95,65 %
05.11.2015 15:17 14,8 C 71 % 1021,7 hPa 0,0 l/m 0,9 km/h (0 Bft) N 360 1 min 0,000 mm 0,0 UV-I 131 W/m 9,6 C 14,8 C 1,6 km/h (1 Bft) 100,00 %
05.11.2015 15:18 14,8 C 70 % 1021,7 hPa 0,0 l/m 3,0 km/h (1 Bft) N 10 1 min 0,000 mm 0,0 UV-I 129 W/m 9,4 C 14,8 C 3,2 km/h (1 Bft) 100,00 %
05.11.2015 15:19 14,8 C 69 % 1021,7 hPa 0,0 l/m 2,2 km/h (1 Bft) N 5 1 min 0,000 mm 0,0 UV-I 127 W/m 9,2 C 14,8 C 3,2 km/h (1 Bft) 100,00 %
05.11.2015 15:20 14,8 C 70 % 1021,7 hPa 0,0 l/m 1,1 km/h (1 Bft) N 5 1 min 0,000 mm 0,0 UV-I 123 W/m 9,4 C 14,8 C 3,2 km/h (1 Bft) 100,00 %
05.11.2015 15:21 14,8 C 69 % 1021,6 hPa 0,0 l/m 1,2 km/h (1 Bft) N 5 1 min 0,000 mm 0,0 UV-I 121 W/m 9,2 C 14,8 C 3,2 km/h (1 Bft) 100,00 %
05.11.2015 15:22 14,8 C 69 % 1021,7 hPa 0,0 l/m 1,4 km/h (1 Bft) N 5 1 min 0,000 mm 0,0 UV-I 119 W/m 9,2 C 14,8 C 3,2 km/h (1 Bft) 100,00 %
05.11.2015 15:23 14,8 C 70 % 1021,7 hPa 0,0 l/m 0,7 km/h (0 Bft) N 5 1 min 0,000 mm 0,0 UV-I 117 W/m 9,4 C 14,8 C 1,6 km/h (1 Bft) 100,00 %
05.11.2015 15:24 14,8 C 70 % 1021,7 hPa 0,0 l/m 1,7 km/h (1 Bft) N 9 1 min 0,000 mm 0,0 UV-I 115 W/m 9,4 C 14,8 C 3,2 km/h (1 Bft) 100,00 %
05.11.2015 15:25 14,8 C 70 % 1021,7 hPa 0,0 l/m 1,3 km/h (1 Bft) N 9 1 min 0,000 mm 0,0 UV-I 113 W/m 9,4 C 14,8 C 1,6 km/h (1 Bft) 100,00 %
05.11.2015 15:26 14,8 C 70 % 1021,7 hPa 0,0 l/m 1,2 km/h (1 Bft) N 9 1 min 0,000 mm 0,0 UV-I 111 W/m 9,4 C 14,8 C 1,6 km/h (1 Bft) 100,00 %
05.11.2015 15:27 14,8 C 70 % 1021,7 hPa 0,0 l/m 0,3 km/h (0 Bft) N 9 1 min 0,000 mm 0,0 UV-I 108 W/m 9,4 C 14,8 C 1,6 km/h (1 Bft) 95,65 %
05.11.2015 15:28 14,7 C 72 % 1021,7 hPa 0,0 l/m 1,4 km/h (1 Bft) N 9 1 min 0,000 mm 0,0 UV-I 105 W/m 9,7 C 14,7 C 3,2 km/h (1 Bft) 100,00 %
05.11.2015 15:29 14,7 C 70 % 1021,7 hPa 0,0 l/m 1,0 km/h (0 Bft) N 9 1 min 0,000 mm 0,0 UV-I 103 W/m 9,3 C 14,7 C 1,6 km/h (1 Bft) 100,00 %
05.11.2015 15:30 14,7 C 70 % 1021,7 hPa 0,0 l/m 1,1 km/h (1 Bft) N 9 1 min 0,000 mm 0,0 UV-I 100 W/m 9,3 C 14,7 C 1,6 km/h (1 Bft) 100,00 %
05.11.2015 15:31 14,7 C 70 % 1021,6 hPa 0,0 l/m 2,0 km/h (1 Bft) N-NO 26 1 min 0,000 mm 0,0 UV-I 98 W/m 9,3 C 14,7 C 4,8 km/h (1 Bft) 100,00 %
05.11.2015 15:32 14,8 C 70 % 1021,6 hPa 0,0 l/m 1,7 km/h (1 Bft) N-NO 27 1 min 0,000 mm 0,0 UV-I 97 W/m 9,4 C 14,8 C 3,2 km/h (1 Bft) 100,00 %
05.11.2015 15:33 14,8 C 70 % 1021,6 hPa 0,0 l/m 1,9 km/h (1 Bft) N-NO 27 1 min 0,000 mm 0,0 UV-I 94 W/m 9,4 C 14,8 C 3,2 km/h (1 Bft) 100,00 %
05.11.2015 15:34 14,8 C 70 % 1021,6 hPa 0,0 l/m 1,9 km/h (1 Bft) NO 36 1 min 0,000 mm 0,0 UV-I 92 W/m 9,4 C 14,8 C 3,2 km/h (1 Bft) 100,00 %
05.11.2015 15:35 14,7 C 69 % 1021,6 hPa 0,0 l/m 2,2 km/h (1 Bft) N-NO 24 1 min 0,000 mm 0,0 UV-I 90 W/m 9,1 C 14,7 C 3,2 km/h (1 Bft) 97,56 %
05.11.2015 15:36 14,7 C 69 % 1021,6 hPa 0,0 l/m 2,1 km/h (1 Bft) N-NO 28 1 min 0,000 mm 0,0 UV-I 87 W/m 9,1 C 14,7 C 3,2 km/h (1 Bft) 95,83 %
05.11.2015 15:37 14,7 C 70 % 1021,6 hPa 0,0 l/m 1,1 km/h (1 Bft) N-NO 28 1 min 0,000 mm 0,0 UV-I 84 W/m 9,3 C 14,7 C 3,2 km/h (1 Bft) 100,00 %
05.11.2015 15:38 14,7 C 69 % 1021,6 hPa 0,0 l/m 0,1 km/h (0 Bft) N-NO 28 1 min 0,000 mm 0,0 UV-I 83 W/m 9,1 C 14,7 C 1,6 km/h (1 Bft) 100,00 %
05.11.2015 15:39 14,7 C 70 % 1021,6 hPa 0,0 l/m 1,0 km/h (0 Bft) N 11 1 min 0,000 mm 0,0 UV-I 80 W/m 9,3 C 14,7 C 3,2 km/h (1 Bft) 100,00 %
05.11.2015 15:40 14,7 C 70 % 1021,7 hPa 0,0 l/m 1,8 km/h (1 Bft) N 9 1 min 0,000 mm 0,0 UV-I 78 W/m 9,3 C 14,7 C 3,2 km/h (1 Bft) 100,00 %
05.11.2015 15:41 14,8 C 69 % 1021,6 hPa 0,0 l/m 2,3 km/h (1 Bft) N-NO 22 1 min 0,000 mm 0,0 UV-I 76 W/m 9,2 C 14,8 C 3,2 km/h (1 Bft) 100,00 %
05.11.2015 15:42 14,8 C 70 % 1021,6 hPa 0,0 l/m 1,3 km/h (1 Bft) N-NO 22 1 min 0,000 mm 0,0 UV-I 74 W/m 9,4 C 14,8 C 1,6 km/h (1 Bft) 100,00 %
05.11.2015 15:43 14,7 C 70 % 1021,7 hPa 0,0 l/m 1,5 km/h (1 Bft) N-NO 22 0 min 0,000 mm 0,0 UV-I 72 W/m 9,3 C 14,7 C 3,2 km/h (1 Bft) 100,00 %
05.11.2015 15:44 14,7 C 70 % 1021,6 hPa 0,0 l/m 1,5 km/h (1 Bft) N 360 0 min 0,000 mm 0,0 UV-I 70 W/m 9,3 C 14,7 C 3,2 km/h (1 Bft) 100,00 %
05.11.2015 15:45 14,7 C 69 % 1021,6 hPa 0,0 l/m 0,7 km/h (0 Bft) N 360 0 min 0,000 mm 0,0 UV-I 68 W/m 9,1 C 14,7 C 1,6 km/h (1 Bft) 100,00 %
05.11.2015 15:46 14,6 C 71 % 1021,6 hPa 0,0 l/m 0,6 km/h (0 Bft) N 360 0 min 0,000 mm 0,0 UV-I 66 W/m 9,4 C 14,6 C 1,6 km/h (1 Bft) 100,00 %
05.11.2015 15:47 14,6 C 70 % 1021,7 hPa 0,0 l/m 1,0 km/h (0 Bft) N 360 0 min 0,000 mm 0,0 UV-I 64 W/m 9,2 C 14,6 C 3,2 km/h (1 Bft) 100,00 %
05.11.2015 15:48 14,6 C 70 % 1021,7 hPa 0,0 l/m 1,1 km/h (1 Bft) N 360 0 min 0,000 mm 0,0 UV-I 62 W/m 9,2 C 14,6 C 1,6 km/h (1 Bft) 100,00 %
05.11.2015 15:49 14,6 C 70 % 1021,7 hPa 0,0 l/m 1,1 km/h (1 Bft) N 360 0 min 0,000 mm 0,0 UV-I 60 W/m 9,2 C 14,6 C 3,2 km/h (1 Bft) 95,83 %
05.11.2015 15:50 14,6 C 70 % 1021,7 hPa 0,0 l/m 0,0 km/h (0 Bft) N 360 0 min 0,000 mm 0,0 UV-I 59 W/m 9,2 C 14,6 C 0,0 km/h (0 Bft) 100,00 %
05.11.2015 15:51 14,6 C 70 % 1021,7 hPa 0,0 l/m 0,2 km/h (0 Bft) N 360 0 min 0,000 mm 0,0 UV-I 55 W/m 9,2 C 14,6 C 1,6 km/h (1 Bft) 100,00 %
05.11.2015 15:52 14,6 C 69 % 1021,7 hPa 0,0 l/m 0,0 km/h (0 Bft) N 360 0 min 0,000 mm 0,0 UV-I 53 W/m 9,0 C 14,6 C 0,0 km/h (0 Bft) 100,00 %
05.11.2015 15:53 14,6 C 70 % 1021,7 hPa 0,0 l/m 0,0 km/h (0 Bft) N 360 0 min 0,000 mm 0,0 UV-I 52 W/m 9,2 C 14,6 C 0,0 km/h (0 Bft) 100,00 %
05.11.2015 15:54 14,6 C 69 % 1021,7 hPa 0,0 l/m 0,5 km/h (0 Bft) N 360 0 min 0,000 mm 0,0 UV-I 49 W/m 9,0 C 14,6 C 1,6 km/h (1 Bft) 100,00 %
05.11.2015 15:55 14,6 C 69 % 1021,7 hPa 0,0 l/m 0,1 km/h (0 Bft) N 360 0 min 0,000 mm 0,0 UV-I 47 W/m 9,0 C 14,6 C 1,6 km/h (1 Bft) 100,00 %
05.11.2015 15:56 14,6 C 70 % 1021,7 hPa 0,0 l/m 0,3 km/h (0 Bft) N 360 0 min 0,000 mm 0,0 UV-I 46 W/m 9,2 C 14,6 C 1,6 km/h (1 Bft) 100,00 %
05.11.2015 15:57 14,6 C 69 % 1021,7 hPa 0,0 l/m 0,1 km/h (0 Bft) N 360 0 min 0,000 mm 0,0 UV-I 45 W/m 9,0 C 14,6 C 1,6 km/h (1 Bft) 100,00 %
05.11.2015 15:58 14,6 C 69 % 1021,7 hPa 0,0 l/m 0,0 km/h (0 Bft) N 360 0 min 0,000 mm 0,0 UV-I 43 W/m 9,0 C 14,6 C 0,0 km/h (0 Bft) 100,00 %
05.11.2015 15:59 14,6 C 69 % 1021,7 hPa 0,0 l/m 0,5 km/h (0 Bft) N 360 0 min 0,000 mm 0,0 UV-I 41 W/m 9,0 C 14,6 C 1,6 km/h (1 Bft) 100,00 %
05.11.2015 16:00 14,6 C 69 % 1021,8 hPa 0,0 l/m 0,5 km/h (0 Bft) N 360 0 min 0,000 mm 0,0 UV-I 40 W/m 9,0 C 14,6 C 1,6 km/h (1 Bft) 100,00 %
05.11.2015 16:01 14,6 C 70 % 1021,8 hPa 0,0 l/m 0,1 km/h (0 Bft) N 360 0 min 0,050 mm 0,0 UV-I 39 W/m 9,2 C 14,6 C 1,6 km/h (1 Bft) 97,37 %
05.11.2015 16:02 14,6 C 70 % 1021,8 hPa 0,0 l/m 0,1 km/h (0 Bft) N 360 0 min 0,000 mm 0,0 UV-I 36 W/m 9,2 C 14,6 C 1,6 km/h (1 Bft) 100,00 %
05.11.2015 16:03 14,6 C 69 % 1021,8 hPa 0,0 l/m 0,0 km/h (0 Bft) N 360 0 min 0,000 mm 0,0 UV-I 35 W/m 9,0 C 14,6 C 0,0 km/h (0 Bft) 95,83 %
05.11.2015 16:04 14,6 C 70 % 1021,7 hPa 0,0 l/m 0,0 km/h (0 Bft) N 360 0 min 0,000 mm 0,0 UV-I 34 W/m 9,2 C 14,6 C 0,0 km/h (0 Bft) 100,00 %
05.11.2015 16:05 14,4 C 72 % 1021,8 hPa 0,0 l/m 0,0 km/h (0 Bft) N 360 0 min 0,000 mm 0,0 UV-I 33 W/m 9,4 C 14,4 C 0,0 km/h (0 Bft) 100,00 %
05.11.2015 16:06 14,1 C 73 % 1021,7 hPa 0,0 l/m 0,0 km/h (0 Bft) N 360 0 min 0,000 mm 0,0 UV-I 32 W/m 9,3 C 14,1 C 0,0 km/h (0 Bft) 100,00 %
05.11.2015 16:07 13,7 C 74 % 1021,7 hPa 0,0 l/m 0,8 km/h (0 Bft) O-NO 63 0 min 0,000 mm 0,0 UV-I 30 W/m 9,2 C 13,7 C 3,2 km/h (1 Bft) 100,00 %
05.11.2015 16:08 13,3 C 76 % 1021,7 hPa 0,0 l/m 1,9 km/h (1 Bft) O-NO 73 0 min 0,000 mm 0,0 UV-I 29 W/m 9,2 C 13,3 C 3,2 km/h (1 Bft) 100,00 %
05.11.2015 16:09 12,9 C 77 % 1021,7 hPa 0,0 l/m 2,3 km/h (1 Bft) O 95 0 min 0,000 mm 0,0 UV-I 28 W/m 9,0 C 12,9 C 3,2 km/h (1 Bft) 100,00 %
05.11.2015 16:10 12,6 C 79 % 1021,7 hPa 0,0 l/m 1,8 km/h (1 Bft) O 95 0 min 0,000 mm 0,0 UV-I 27 W/m 9,1 C 12,6 C 3,2 km/h (1 Bft) 100,00 %
05.11.2015 16:11 12,4 C 79 % 1021,7 hPa 0,0 l/m 1,8 km/h (1 Bft) O 95 0 min 0,000 mm 0,0 UV-I 26 W/m 8,9 C 12,4 C 3,2 km/h (1 Bft) 100,00 %
05.11.2015 16:12 12,2 C 80 % 1021,7 hPa 0,0 l/m 2,1 km/h (1 Bft) O 95 0 min 0,000 mm 0,0 UV-I 25 W/m 8,9 C 12,2 C 3,2 km/h (1 Bft) 100,00 %
05.11.2015 16:13 12,2 C 81 % 1021,7 hPa 0,0 l/m 1,6 km/h (1 Bft) O 95 0 min 0,000 mm 0,0 UV-I 25 W/m 9,0 C 12,2 C 3,2 km/h (1 Bft) 100,00 %
05.11.2015 16:14 12,1 C 81 % 1021,7 hPa 0,0 l/m 1,6 km/h (1 Bft) O 95 0 min 0,000 mm 0,0 UV-I 23 W/m 8,9 C 12,1 C 1,6 km/h (1 Bft) 100,00 %
05.11.2015 16:15 11,9 C 81 % 1021,7 hPa 0,0 l/m 1,9 km/h (1 Bft) O 95 0 min 0,000 mm 0,0 UV-I 22 W/m 8,7 C 11,9 C 3,2 km/h (1 Bft) 100,00 %
05.11.2015 16:16 11,8 C 82 % 1021,7 hPa 0,0 l/m 1,7 km/h (1 Bft) O 95 0 min 0,000 mm 0,0 UV-I 21 W/m 8,8 C 11,8 C 3,2 km/h (1 Bft) 100,00 %
05.11.2015 16:17 11,8 C 82 % 1021,7 hPa 0,0 l/m 1,4 km/h (1 Bft) O 95 0 min 0,000 mm 0,0 UV-I 20 W/m 8,8 C 11,8 C 1,6 km/h (1 Bft) 100,00 %
05.11.2015 16:18 11,7 C 82 % 1021,7 hPa 0,0 l/m 1,2 km/h (1 Bft) O 95 0 min 0,000 mm 0,0 UV-I 19 W/m 8,7 C 11,7 C 1,6 km/h (1 Bft) 100,00 %
05.11.2015 16:19 11,7 C 82 % 1021,7 hPa 0,0 l/m 0,8 km/h (0 Bft) O 95 0 min 0,000 mm 0,0 UV-I 18 W/m 8,7 C 11,7 C 1,6 km/h (1 Bft) 100,00 %
05.11.2015 16:20 11,7 C 83 % 1021,8 hPa 0,0 l/m 0,7 km/h (0 Bft) O 95 0 min 0,000 mm 0,0 UV-I 18 W/m 8,9 C 11,7 C 1,6 km/h (1 Bft) 100,00 %
05.11.2015 16:21 11,6 C 83 % 1021,8 hPa 0,0 l/m 0,5 km/h (0 Bft) O 95 0 min 0,000 mm 0,0 UV-I 17 W/m 8,8 C 11,6 C 1,6 km/h (1 Bft) 100,00 %
05.11.2015 16:22 11,5 C 83 % 1021,8 hPa 0,0 l/m 0,1 km/h (0 Bft) O 95 0 min 0,000 mm 0,0 UV-I 16 W/m 8,7 C 11,5 C 1,6 km/h (1 Bft) 95,65 %
05.11.2015 16:23 11,4 C 84 % 1021,8 hPa 0,0 l/m 0,6 km/h (0 Bft) O 95 0 min 0,000 mm 0,0 UV-I 16 W/m 8,8 C 11,4 C 1,6 km/h (1 Bft) 95,83 %
05.11.2015 16:24 11,4 C 84 % 1021,8 hPa 0,0 l/m 1,0 km/h (0 Bft) O 95 0 min 0,000 mm 0,0 UV-I 14 W/m 8,8 C 11,4 C 1,6 km/h (1 Bft) 100,00 %
05.11.2015 16:25 11,3 C 84 % 1021,8 hPa 0,0 l/m 1,6 km/h (1 Bft) O 95 1 min 0,000 mm 0,0 UV-I 14 W/m 8,7 C 11,3 C 3,2 km/h (1 Bft) 91,67 %
05.11.2015 16:26 11,3 C 85 % 1021,8 hPa 0,0 l/m 2,0 km/h (1 Bft) O 95 1 min 0,000 mm 0,0 UV-I 13 W/m 8,9 C 11,3 C 3,2 km/h (1 Bft) 100,00 %
05.11.2015 16:27 11,3 C 85 % 1021,8 hPa 0,0 l/m 2,1 km/h (1 Bft) O 95 1 min 0,000 mm 0,0 UV-I 12 W/m 8,9 C 11,3 C 3,2 km/h (1 Bft) 100,00 %
05.11.2015 16:28 11,2 C 85 % 1021,8 hPa 0,0 l/m 0,3 km/h (0 Bft) O 95 1 min 0,000 mm 0,0 UV-I 12 W/m 8,8 C 11,2 C 1,6 km/h (1 Bft) 100,00 %
05.11.2015 16:29 11,1 C 85 % 1021,8 hPa 0,0 l/m 0,9 km/h (0 Bft) O 95 0 min 0,000 mm 0,0 UV-I 11 W/m 8,7 C 11,1 C 1,6 km/h (1 Bft) 100,00 %
05.11.2015 16:30 11,1 C 86 % 1021,8 hPa 0,0 l/m 1,4 km/h (1 Bft) O 95 0 min 0,000 mm 0,0 UV-I 11 W/m 8,8 C 11,1 C 1,6 km/h (1 Bft) 100,00 %
05.11.2015 16:31 11,0 C 85 % 1021,8 hPa 0,0 l/m 0,2 km/h (0 Bft) O 95 0 min 0,000 mm 0,0 UV-I 11 W/m 8,6 C 11,0 C 1,6 km/h (1 Bft) 100,00 %
05.11.2015 16:32 11,0 C 86 % 1021,8 hPa 0,0 l/m 0,1 km/h (0 Bft) O 95 0 min 0,000 mm 0,0 UV-I 10 W/m 8,7 C 11,0 C 1,6 km/h (1 Bft) 100,00 %
05.11.2015 16:33 10,9 C 86 % 1021,8 hPa 0,0 l/m 0,0 km/h (0 Bft) O 95 0 min 0,000 mm 0,0 UV-I 9 W/m 8,7 C 10,9 C 0,0 km/h (0 Bft) 100,00 %
05.11.2015 16:34 10,9 C 86 % 1021,8 hPa 0,0 l/m 0,0 km/h (0 Bft) O 95 0 min 0,000 mm 0,0 UV-I 9 W/m 8,7 C 10,9 C 0,0 km/h (0 Bft) 100,00 %
05.11.2015 16:35 10,8 C 86 % 1021,8 hPa 0,0 l/m 0,0 km/h (0 Bft) O 95 0 min 0,000 mm 0,0 UV-I 7 W/m 8,6 C 10,8 C 0,0 km/h (0 Bft) 100,00 %
05.11.2015 16:36 10,7 C 86 % 1021,9 hPa 0,0 l/m 0,0 km/h (0 Bft) O 95 0 min 0,000 mm 0,0 UV-I 7 W/m 8,5 C 10,7 C 0,0 km/h (0 Bft) 96,15 %
05.11.2015 16:37 10,7 C 87 % 1021,9 hPa 0,0 l/m 0,0 km/h (0 Bft) O 95 0 min 0,000 mm 0,0 UV-I 7 W/m 8,6 C 10,7 C 0,0 km/h (0 Bft) 100,00 %
05.11.2015 16:38 10,6 C 87 % 1021,9 hPa 0,0 l/m 1,5 km/h (1 Bft) O 95 0 min 0,000 mm 0,0 UV-I 7 W/m 8,5 C 10,6 C 3,2 km/h (1 Bft) 100,00 %
05.11.2015 16:39 10,6 C 87 % 1021,9 hPa 0,0 l/m 1,5 km/h (1 Bft) O 95 0 min 0,000 mm 0,0 UV-I 6 W/m 8,5 C 10,6 C 1,6 km/h (1 Bft) 100,00 %
05.11.2015 16:40 10,6 C 87 % 1021,9 hPa 0,0 l/m 1,5 km/h (1 Bft) O 95 0 min 0,000 mm 0,0 UV-I 5 W/m 8,5 C 10,6 C 1,6 km/h (1 Bft) 100,00 %
05.11.2015 16:41 10,6 C 87 % 1021,9 hPa 0,0 l/m 1,4 km/h (1 Bft) O 95 0 min 0,000 mm 0,0 UV-I 5 W/m 8,5 C 10,6 C 1,6 km/h (1 Bft) 100,00 %
05.11.2015 16:42 10,6 C 87 % 1021,9 hPa 0,0 l/m 1,6 km/h (1 Bft) O 95 0 min 0,000 mm 0,0 UV-I 5 W/m 8,5 C 10,6 C 1,6 km/h (1 Bft) 100,00 %
05.11.2015 16:43 10,6 C 87 % 1021,9 hPa 0,0 l/m 1,5 km/h (1 Bft) O 95 0 min 0,000 mm 0,0 UV-I 5 W/m 8,5 C 10,6 C 1,6 km/h (1 Bft) 100,00 %
05.11.2015 16:44 10,7 C 87 % 1021,9 hPa 0,0 l/m 1,7 km/h (1 Bft) O 95 0 min 0,000 mm 0,0 UV-I 5 W/m 8,6 C 10,7 C 3,2 km/h (1 Bft) 100,00 %
05.11.2015 16:45 10,8 C 87 % 1021,9 hPa 0,0 l/m 2,0 km/h (1 Bft) O 95 0 min 0,000 mm 0,0 UV-I 2 W/m 8,7 C 10,8 C 3,2 km/h (1 Bft) 100,00 %
05.11.2015 16:46 10,8 C 86 % 1022,0 hPa 0,0 l/m 1,7 km/h (1 Bft) O 95 0 min 0,000 mm 0,0 UV-I 0 W/m 8,6 C 10,8 C 3,2 km/h (1 Bft) 100,00 %
05.11.2015 16:47 10,8 C 86 % 1021,9 hPa 0,0 l/m 2,1 km/h (1 Bft) O 95 0 min 0,000 mm 0,0 UV-I 0 W/m 8,6 C 10,8 C 3,2 km/h (1 Bft) 100,00 %
05.11.2015 16:48 10,9 C 86 % 1021,9 hPa 0,0 l/m 1,9 km/h (1 Bft) O 95 0 min 0,000 mm 0,0 UV-I 0 W/m 8,7 C 10,9 C 3,2 km/h (1 Bft) 100,00 %
05.11.2015 16:49 10,9 C 86 % 1021,9 hPa 0,0 l/m 2,1 km/h (1 Bft) O 95 0 min 0,000 mm 0,0 UV-I 0 W/m 8,7 C 10,9 C 3,2 km/h (1 Bft) 100,00 %
05.11.2015 16:50 10,9 C 85 % 1021,9 hPa 0,0 l/m 2,4 km/h (1 Bft) O 95 0 min 0,000 mm 0,0 UV-I 0 W/m 8,5 C 10,9 C 3,2 km/h (1 Bft) 100,00 %
05.11.2015 16:51 10,9 C 85 % 1022,0 hPa 0,0 l/m 2,6 km/h (1 Bft) O 95 0 min 0,000 mm 0,0 UV-I 0 W/m 8,5 C 10,9 C 3,2 km/h (1 Bft) 100,00 %
05.11.2015 16:52 10,9 C 85 % 1021,9 hPa 0,0 l/m 2,3 km/h (1 Bft) O 95 0 min 0,000 mm 0,0 UV-I 0 W/m 8,5 C 10,9 C 3,2 km/h (1 Bft) 100,00 %
05.11.2015 16:53 10,8 C 85 % 1022,0 hPa 0,0 l/m 2,3 km/h (1 Bft) O 95 0 min 0,000 mm 0,0 UV-I 0 W/m 8,4 C 10,8 C 3,2 km/h (1 Bft) 100,00 %
05.11.2015 16:54 10,7 C 86 % 1022,0 hPa 0,0 l/m 2,0 km/h (1 Bft) O 95 0 min 0,000 mm 0,0 UV-I 0 W/m 8,5 C 10,7 C 3,2 km/h (1 Bft) 100,00 %
05.11.2015 16:55 10,6 C 86 % 1022,0 hPa 0,0 l/m 2,4 km/h (1 Bft) O 95 0 min 0,000 mm 0,0 UV-I 0 W/m 8,4 C 10,6 C 3,2 km/h (1 Bft) 100,00 %
05.11.2015 16:56 10,5 C 86 % 1022,0 hPa 0,0 l/m 2,5 km/h (1 Bft) O 95 0 min 0,000 mm 0,0 UV-I 0 W/m 8,3 C 10,5 C 3,2 km/h (1 Bft) 100,00 %
05.11.2015 16:57 10,4 C 87 % 1022,0 hPa 0,0 l/m 2,4 km/h (1 Bft) O 95 0 min 0,000 mm 0,0 UV-I 0 W/m 8,3 C 10,4 C 3,2 km/h (1 Bft) 100,00 %
05.11.2015 16:58 10,4 C 87 % 1022,0 hPa 0,0 l/m 1,6 km/h (1 Bft) O 95 0 min 0,000 mm 0,0 UV-I 0 W/m 8,3 C 10,4 C 3,2 km/h (1 Bft) 100,00 %
05.11.2015 16:59 10,3 C 86 % 1022,0 hPa 0,0 l/m 0,5 km/h (0 Bft) O 95 0 min 0,000 mm 0,0 UV-I 0 W/m 8,1 C 10,3 C 1,6 km/h (1 Bft) 100,00 %
05.11.2015 17:00 10,2 C 86 % 1022,0 hPa 0,0 l/m 1,1 km/h (1 Bft) O 95 0 min 0,000 mm 0,0 UV-I 0 W/m 8,0 C 10,2 C 1,6 km/h (1 Bft) 100,00 %
05.11.2015 17:01 10,2 C 87 % 1022,0 hPa 0,0 l/m 2,1 km/h (1 Bft) O 95 0 min 0,000 mm 0,0 UV-I 0 W/m 8,1 C 10,2 C 3,2 km/h (1 Bft) 100,00 %
05.11.2015 17:02 10,2 C 88 % 1022,1 hPa 0,0 l/m 2,1 km/h (1 Bft) O 95 0 min 0,000 mm 0,0 UV-I 0 W/m 8,3 C 10,2 C 3,2 km/h (1 Bft) 100,00 %
05.11.2015 17:05 10,3 C 87 % 1022,1 hPa 0,0 l/m 1,3 km/h (1 Bft) O 95 0 min 0,000 mm 0,0 UV-I 0 W/m 8,2 C 10,3 C 1,6 km/h (1 Bft) 98,73 %
05.11.2015 17:06 10,3 C 87 % 1022,1 hPa 0,0 l/m 1,3 km/h (1 Bft) O 95 0 min 0,000 mm 0,0 UV-I 0 W/m 8,2 C 10,3 C 1,6 km/h (1 Bft) 100,00 %
05.11.2015 17:07 10,2 C 87 % 1022,1 hPa 0,0 l/m 0,8 km/h (0 Bft) O 95 0 min 0,000 mm 0,0 UV-I 0 W/m 8,1 C 10,2 C 1,6 km/h (1 Bft) 100,00 %
05.11.2015 17:08 10,0 C 86 % 1022,1 hPa 0,0 l/m 0,0 km/h (0 Bft) O 95 0 min 0,000 mm 0,0 UV-I 0 W/m 7,8 C 10,0 C 0,0 km/h (0 Bft) 100,00 %
05.11.2015 17:09 9,9 C 88 % 1022,1 hPa 0,0 l/m 0,0 km/h (0 Bft) O 95 0 min 0,000 mm 0,0 UV-I 0 W/m 8,0 C 9,9 C 0,0 km/h (0 Bft) 100,00 %
05.11.2015 17:10 9,9 C 88 % 1022,1 hPa 0,0 l/m 0,0 km/h (0 Bft) O 95 0 min 0,000 mm 0,0 UV-I 0 W/m 8,0 C 9,9 C 0,0 km/h (0 Bft) 100,00 %
05.11.2015 17:11 9,9 C 88 % 1022,1 hPa 0,0 l/m 0,0 km/h (0 Bft) O 95 0 min 0,000 mm 0,0 UV-I 0 W/m 8,0 C 9,9 C 0,0 km/h (0 Bft) 100,00 %
05.11.2015 17:12 9,9 C 88 % 1022,0 hPa 0,0 l/m 0,0 km/h (0 Bft) O 95 0 min 0,000 mm 0,0 UV-I 0 W/m 8,0 C 9,9 C 0,0 km/h (0 Bft) 100,00 %
05.11.2015 17:13 9,9 C 88 % 1022,1 hPa 0,0 l/m 0,0 km/h (0 Bft) O 95 0 min 0,000 mm 0,0 UV-I 0 W/m 8,0 C 9,9 C 0,0 km/h (0 Bft) 100,00 %
05.11.2015 17:14 9,8 C 87 % 1022,1 hPa 0,0 l/m 0,0 km/h (0 Bft) O 95 0 min 0,000 mm 0,0 UV-I 0 W/m 7,7 C 9,8 C 0,0 km/h (0 Bft) 100,00 %
05.11.2015 17:15 9,7 C 88 % 1022,0 hPa 0,0 l/m 0,0 km/h (0 Bft) O 95 0 min 0,000 mm 0,0 UV-I 0 W/m 7,8 C 9,7 C 0,0 km/h (0 Bft) 100,00 %
05.11.2015 17:16 9,6 C 89 % 1022,0 hPa 0,0 l/m 0,0 km/h (0 Bft) O 95 0 min 0,000 mm 0,0 UV-I 0 W/m 7,9 C 9,6 C 0,0 km/h (0 Bft) 100,00 %
05.11.2015 17:17 9,6 C 89 % 1022,0 hPa 0,0 l/m 0,0 km/h (0 Bft) O 95 0 min 0,000 mm 0,0 UV-I 0 W/m 7,9 C 9,6 C 0,0 km/h (0 Bft) 100,00 %
05.11.2015 17:18 9,7 C 89 % 1022,1 hPa 0,0 l/m 0,0 km/h (0 Bft) O 95 0 min 0,000 mm 0,0 UV-I 0 W/m 8,0 C 9,7 C 0,0 km/h (0 Bft) 100,00 %
05.11.2015 17:19 9,7 C 89 % 1022,1 hPa 0,0 l/m 0,0 km/h (0 Bft) O 95 0 min 0,000 mm 0,0 UV-I 0 W/m 8,0 C 9,7 C 0,0 km/h (0 Bft) 100,00 %
05.11.2015 17:20 9,6 C 89 % 1022,1 hPa 0,0 l/m 0,0 km/h (0 Bft) O 95 0 min 0,000 mm 0,0 UV-I 0 W/m 7,9 C 9,6 C 0,0 km/h (0 Bft) 100,00 %
05.11.2015 17:21 9,6 C 88 % 1022,1 hPa 0,0 l/m 0,0 km/h (0 Bft) O 95 0 min 0,000 mm 0,0 UV-I 0 W/m 7,7 C 9,6 C 0,0 km/h (0 Bft) 100,00 %
05.11.2015 17:22 9,6 C 89 % 1022,1 hPa 0,0 l/m 0,0 km/h (0 Bft) O 95 0 min 0,000 mm 0,0 UV-I 0 W/m 7,9 C 9,6 C 0,0 km/h (0 Bft) 100,00 %
05.11.2015 17:23 9,5 C 89 % 1022,1 hPa 0,0 l/m 0,0 km/h (0 Bft) O 95 0 min 0,000 mm 0,0 UV-I 0 W/m 7,8 C 9,5 C 0,0 km/h (0 Bft) 100,00 %
05.11.2015 17:24 9,4 C 89 % 1022,2 hPa 0,0 l/m 0,0 km/h (0 Bft) O 95 0 min 0,000 mm 0,0 UV-I 0 W/m 7,7 C 9,4 C 0,0 km/h (0 Bft) 100,00 %
05.11.2015 17:25 9,4 C 89 % 1022,2 hPa 0,0 l/m 0,0 km/h (0 Bft) O 95 0 min 0,000 mm 0,0 UV-I 0 W/m 7,7 C 9,4 C 0,0 km/h (0 Bft) 100,00 %
05.11.2015 17:26 9,4 C 89 % 1022,2 hPa 0,0 l/m 0,0 km/h (0 Bft) O 95 0 min 0,000 mm 0,0 UV-I 0 W/m 7,7 C 9,4 C 0,0 km/h (0 Bft) 100,00 %
05.11.2015 17:27 9,3 C 90 % 1022,2 hPa 0,0 l/m 0,0 km/h (0 Bft) O 95 0 min 0,000 mm 0,0 UV-I 0 W/m 7,7 C 9,3 C 0,0 km/h (0 Bft) 96,00 %
05.11.2015 17:28 9,4 C 90 % 1022,2 hPa 0,0 l/m 0,0 km/h (0 Bft) O 95 0 min 0,000 mm 0,0 UV-I 0 W/m 7,8 C 9,4 C 0,0 km/h (0 Bft) 100,00 %
05.11.2015 17:29 9,4 C 90 % 1022,2 hPa 0,0 l/m 0,0 km/h (0 Bft) O 95 0 min 0,000 mm 0,0 UV-I 0 W/m 7,8 C 9,4 C 0,0 km/h (0 Bft) 95,65 %
05.11.2015 17:30 9,5 C 90 % 1022,2 hPa 0,0 l/m 0,0 km/h (0 Bft) O 95 0 min 0,000 mm 0,0 UV-I 0 W/m 7,9 C 9,5 C 0,0 km/h (0 Bft) 100,00 %
05.11.2015 17:31 9,5 C 89 % 1022,3 hPa 0,0 l/m 0,0 km/h (0 Bft) O 95 0 min 0,000 mm 0,0 UV-I 0 W/m 7,8 C 9,5 C 0,0 km/h (0 Bft) 100,00 %
05.11.2015 17:32 9,5 C 90 % 1022,2 hPa 0,0 l/m 0,0 km/h (0 Bft) O 95 0 min 0,000 mm 0,0 UV-I 0 W/m 7,9 C 9,5 C 0,0 km/h (0 Bft) 100,00 %
05.11.2015 17:33 9,6 C 89 % 1022,3 hPa 0,0 l/m 0,0 km/h (0 Bft) O 95 0 min 0,000 mm 0,0 UV-I 0 W/m 7,9 C 9,6 C 0,0 km/h (0 Bft) 100,00 %
05.11.2015 17:34 9,6 C 89 % 1022,3 hPa 0,0 l/m 0,0 km/h (0 Bft) O 95 0 min 0,000 mm 0,0 UV-I 0 W/m 7,9 C 9,6 C 0,0 km/h (0 Bft) 100,00 %
05.11.2015 17:35 9,6 C 90 % 1022,3 hPa 0,0 l/m 0,0 km/h (0 Bft) O 95 0 min 0,000 mm 0,0 UV-I 0 W/m 8,0 C 9,6 C 0,0 km/h (0 Bft) 100,00 %
05.11.2015 17:36 9,6 C 90 % 1022,3 hPa 0,0 l/m 0,0 km/h (0 Bft) O 95 0 min 0,000 mm 0,0 UV-I 0 W/m 8,0 C 9,6 C 0,0 km/h (0 Bft) 100,00 %
05.11.2015 17:37 9,6 C 89 % 1022,3 hPa 0,0 l/m 0,0 km/h (0 Bft) O 95 0 min 0,000 mm 0,0 UV-I 0 W/m 7,9 C 9,6 C 0,0 km/h (0 Bft) 100,00 %
05.11.2015 17:38 9,6 C 89 % 1022,4 hPa 0,0 l/m 0,0 km/h (0 Bft) O 95 0 min 0,000 mm 0,0 UV-I 0 W/m 7,9 C 9,6 C 0,0 km/h (0 Bft) 100,00 %
05.11.2015 17:39 9,5 C 89 % 1022,4 hPa 0,0 l/m 0,0 km/h (0 Bft) O 95 0 min 0,000 mm 0,0 UV-I 0 W/m 7,8 C 9,5 C 0,0 km/h (0 Bft) 100,00 %
05.11.2015 17:40 9,6 C 90 % 1022,4 hPa 0,0 l/m 0,0 km/h (0 Bft) O 95 0 min 0,000 mm 0,0 UV-I 0 W/m 8,0 C 9,6 C 0,0 km/h (0 Bft) 100,00 %
05.11.2015 17:41 9,6 C 90 % 1022,4 hPa 0,0 l/m 0,1 km/h (0 Bft) O-SO 112 0 min 0,000 mm 0,0 UV-I 0 W/m 8,0 C 9,6 C 1,6 km/h (1 Bft) 100,00 %
05.11.2015 17:42 9,6 C 90 % 1022,4 hPa 0,0 l/m 2,1 km/h (1 Bft) O-SO 115 0 min 0,000 mm 0,0 UV-I 0 W/m 8,0 C 9,6 C 3,2 km/h (1 Bft) 100,00 %
05.11.2015 17:43 9,7 C 90 % 1022,4 hPa 0,0 l/m 1,8 km/h (1 Bft) O-SO 120 0 min 0,000 mm 0,0 UV-I 0 W/m 8,1 C 9,7 C 3,2 km/h (1 Bft) 100,00 %
05.11.2015 17:44 9,7 C 90 % 1022,4 hPa 0,0 l/m 1,8 km/h (1 Bft) O-SO 120 0 min 0,000 mm 0,0 UV-I 0 W/m 8,1 C 9,7 C 3,2 km/h (1 Bft) 100,00 %
05.11.2015 17:47 9,8 C 90 % 1022,4 hPa 0,0 l/m 2,9 km/h (1 Bft) O-SO 121 0 min 0,000 mm 0,0 UV-I 0 W/m 8,2 C 9,8 C 3,2 km/h (1 Bft) 98,80 %
05.11.2015 17:48 10,0 C 90 % 1022,4 hPa 0,0 l/m 2,9 km/h (1 Bft) O-SO 123 0 min 0,000 mm 0,0 UV-I 0 W/m 8,4 C 10,0 C 4,8 km/h (1 Bft) 100,00 %
05.11.2015 17:49 10,1 C 90 % 1022,4 hPa 0,0 l/m 2,7 km/h (1 Bft) O-SO 123 0 min 0,000 mm 0,0 UV-I 0 W/m 8,5 C 10,1 C 4,8 km/h (1 Bft) 100,00 %
05.11.2015 17:50 10,2 C 89 % 1022,4 hPa 0,0 l/m 3,0 km/h (1 Bft) SO 128 0 min 0,000 mm 0,0 UV-I 0 W/m 8,5 C 10,2 C 3,2 km/h (1 Bft) 100,00 %
05.11.2015 17:51 10,3 C 88 % 1022,5 hPa 0,0 l/m 2,7 km/h (1 Bft) SO 128 0 min 0,000 mm 0,0 UV-I 0 W/m 8,4 C 10,3 C 3,2 km/h (1 Bft) 100,00 %
05.11.2015 17:52 10,3 C 88 % 1022,4 hPa 0,0 l/m 2,6 km/h (1 Bft) SO 129 0 min 0,000 mm 0,0 UV-I 0 W/m 8,4 C 10,3 C 3,2 km/h (1 Bft) 100,00 %
05.11.2015 17:53 10,3 C 88 % 1022,5 hPa 0,0 l/m 2,4 km/h (1 Bft) SO 129 0 min 0,000 mm 0,0 UV-I 0 W/m 8,4 C 10,3 C 3,2 km/h (1 Bft) 100,00 %
05.11.2015 17:54 10,3 C 88 % 1022,5 hPa 0,0 l/m 2,2 km/h (1 Bft) SO 129 0 min 0,000 mm 0,0 UV-I 0 W/m 8,4 C 10,3 C 3,2 km/h (1 Bft) 99,30 %
05.11.2015 17:55 10,3 C 88 % 1022,5 hPa 0,0 l/m 2,1 km/h (1 Bft) SO 129 0 min 0,000 mm 0,0 UV-I 0 W/m 8,4 C 10,3 C 3,2 km/h (1 Bft) 100,00 %
05.11.2015 17:56 10,4 C 88 % 1022,5 hPa 0,0 l/m 2,1 km/h (1 Bft) SO 129 0 min 0,000 mm 0,0 UV-I 0 W/m 8,5 C 10,4 C 3,2 km/h (1 Bft) 100,00 %
05.11.2015 17:57 10,4 C 87 % 1022,5 hPa 0,0 l/m 1,4 km/h (1 Bft) SO 129 0 min 0,000 mm 0,0 UV-I 0 W/m 8,3 C 10,4 C 1,6 km/h (1 Bft) 100,00 %
05.11.2015 17:58 10,3 C 87 % 1022,5 hPa 0,0 l/m 0,9 km/h (0 Bft) SO 129 0 min 0,000 mm 0,0 UV-I 0 W/m 8,2 C 10,3 C 1,6 km/h (1 Bft) 100,00 %
05.11.2015 17:59 10,3 C 87 % 1022,5 hPa 0,0 l/m 1,3 km/h (1 Bft) SO 129 0 min 0,000 mm 0,0 UV-I 0 W/m 8,2 C 10,3 C 1,6 km/h (1 Bft) 100,00 %
05.11.2015 18:00 10,2 C 87 % 1022,5 hPa 0,0 l/m 1,3 km/h (1 Bft) SO 129 0 min 0,000 mm 0,0 UV-I 0 W/m 8,1 C 10,2 C 1,6 km/h (1 Bft) 100,00 %
05.11.2015 18:01 10,1 C 88 % 1022,5 hPa 0,0 l/m 1,0 km/h (0 Bft) SO 129 0 min 0,000 mm 0,0 UV-I 0 W/m 8,2 C 10,1 C 1,6 km/h (1 Bft) 100,00 %
05.11.2015 18:02 10,1 C 88 % 1022,5 hPa 0,0 l/m 0,1 km/h (0 Bft) SO 129 0 min 0,000 mm 0,0 UV-I 0 W/m 8,2 C 10,1 C 1,6 km/h (1 Bft) 100,00 %
05.11.2015 18:03 10,0 C 88 % 1022,4 hPa 0,0 l/m 0,0 km/h (0 Bft) SO 129 0 min 0,000 mm 0,0 UV-I 0 W/m 8,1 C 10,0 C 0,0 km/h (0 Bft) 100,00 %
05.11.2015 18:04 9,9 C 88 % 1022,4 hPa 0,0 l/m 0,5 km/h (0 Bft) SO 129 0 min 0,000 mm 0,0 UV-I 0 W/m 8,0 C 9,9 C 1,6 km/h (1 Bft) 100,00 %
05.11.2015 18:05 9,8 C 88 % 1022,4 hPa 0,0 l/m 1,2 km/h (1 Bft) SO 129 0 min 0,000 mm 0,0 UV-I 0 W/m 7,9 C 9,8 C 1,6 km/h (1 Bft) 100,00 %
05.11.2015 18:06 9,7 C 88 % 1022,5 hPa 0,0 l/m 1,3 km/h (1 Bft) SO 129 0 min 0,000 mm 0,0 UV-I 0 W/m 7,8 C 9,7 C 3,2 km/h (1 Bft) 100,00 %
05.11.2015 18:07 9,7 C 90 % 1022,5 hPa 0,0 l/m 1,5 km/h (1 Bft) SO 129 0 min 0,000 mm 0,0 UV-I 0 W/m 8,1 C 9,7 C 1,6 km/h (1 Bft) 100,00 %
05.11.2015 18:08 9,7 C 90 % 1022,5 hPa 0,0 l/m 1,7 km/h (1 Bft) SO 129 0 min 0,000 mm 0,0 UV-I 0 W/m 8,1 C 9,7 C 3,2 km/h (1 Bft) 100,00 %
05.11.2015 18:09 9,9 C 90 % 1022,5 hPa 0,0 l/m 1,9 km/h (1 Bft) SO 129 0 min 0,000 mm 0,0 UV-I 0 W/m 8,3 C 9,9 C 3,2 km/h (1 Bft) 100,00 %
05.11.2015 18:10 10,0 C 90 % 1022,5 hPa 0,0 l/m 1,9 km/h (1 Bft) SO 129 0 min 0,000 mm 0,0 UV-I 0 W/m 8,4 C 10,0 C 3,2 km/h (1 Bft) 100,00 %
05.11.2015 18:11 9,9 C 88 % 1022,5 hPa 0,0 l/m 0,8 km/h (0 Bft) SO 129 0 min 0,000 mm 0,0 UV-I 0 W/m 8,0 C 9,9 C 1,6 km/h (1 Bft) 100,00 %
05.11.2015 18:12 9,7 C 87 % 1022,6 hPa 0,0 l/m 0,0 km/h (0 Bft) SO 129 0 min 0,000 mm 0,0 UV-I 0 W/m 7,6 C 9,7 C 0,0 km/h (0 Bft) 100,00 %
05.11.2015 18:13 9,6 C 88 % 1022,5 hPa 0,0 l/m 0,0 km/h (0 Bft) SO 129 0 min 0,000 mm 0,0 UV-I 0 W/m 7,7 C 9,6 C 0,0 km/h (0 Bft) 100,00 %
05.11.2015 18:14 9,4 C 89 % 1022,5 hPa 0,0 l/m 0,0 km/h (0 Bft) SO 129 0 min 0,000 mm 0,0 UV-I 0 W/m 7,7 C 9,4 C 0,0 km/h (0 Bft) 100,00 %
05.11.2015 18:15 9,3 C 89 % 1022,6 hPa 0,0 l/m 0,0 km/h (0 Bft) SO 129 0 min 0,000 mm 0,0 UV-I 0 W/m 7,6 C 9,3 C 0,0 km/h (0 Bft) 100,00 %
05.11.2015 18:16 9,2 C 89 % 1022,6 hPa 0,0 l/m 0,0 km/h (0 Bft) SO 129 0 min 0,000 mm 0,0 UV-I 0 W/m 7,5 C 9,2 C 0,0 km/h (0 Bft) 100,00 %
05.11.2015 18:17 9,1 C 89 % 1022,6 hPa 0,0 l/m 0,0 km/h (0 Bft) SO 129 0 min 0,000 mm 0,0 UV-I 0 W/m 7,4 C 9,1 C 0,0 km/h (0 Bft) 100,00 %
05.11.2015 18:18 8,9 C 90 % 1022,6 hPa 0,0 l/m 0,0 km/h (0 Bft) SO 129 0 min 0,000 mm 0,0 UV-I 0 W/m 7,4 C 8,9 C 0,0 km/h (0 Bft) 100,00 %
05.11.2015 18:19 8,9 C 90 % 1022,6 hPa 0,0 l/m 0,0 km/h (0 Bft) SO 129 0 min 0,000 mm 0,0 UV-I 0 W/m 7,4 C 8,9 C 0,0 km/h (0 Bft) 100,00 %
05.11.2015 18:20 8,8 C 91 % 1022,6 hPa 0,0 l/m 0,0 km/h (0 Bft) SO 129 0 min 0,000 mm 0,0 UV-I 0 W/m 7,4 C 8,8 C 0,0 km/h (0 Bft) 100,00 %
05.11.2015 18:21 8,8 C 91 % 1022,6 hPa 0,0 l/m 0,0 km/h (0 Bft) SO 129 0 min 0,000 mm 0,0 UV-I 0 W/m 7,4 C 8,8 C 0,0 km/h (0 Bft) 100,00 %
05.11.2015 18:22 8,8 C 91 % 1022,7 hPa 0,0 l/m 0,0 km/h (0 Bft) SO 129 0 min 0,000 mm 0,0 UV-I 0 W/m 7,4 C 8,8 C 0,0 km/h (0 Bft) 96,15 %
05.11.2015 18:23 8,8 C 91 % 1022,6 hPa 0,0 l/m 0,0 km/h (0 Bft) SO 129 0 min 0,000 mm 0,0 UV-I 0 W/m 7,4 C 8,8 C 0,0 km/h (0 Bft) 100,00 %
05.11.2015 18:24 8,7 C 91 % 1022,6 hPa 0,0 l/m 0,0 km/h (0 Bft) SO 129 0 min 0,000 mm 0,0 UV-I 0 W/m 7,3 C 8,7 C 0,0 km/h (0 Bft) 100,00 %
05.11.2015 18:25 8,6 C 91 % 1022,6 hPa 0,0 l/m 0,0 km/h (0 Bft) SO 129 0 min 0,000 mm 0,0 UV-I 0 W/m 7,2 C 8,6 C 0,0 km/h (0 Bft) 100,00 %
05.11.2015 18:26 8,6 C 91 % 1022,6 hPa 0,0 l/m 0,1 km/h (0 Bft) SO 129 0 min 0,000 mm 0,0 UV-I 0 W/m 7,2 C 8,6 C 1,6 km/h (1 Bft) 100,00 %
05.11.2015 18:27 8,5 C 91 % 1022,6 hPa 0,0 l/m 0,0 km/h (0 Bft) SO 129 0 min 0,000 mm 0,0 UV-I 0 W/m 7,1 C 8,5 C 0,0 km/h (0 Bft) 100,00 %
05.11.2015 18:28 8,4 C 91 % 1022,6 hPa 0,0 l/m 0,0 km/h (0 Bft) SO 129 0 min 0,000 mm 0,0 UV-I 0 W/m 7,0 C 8,4 C 0,0 km/h (0 Bft) 100,00 %
05.11.2015 18:29 8,4 C 92 % 1022,7 hPa 0,0 l/m 0,0 km/h (0 Bft) SO 129 0 min 0,000 mm 0,0 UV-I 0 W/m 7,2 C 8,4 C 0,0 km/h (0 Bft) 100,00 %
05.11.2015 18:30 8,4 C 92 % 1022,6 hPa 0,0 l/m 0,0 km/h (0 Bft) SO 129 0 min 0,000 mm 0,0 UV-I 0 W/m 7,2 C 8,4 C 0,0 km/h (0 Bft) 100,00 %
05.11.2015 18:31 8,4 C 91 % 1022,7 hPa 0,0 l/m 0,0 km/h (0 Bft) SO 129 0 min 0,000 mm 0,0 UV-I 0 W/m 7,0 C 8,4 C 0,0 km/h (0 Bft) 100,00 %
05.11.2015 18:32 8,4 C 92 % 1022,7 hPa 0,0 l/m 0,0 km/h (0 Bft) SO 129 0 min 0,000 mm 0,0 UV-I 0 W/m 7,2 C 8,4 C 0,0 km/h (0 Bft) 100,00 %
05.11.2015 18:33 8,3 C 92 % 1022,7 hPa 0,0 l/m 0,0 km/h (0 Bft) SO 129 0 min 0,000 mm 0,0 UV-I 0 W/m 7,1 C 8,3 C 0,0 km/h (0 Bft) 100,00 %
05.11.2015 18:34 8,3 C 92 % 1022,7 hPa 0,0 l/m 0,0 km/h (0 Bft) SO 129 0 min 0,000 mm 0,0 UV-I 0 W/m 7,1 C 8,3 C 0,0 km/h (0 Bft) 100,00 %
05.11.2015 18:35 8,3 C 92 % 1022,7 hPa 0,0 l/m 0,0 km/h (0 Bft) SO 129 0 min 0,000 mm 0,0 UV-I 0 W/m 7,1 C 8,3 C 0,0 km/h (0 Bft) 100,00 %
05.11.2015 18:36 8,2 C 92 % 1022,7 hPa 0,0 l/m 0,0 km/h (0 Bft) SO 129 0 min 0,000 mm 0,0 UV-I 0 W/m 7,0 C 8,2 C 0,0 km/h (0 Bft) 100,00 %
05.11.2015 18:37 8,2 C 93 % 1022,7 hPa 0,0 l/m 0,0 km/h (0 Bft) SO 129 0 min 0,000 mm 0,0 UV-I 0 W/m 7,1 C 8,2 C 0,0 km/h (0 Bft) 95,65 %
05.11.2015 18:38 8,2 C 93 % 1022,7 hPa 0,0 l/m 0,2 km/h (0 Bft) SO 129 0 min 0,000 mm 0,0 UV-I 0 W/m 7,1 C 8,2 C 1,6 km/h (1 Bft) 100,00 %
05.11.2015 18:39 8,4 C 94 % 1022,7 hPa 0,0 l/m 0,1 km/h (0 Bft) SO 129 0 min 0,000 mm 0,0 UV-I 0 W/m 7,5 C 8,4 C 1,6 km/h (1 Bft) 100,00 %
05.11.2015 18:40 8,5 C 94 % 1022,7 hPa 0,0 l/m 0,1 km/h (0 Bft) SO 129 0 min 0,000 mm 0,0 UV-I 0 W/m 7,6 C 8,5 C 1,6 km/h (1 Bft) 100,00 %
05.11.2015 18:41 8,6 C 93 % 1022,7 hPa 0,0 l/m 0,0 km/h (0 Bft) SO 129 0 min 0,000 mm 0,0 UV-I 0 W/m 7,5 C 8,6 C 0,0 km/h (0 Bft) 95,65 %
05.11.2015 18:42 8,6 C 92 % 1022,7 hPa 0,0 l/m 0,0 km/h (0 Bft) SO 129 0 min 0,000 mm 0,0 UV-I 0 W/m 7,4 C 8,6 C 0,0 km/h (0 Bft) 100,00 %
05.11.2015 18:43 8,6 C 94 % 1022,7 hPa 0,0 l/m 0,0 km/h (0 Bft) SO 129 0 min 0,000 mm 0,0 UV-I 0 W/m 7,7 C 8,6 C 0,0 km/h (0 Bft) 100,00 %
05.11.2015 18:44 8,7 C 94 % 1022,7 hPa 0,0 l/m 0,0 km/h (0 Bft) SO 129 0 min 0,000 mm 0,0 UV-I 0 W/m 7,8 C 8,7 C 0,0 km/h (0 Bft) 100,00 %
05.11.2015 18:45 8,8 C 93 % 1022,7 hPa 0,0 l/m 0,0 km/h (0 Bft) SO 129 0 min 0,000 mm 0,0 UV-I 0 W/m 7,7 C 8,8 C 0,0 km/h (0 Bft) 100,00 %
05.11.2015 18:46 8,8 C 93 % 1022,8 hPa 0,0 l/m 0,0 km/h (0 Bft) SO 129 0 min 0,000 mm 0,0 UV-I 0 W/m 7,7 C 8,8 C 0,0 km/h (0 Bft) 100,00 %
05.11.2015 18:47 8,8 C 93 % 1022,7 hPa 0,0 l/m 0,0 km/h (0 Bft) SO 129 0 min 0,000 mm 0,0 UV-I 0 W/m 7,7 C 8,8 C 0,0 km/h (0 Bft) 100,00 %
05.11.2015 18:48 8,8 C 92 % 1022,7 hPa 0,0 l/m 0,0 km/h (0 Bft) SO 129 0 min 0,000 mm 0,0 UV-I 0 W/m 7,6 C 8,8 C 0,0 km/h (0 Bft) 99,33 %
05.11.2015 18:51 8,5 C 91 % 1022,8 hPa 0,0 l/m 0,0 km/h (0 Bft) SO 129 0 min 0,000 mm 0,0 UV-I 0 W/m 7,1 C 8,5 C 0,0 km/h (0 Bft) 100,00 %
05.11.2015 18:52 8,4 C 92 % 1022,8 hPa 0,0 l/m 0,0 km/h (0 Bft) SO 129 0 min 0,000 mm 0,0 UV-I 0 W/m 7,2 C 8,4 C 0,0 km/h (0 Bft) 100,00 %
05.11.2015 18:53 8,4 C 92 % 1022,8 hPa 0,0 l/m 0,0 km/h (0 Bft) SO 129 0 min 0,000 mm 0,0 UV-I 0 W/m 7,2 C 8,4 C 0,0 km/h (0 Bft) 100,00 %
05.11.2015 18:54 8,4 C 92 % 1022,7 hPa 0,0 l/m 0,0 km/h (0 Bft) SO 129 0 min 0,000 mm 0,0 UV-I 0 W/m 7,2 C 8,4 C 0,0 km/h (0 Bft) 95,83 %
05.11.2015 18:55 8,5 C 93 % 1022,7 hPa 0,0 l/m 0,0 km/h (0 Bft) SO 129 0 min 0,000 mm 0,0 UV-I 0 W/m 7,4 C 8,5 C 0,0 km/h (0 Bft) 95,83 %
05.11.2015 18:56 8,5 C 93 % 1022,7 hPa 0,0 l/m 0,0 km/h (0 Bft) SO 129 0 min 0,000 mm 0,0 UV-I 0 W/m 7,4 C 8,5 C 0,0 km/h (0 Bft) 100,00 %
05.11.2015 18:57 8,4 C 93 % 1022,8 hPa 0,0 l/m 0,0 km/h (0 Bft) SO 129 0 min 0,000 mm 0,0 UV-I 0 W/m 7,3 C 8,4 C 0,0 km/h (0 Bft) 100,00 %
05.11.2015 18:58 8,4 C 93 % 1022,7 hPa 0,0 l/m 0,0 km/h (0 Bft) SO 129 0 min 0,000 mm 0,0 UV-I 0 W/m 7,3 C 8,4 C 0,0 km/h (0 Bft) 100,00 %
05.11.2015 18:59 8,4 C 93 % 1022,7 hPa 0,0 l/m 0,0 km/h (0 Bft) SO 129 0 min 0,000 mm 0,0 UV-I 0 W/m 7,3 C 8,4 C 0,0 km/h (0 Bft) 100,00 %
05.11.2015 19:00 8,4 C 93 % 1022,7 hPa 0,0 l/m 0,0 km/h (0 Bft) SO 129 0 min 0,000 mm 0,0 UV-I 0 W/m 7,3 C 8,4 C 0,0 km/h (0 Bft) 100,00 %
05.11.2015 19:01 8,5 C 94 % 1022,7 hPa 0,0 l/m 0,0 km/h (0 Bft) SO 129 0 min 0,000 mm 0,0 UV-I 0 W/m 7,6 C 8,5 C 0,0 km/h (0 Bft) 95,83 %
05.11.2015 19:02 8,6 C 94 % 1022,7 hPa 0,0 l/m 0,0 km/h (0 Bft) SO 129 0 min 0,000 mm 0,0 UV-I 0 W/m 7,7 C 8,6 C 0,0 km/h (0 Bft) 100,00 %
05.11.2015 19:03 8,7 C 93 % 1022,7 hPa 0,0 l/m 0,0 km/h (0 Bft) SO 129 0 min 0,000 mm 0,0 UV-I 0 W/m 7,6 C 8,7 C 0,0 km/h (0 Bft) 97,44 %
05.11.2015 19:04 8,7 C 93 % 1022,7 hPa 0,0 l/m 0,0 km/h (0 Bft) SO 129 0 min 0,000 mm 0,0 UV-I 0 W/m 7,6 C 8,7 C 0,0 km/h (0 Bft) 100,00 %
05.11.2015 19:05 8,8 C 93 % 1022,6 hPa 0,0 l/m 0,0 km/h (0 Bft) SO 129 0 min 0,000 mm 0,0 UV-I 0 W/m 7,7 C 8,8 C 0,0 km/h (0 Bft) 100,00 %
05.11.2015 19:06 8,9 C 93 % 1022,6 hPa 0,0 l/m 0,0 km/h (0 Bft) SO 129 0 min 0,000 mm 0,0 UV-I 0 W/m 7,8 C 8,9 C 0,0 km/h (0 Bft) 100,00 %
05.11.2015 19:07 9,0 C 93 % 1022,6 hPa 0,0 l/m 0,0 km/h (0 Bft) S-SO 147 0 min 0,000 mm 0,0 UV-I 0 W/m 7,9 C 9,0 C 0,0 km/h (0 Bft) 100,00 %
05.11.2015 19:08 9,1 C 92 % 1022,6 hPa 0,0 l/m 0,0 km/h (0 Bft) S-SO 153 0 min 0,000 mm 0,0 UV-I 0 W/m 7,9 C 9,1 C 0,0 km/h (0 Bft) 100,00 %
05.11.2015 19:09 9,1 C 92 % 1022,6 hPa 0,0 l/m 0,0 km/h (0 Bft) S-SO 153 0 min 0,000 mm 0,0 UV-I 0 W/m 7,9 C 9,1 C 0,0 km/h (0 Bft) 100,00 %
05.11.2015 19:10 9,1 C 91 % 1022,6 hPa 0,0 l/m 0,0 km/h (0 Bft) S-SO 153 0 min 0,000 mm 0,0 UV-I 0 W/m 7,7 C 9,1 C 0,0 km/h (0 Bft) 85,71 %
05.11.2015 19:11 9,1 C 91 % 1022,6 hPa 0,0 l/m 0,0 km/h (0 Bft) S-SO 153 0 min 0,000 mm 0,0 UV-I 0 W/m 7,7 C 9,1 C 0,0 km/h (0 Bft) 100,00 %
05.11.2015 19:12 9,0 C 91 % 1022,6 hPa 0,0 l/m 0,0 km/h (0 Bft) S-SO 153 0 min 0,000 mm 0,0 UV-I 0 W/m 7,6 C 9,0 C 0,0 km/h (0 Bft) 100,00 %
05.11.2015 19:13 9,0 C 92 % 1022,6 hPa 0,0 l/m 0,0 km/h (0 Bft) S-SO 153 0 min 0,000 mm 0,0 UV-I 0 W/m 7,8 C 9,0 C 0,0 km/h (0 Bft) 95,83 %
05.11.2015 19:14 9,0 C 92 % 1022,5 hPa 0,0 l/m 0,0 km/h (0 Bft) S-SO 153 0 min 0,000 mm 0,0 UV-I 0 W/m 7,8 C 9,0 C 0,0 km/h (0 Bft) 100,00 %
05.11.2015 19:15 9,1 C 92 % 1022,6 hPa 0,0 l/m 0,0 km/h (0 Bft) S-SO 154 0 min 0,000 mm 0,0 UV-I 0 W/m 7,9 C 9,1 C 0,0 km/h (0 Bft) 96,15 %
05.11.2015 19:16 9,1 C 92 % 1022,6 hPa 0,0 l/m 0,0 km/h (0 Bft) S-SO 154 0 min 0,000 mm 0,0 UV-I 0 W/m 7,9 C 9,1 C 0,0 km/h (0 Bft) 100,00 %
05.11.2015 19:17 9,1 C 92 % 1022,6 hPa 0,0 l/m 0,0 km/h (0 Bft) S-SO 154 0 min 0,000 mm 0,0 UV-I 0 W/m 7,9 C 9,1 C 0,0 km/h (0 Bft) 100,00 %
05.11.2015 19:18 9,1 C 91 % 1022,5 hPa 0,0 l/m 0,0 km/h (0 Bft) S-SO 154 0 min 0,000 mm 0,0 UV-I 0 W/m 7,7 C 9,1 C 0,0 km/h (0 Bft) 100,00 %
05.11.2015 19:19 9,0 C 91 % 1022,6 hPa 0,0 l/m 0,0 km/h (0 Bft) S-SO 154 0 min 0,000 mm 0,0 UV-I 0 W/m 7,6 C 9,0 C 0,0 km/h (0 Bft) 100,00 %
05.11.2015 19:20 9,1 C 92 % 1022,5 hPa 0,0 l/m 0,0 km/h (0 Bft) S-SO 154 0 min 0,000 mm 0,0 UV-I 0 W/m 7,9 C 9,1 C 0,0 km/h (0 Bft) 100,00 %
05.11.2015 19:21 9,1 C 92 % 1022,5 hPa 0,0 l/m 0,0 km/h (0 Bft) S-SO 154 0 min 0,000 mm 0,0 UV-I 0 W/m 7,9 C 9,1 C 0,0 km/h (0 Bft) 100,00 %
05.11.2015 19:22 9,0 C 91 % 1022,5 hPa 0,0 l/m 0,0 km/h (0 Bft) S-SO 154 0 min 0,000 mm 0,0 UV-I 0 W/m 7,6 C 9,0 C 0,0 km/h (0 Bft) 100,00 %
05.11.2015 19:23 8,9 C 90 % 1022,5 hPa 0,0 l/m 0,0 km/h (0 Bft) S-SO 154 0 min 0,000 mm 0,0 UV-I 0 W/m 7,4 C 8,9 C 0,0 km/h (0 Bft) 100,00 %
05.11.2015 19:24 8,8 C 91 % 1022,5 hPa 0,0 l/m 0,0 km/h (0 Bft) S-SO 154 0 min 0,000 mm 0,0 UV-I 0 W/m 7,4 C 8,8 C 0,0 km/h (0 Bft) 100,00 %
05.11.2015 19:25 8,7 C 91 % 1022,5 hPa 0,0 l/m 0,0 km/h (0 Bft) S-SO 154 0 min 0,000 mm 0,0 UV-I 0 W/m 7,3 C 8,7 C 0,0 km/h (0 Bft) 100,00 %
05.11.2015 19:26 8,6 C 92 % 1022,5 hPa 0,0 l/m 0,0 km/h (0 Bft) S-SO 154 0 min 0,000 mm 0,0 UV-I 0 W/m 7,4 C 8,6 C 0,0 km/h (0 Bft) 100,00 %
05.11.2015 19:27 8,4 C 91 % 1022,5 hPa 0,0 l/m 0,0 km/h (0 Bft) S-SO 154 0 min 0,000 mm 0,0 UV-I 0 W/m 7,0 C 8,4 C 0,0 km/h (0 Bft) 100,00 %
05.11.2015 19:28 8,3 C 91 % 1022,5 hPa 0,0 l/m 0,0 km/h (0 Bft) S-SO 154 0 min 0,000 mm 0,0 UV-I 0 W/m 6,9 C 8,3 C 0,0 km/h (0 Bft) 100,00 %
05.11.2015 19:29 8,3 C 93 % 1022,5 hPa 0,0 l/m 0,0 km/h (0 Bft) S-SO 154 0 min 0,000 mm 0,0 UV-I 0 W/m 7,2 C 8,3 C 0,0 km/h (0 Bft) 95,65 %
05.11.2015 19:30 8,3 C 93 % 1022,5 hPa 0,0 l/m 0,0 km/h (0 Bft) S-SO 154 0 min 0,000 mm 0,0 UV-I 0 W/m 7,2 C 8,3 C 0,0 km/h (0 Bft) 100,00 %
05.11.2015 19:31 8,3 C 93 % 1022,5 hPa 0,0 l/m 0,0 km/h (0 Bft) S-SO 154 0 min 0,000 mm 0,0 UV-I 0 W/m 7,2 C 8,3 C 0,0 km/h (0 Bft) 100,00 %
05.11.2015 19:32 8,3 C 93 % 1022,5 hPa 0,0 l/m 0,0 km/h (0 Bft) S-SO 154 0 min 0,000 mm 0,0 UV-I 0 W/m 7,2 C 8,3 C 0,0 km/h (0 Bft) 100,00 %
05.11.2015 19:33 8,3 C 93 % 1022,5 hPa 0,0 l/m 0,0 km/h (0 Bft) S-SO 155 0 min 0,000 mm 0,0 UV-I 0 W/m 7,2 C 8,3 C 0,0 km/h (0 Bft) 100,00 %
05.11.2015 19:34 8,4 C 94 % 1022,5 hPa 0,0 l/m 0,0 km/h (0 Bft) S-SO 155 0 min 0,000 mm 0,0 UV-I 0 W/m 7,5 C 8,4 C 0,0 km/h (0 Bft) 100,00 %
05.11.2015 19:35 8,4 C 94 % 1022,5 hPa 0,0 l/m 0,0 km/h (0 Bft) S-SO 155 0 min 0,000 mm 0,0 UV-I 0 W/m 7,5 C 8,4 C 0,0 km/h (0 Bft) 96,30 %
05.11.2015 19:36 8,5 C 94 % 1022,5 hPa 0,0 l/m 0,0 km/h (0 Bft) S-SO 155 0 min 0,000 mm 0,0 UV-I 0 W/m 7,6 C 8,5 C 0,0 km/h (0 Bft) 100,00 %
05.11.2015 19:37 8,5 C 93 % 1022,5 hPa 0,0 l/m 0,0 km/h (0 Bft) S-SO 155 0 min 0,000 mm 0,0 UV-I 0 W/m 7,4 C 8,5 C 0,0 km/h (0 Bft) 100,00 %
05.11.2015 19:38 8,5 C 93 % 1022,5 hPa 0,0 l/m 0,0 km/h (0 Bft) S-SO 155 0 min 0,000 mm 0,0 UV-I 0 W/m 7,4 C 8,5 C 0,0 km/h (0 Bft) 100,00 %
05.11.2015 19:39 8,5 C 93 % 1022,5 hPa 0,0 l/m 0,0 km/h (0 Bft) S-SO 155 0 min 0,000 mm 0,0 UV-I 0 W/m 7,4 C 8,5 C 0,0 km/h (0 Bft) 100,00 %
05.11.2015 19:40 8,6 C 93 % 1022,5 hPa 0,0 l/m 0,0 km/h (0 Bft) S-SO 155 0 min 0,000 mm 0,0 UV-I 0 W/m 7,5 C 8,6 C 0,0 km/h (0 Bft) 100,00 %
05.11.2015 19:41 8,6 C 93 % 1022,5 hPa 0,0 l/m 0,0 km/h (0 Bft) S-SO 155 0 min 0,000 mm 0,0 UV-I 0 W/m 7,5 C 8,6 C 0,0 km/h (0 Bft) 100,00 %
05.11.2015 19:42 8,6 C 94 % 1022,5 hPa 0,0 l/m 0,0 km/h (0 Bft) S-SO 155 0 min 0,000 mm 0,0 UV-I 0 W/m 7,7 C 8,6 C 0,0 km/h (0 Bft) 100,00 %
05.11.2015 19:43 8,6 C 94 % 1022,5 hPa 0,0 l/m 0,0 km/h (0 Bft) S-SO 155 0 min 0,000 mm 0,0 UV-I 0 W/m 7,7 C 8,6 C 0,0 km/h (0 Bft) 100,00 %
05.11.2015 19:44 8,6 C 93 % 1022,5 hPa 0,0 l/m 0,0 km/h (0 Bft) S-SO 155 0 min 0,000 mm 0,0 UV-I 0 W/m 7,5 C 8,6 C 0,0 km/h (0 Bft) 100,00 %
05.11.2015 19:45 8,6 C 93 % 1022,5 hPa 0,0 l/m 0,0 km/h (0 Bft) S-SO 155 0 min 0,000 mm 0,0 UV-I 0 W/m 7,5 C 8,6 C 0,0 km/h (0 Bft) 100,00 %
05.11.2015 19:46 8,5 C 93 % 1022,5 hPa 0,0 l/m 0,0 km/h (0 Bft) S-SO 155 0 min 0,000 mm 0,0 UV-I 0 W/m 7,4 C 8,5 C 0,0 km/h (0 Bft) 100,00 %
05.11.2015 19:47 8,4 C 93 % 1022,5 hPa 0,0 l/m 0,0 km/h (0 Bft) S-SO 155 0 min 0,000 mm 0,0 UV-I 0 W/m 7,3 C 8,4 C 0,0 km/h (0 Bft) 100,00 %
05.11.2015 19:48 8,4 C 93 % 1022,4 hPa 0,0 l/m 0,0 km/h (0 Bft) S-SO 155 0 min 0,000 mm 0,0 UV-I 0 W/m 7,3 C 8,4 C 0,0 km/h (0 Bft) 100,00 %
05.11.2015 19:49 8,4 C 93 % 1022,5 hPa 0,0 l/m 0,0 km/h (0 Bft) S-SO 155 0 min 0,000 mm 0,0 UV-I 0 W/m 7,3 C 8,4 C 0,0 km/h (0 Bft) 95,83 %
05.11.2015 19:50 8,4 C 94 % 1022,5 hPa 0,0 l/m 0,0 km/h (0 Bft) S-SO 155 0 min 0,000 mm 0,0 UV-I 0 W/m 7,5 C 8,4 C 0,0 km/h (0 Bft) 100,00 %
05.11.2015 19:51 8,3 C 94 % 1022,5 hPa 0,0 l/m 0,0 km/h (0 Bft) S-SO 155 0 min 0,000 mm 0,0 UV-I 0 W/m 7,4 C 8,3 C 0,0 km/h (0 Bft) 100,00 %
05.11.2015 19:52 8,3 C 94 % 1022,5 hPa 0,0 l/m 0,0 km/h (0 Bft) S-SO 155 0 min 0,000 mm 0,0 UV-I 0 W/m 7,4 C 8,3 C 0,0 km/h (0 Bft) 100,00 %
05.11.2015 19:53 8,3 C 94 % 1022,5 hPa 0,0 l/m 0,0 km/h (0 Bft) S-SO 155 0 min 0,000 mm 0,0 UV-I 0 W/m 7,4 C 8,3 C 0,0 km/h (0 Bft) 100,00 %
05.11.2015 19:54 8,4 C 94 % 1022,5 hPa 0,0 l/m 0,0 km/h (0 Bft) S-SO 155 0 min 0,000 mm 0,0 UV-I 0 W/m 7,5 C 8,4 C 0,0 km/h (0 Bft) 100,00 %
05.11.2015 19:55 8,4 C 94 % 1022,5 hPa 0,0 l/m 0,0 km/h (0 Bft) S-SO 155 0 min 0,000 mm 0,0 UV-I 0 W/m 7,5 C 8,4 C 0,0 km/h (0 Bft) 100,00 %
05.11.2015 19:56 8,4 C 94 % 1022,5 hPa 0,0 l/m 0,0 km/h (0 Bft) S-SO 155 0 min 0,000 mm 0,0 UV-I 0 W/m 7,5 C 8,4 C 0,0 km/h (0 Bft) 100,00 %
05.11.2015 19:57 8,4 C 94 % 1022,5 hPa 0,0 l/m 0,0 km/h (0 Bft) S-SO 155 0 min 0,000 mm 0,0 UV-I 0 W/m 7,5 C 8,4 C 0,0 km/h (0 Bft) 96,55 %
05.11.2015 19:58 8,4 C 94 % 1022,6 hPa 0,0 l/m 0,0 km/h (0 Bft) S-SO 155 0 min 0,000 mm 0,0 UV-I 0 W/m 7,5 C 8,4 C 0,0 km/h (0 Bft) 100,00 %
05.11.2015 19:59 8,4 C 94 % 1022,5 hPa 0,0 l/m 0,0 km/h (0 Bft) S-SO 155 0 min 0,000 mm 0,0 UV-I 0 W/m 7,5 C 8,4 C 0,0 km/h (0 Bft) 100,00 %
05.11.2015 20:00 8,4 C 94 % 1022,5 hPa 0,0 l/m 0,0 km/h (0 Bft) S-SO 155 0 min 0,000 mm 0,0 UV-I 0 W/m 7,5 C 8,4 C 0,0 km/h (0 Bft) 100,00 %
05.11.2015 20:01 8,4 C 94 % 1022,5 hPa 0,0 l/m 0,0 km/h (0 Bft) S-SO 155 0 min 0,000 mm 0,0 UV-I 0 W/m 7,5 C 8,4 C 0,0 km/h (0 Bft) 100,00 %
05.11.2015 20:02 8,4 C 94 % 1022,5 hPa 0,0 l/m 0,0 km/h (0 Bft) S-SO 155 0 min 0,000 mm 0,0 UV-I 0 W/m 7,5 C 8,4 C 0,0 km/h (0 Bft) 100,00 %
05.11.2015 20:03 8,4 C 94 % 1022,5 hPa 0,0 l/m 0,0 km/h (0 Bft) S-SO 155 0 min 0,000 mm 0,0 UV-I 0 W/m 7,5 C 8,4 C 0,0 km/h (0 Bft) 100,00 %
05.11.2015 20:04 8,4 C 94 % 1022,5 hPa 0,0 l/m 0,0 km/h (0 Bft) S-SO 155 0 min 0,000 mm 0,0 UV-I 0 W/m 7,5 C 8,4 C 0,0 km/h (0 Bft) 100,00 %
05.11.2015 20:05 8,4 C 94 % 1022,5 hPa 0,0 l/m 0,0 km/h (0 Bft) S-SO 155 0 min 0,000 mm 0,0 UV-I 0 W/m 7,5 C 8,4 C 0,0 km/h (0 Bft) 100,00 %
05.11.2015 20:06 8,5 C 94 % 1022,5 hPa 0,0 l/m 0,0 km/h (0 Bft) S-SO 155 0 min 0,000 mm 0,0 UV-I 0 W/m 7,6 C 8,5 C 0,0 km/h (0 Bft) 100,00 %
05.11.2015 20:07 8,5 C 94 % 1022,5 hPa 0,0 l/m 0,0 km/h (0 Bft) S-SO 155 0 min 0,000 mm 0,0 UV-I 0 W/m 7,6 C 8,5 C 0,0 km/h (0 Bft) 100,00 %
05.11.2015 20:08 8,5 C 94 % 1022,6 hPa 0,0 l/m 0,0 km/h (0 Bft) S-SO 155 0 min 0,000 mm 0,0 UV-I 0 W/m 7,6 C 8,5 C 0,0 km/h (0 Bft) 100,00 %
05.11.2015 20:09 8,5 C 94 % 1022,6 hPa 0,0 l/m 0,0 km/h (0 Bft) S-SO 155 0 min 0,000 mm 0,0 UV-I 0 W/m 7,6 C 8,5 C 0,0 km/h (0 Bft) 99,33 %
05.11.2015 20:10 8,4 C 94 % 1022,5 hPa 0,0 l/m 0,0 km/h (0 Bft) S-SO 155 0 min 0,000 mm 0,0 UV-I 0 W/m 7,5 C 8,4 C 0,0 km/h (0 Bft) 100,00 %
05.11.2015 20:11 8,4 C 94 % 1022,6 hPa 0,0 l/m 0,0 km/h (0 Bft) S-SO 155 0 min 0,000 mm 0,0 UV-I 0 W/m 7,5 C 8,4 C 0,0 km/h (0 Bft) 100,00 %
05.11.2015 20:12 8,4 C 94 % 1022,6 hPa 0,0 l/m 0,0 km/h (0 Bft) S-SO 155 0 min 0,000 mm 0,0 UV-I 0 W/m 7,5 C 8,4 C 0,0 km/h (0 Bft) 100,00 %
05.11.2015 20:13 8,4 C 94 % 1022,6 hPa 0,0 l/m 0,0 km/h (0 Bft) S-SO 155 0 min 0,000 mm 0,0 UV-I 0 W/m 7,5 C 8,4 C 0,0 km/h (0 Bft) 100,00 %
05.11.2015 20:14 8,4 C 94 % 1022,6 hPa 0,0 l/m 0,0 km/h (0 Bft) S-SO 155 0 min 0,000 mm 0,0 UV-I 0 W/m 7,5 C 8,4 C 0,0 km/h (0 Bft) 95,83 %
05.11.2015 20:15 8,3 C 94 % 1022,6 hPa 0,0 l/m 0,0 km/h (0 Bft) S-SO 155 0 min 0,000 mm 0,0 UV-I 0 W/m 7,4 C 8,3 C 0,0 km/h (0 Bft) 100,00 %
05.11.2015 20:16 8,4 C 94 % 1022,6 hPa 0,0 l/m 0,0 km/h (0 Bft) S-SO 155 0 min 0,000 mm 0,0 UV-I 0 W/m 7,5 C 8,4 C 0,0 km/h (0 Bft) 100,00 %
05.11.2015 20:17 8,3 C 94 % 1022,6 hPa 0,0 l/m 0,0 km/h (0 Bft) S-SO 155 0 min 0,000 mm 0,0 UV-I 0 W/m 7,4 C 8,3 C 0,0 km/h (0 Bft) 100,00 %
05.11.2015 20:18 8,3 C 94 % 1022,6 hPa 0,0 l/m 0,0 km/h (0 Bft) S-SO 155 0 min 0,000 mm 0,0 UV-I 0 W/m 7,4 C 8,3 C 0,0 km/h (0 Bft) 100,00 %
05.11.2015 20:19 8,3 C 94 % 1022,6 hPa 0,0 l/m 0,0 km/h (0 Bft) S-SO 155 0 min 0,000 mm 0,0 UV-I 0 W/m 7,4 C 8,3 C 0,0 km/h (0 Bft) 100,00 %
05.11.2015 20:20 8,3 C 94 % 1022,7 hPa 0,0 l/m 0,0 km/h (0 Bft) S-SO 155 0 min 0,000 mm 0,0 UV-I 0 W/m 7,4 C 8,3 C 0,0 km/h (0 Bft) 95,65 %
05.11.2015 20:21 8,3 C 93 % 1022,7 hPa 0,0 l/m 0,0 km/h (0 Bft) S-SO 155 0 min 0,000 mm 0,0 UV-I 0 W/m 7,2 C 8,3 C 0,0 km/h (0 Bft) 100,00 %
05.11.2015 20:22 8,2 C 93 % 1022,7 hPa 0,0 l/m 0,0 km/h (0 Bft) S-SO 155 0 min 0,000 mm 0,0 UV-I 0 W/m 7,1 C 8,2 C 0,0 km/h (0 Bft) 100,00 %
05.11.2015 20:23 8,1 C 93 % 1022,7 hPa 0,0 l/m 0,0 km/h (0 Bft) S-SO 155 0 min 0,000 mm 0,0 UV-I 0 W/m 7,0 C 8,1 C 0,0 km/h (0 Bft) 100,00 %
05.11.2015 20:24 8,0 C 93 % 1022,7 hPa 0,0 l/m 0,0 km/h (0 Bft) S-SO 155 0 min 0,000 mm 0,0 UV-I 0 W/m 6,9 C 8,0 C 0,0 km/h (0 Bft) 100,00 %
05.11.2015 20:25 7,9 C 93 % 1022,7 hPa 0,0 l/m 0,0 km/h (0 Bft) S-SO 155 0 min 0,000 mm 0,0 UV-I 0 W/m 6,8 C 7,9 C 0,0 km/h (0 Bft) 100,00 %
05.11.2015 20:26 7,9 C 94 % 1022,7 hPa 0,0 l/m 0,0 km/h (0 Bft) S-SO 155 0 min 0,000 mm 0,0 UV-I 0 W/m 7,0 C 7,9 C 0,0 km/h (0 Bft) 95,65 %
05.11.2015 20:27 7,9 C 94 % 1022,7 hPa 0,0 l/m 0,0 km/h (0 Bft) S-SO 155 0 min 0,000 mm 0,0 UV-I 0 W/m 7,0 C 7,9 C 0,0 km/h (0 Bft) 100,00 %
05.11.2015 20:28 7,9 C 95 % 1022,7 hPa 0,0 l/m 0,0 km/h (0 Bft) S-SO 155 0 min 0,000 mm 0,0 UV-I 0 W/m 7,1 C 7,9 C 0,0 km/h (0 Bft) 100,00 %
05.11.2015 20:29 7,9 C 95 % 1022,8 hPa 0,0 l/m 0,0 km/h (0 Bft) S-SO 155 0 min 0,000 mm 0,0 UV-I 0 W/m 7,1 C 7,9 C 0,0 km/h (0 Bft) 100,00 %
05.11.2015 20:30 7,9 C 95 % 1022,7 hPa 0,0 l/m 0,0 km/h (0 Bft) S-SO 155 0 min 0,000 mm 0,0 UV-I 0 W/m 7,1 C 7,9 C 0,0 km/h (0 Bft) 100,00 %
05.11.2015 20:31 7,9 C 95 % 1022,7 hPa 0,0 l/m 0,0 km/h (0 Bft) S-SO 155 0 min 0,000 mm 0,0 UV-I 0 W/m 7,1 C 7,9 C 0,0 km/h (0 Bft) 100,00 %
05.11.2015 20:32 7,9 C 94 % 1022,7 hPa 0,0 l/m 0,0 km/h (0 Bft) S-SO 155 0 min 0,000 mm 0,0 UV-I 0 W/m 7,0 C 7,9 C 0,0 km/h (0 Bft) 100,00 %
05.11.2015 20:33 7,9 C 95 % 1022,7 hPa 0,0 l/m 0,0 km/h (0 Bft) S-SO 155 0 min 0,000 mm 0,0 UV-I 0 W/m 7,1 C 7,9 C 0,0 km/h (0 Bft) 100,00 %
05.11.2015 20:34 7,9 C 95 % 1022,7 hPa 0,0 l/m 0,0 km/h (0 Bft) S-SO 155 0 min 0,000 mm 0,0 UV-I 0 W/m 7,1 C 7,9 C 0,0 km/h (0 Bft) 100,00 %
05.11.2015 20:35 7,9 C 94 % 1022,7 hPa 0,0 l/m 0,0 km/h (0 Bft) S-SO 155 0 min 0,000 mm 0,0 UV-I 0 W/m 7,0 C 7,9 C 0,0 km/h (0 Bft) 100,00 %
05.11.2015 20:36 7,8 C 94 % 1022,7 hPa 0,0 l/m 0,0 km/h (0 Bft) S-SO 155 0 min 0,000 mm 0,0 UV-I 0 W/m 6,9 C 7,8 C 0,0 km/h (0 Bft) 100,00 %
05.11.2015 20:37 7,8 C 94 % 1022,7 hPa 0,0 l/m 0,0 km/h (0 Bft) S-SO 155 0 min 0,000 mm 0,0 UV-I 0 W/m 6,9 C 7,8 C 0,0 km/h (0 Bft) 96,15 %
05.11.2015 20:38 7,7 C 94 % 1022,7 hPa 0,0 l/m 0,0 km/h (0 Bft) S-SO 155 0 min 0,000 mm 0,0 UV-I 0 W/m 6,8 C 7,7 C 0,0 km/h (0 Bft) 95,83 %
05.11.2015 20:39 7,7 C 94 % 1022,7 hPa 0,0 l/m 0,0 km/h (0 Bft) S-SO 155 0 min 0,000 mm 0,0 UV-I 0 W/m 6,8 C 7,7 C 0,0 km/h (0 Bft) 100,00 %
05.11.2015 20:40 7,7 C 95 % 1022,7 hPa 0,0 l/m 0,0 km/h (0 Bft) S-SO 155 0 min 0,000 mm 0,0 UV-I 0 W/m 7,0 C 7,7 C 0,0 km/h (0 Bft) 100,00 %
05.11.2015 20:41 7,7 C 95 % 1022,7 hPa 0,0 l/m 0,0 km/h (0 Bft) S-SO 155 0 min 0,000 mm 0,0 UV-I 0 W/m 7,0 C 7,7 C 0,0 km/h (0 Bft) 96,15 %
05.11.2015 20:42 7,8 C 95 % 1022,7 hPa 0,0 l/m 0,0 km/h (0 Bft) S-SO 155 0 min 0,000 mm 0,0 UV-I 0 W/m 7,0 C 7,8 C 0,0 km/h (0 Bft) 100,00 %
05.11.2015 20:43 7,7 C 94 % 1022,7 hPa 0,0 l/m 0,0 km/h (0 Bft) S-SO 154 0 min 0,000 mm 0,0 UV-I 0 W/m 6,8 C 7,7 C 0,0 km/h (0 Bft) 100,00 %
05.11.2015 20:44 7,7 C 94 % 1022,8 hPa 0,0 l/m 0,0 km/h (0 Bft) S-SO 155 0 min 0,000 mm 0,0 UV-I 0 W/m 6,8 C 7,7 C 0,0 km/h (0 Bft) 100,00 %
05.11.2015 20:45 7,7 C 94 % 1022,8 hPa 0,0 l/m 0,0 km/h (0 Bft) S-SO 155 0 min 0,000 mm 0,0 UV-I 0 W/m 6,8 C 7,7 C 0,0 km/h (0 Bft) 100,00 %
05.11.2015 20:46 7,7 C 94 % 1022,8 hPa 0,0 l/m 0,0 km/h (0 Bft) S-SO 155 0 min 0,000 mm 0,0 UV-I 0 W/m 6,8 C 7,7 C 0,0 km/h (0 Bft) 100,00 %
05.11.2015 20:47 7,6 C 94 % 1022,8 hPa 0,0 l/m 0,0 km/h (0 Bft) S-SO 154 0 min 0,000 mm 0,0 UV-I 0 W/m 6,7 C 7,6 C 0,0 km/h (0 Bft) 96,15 %
05.11.2015 20:48 7,6 C 94 % 1022,8 hPa 0,0 l/m 0,0 km/h (0 Bft) S-SO 154 0 min 0,000 mm 0,0 UV-I 0 W/m 6,7 C 7,6 C 0,0 km/h (0 Bft) 100,00 %
05.11.2015 20:49 7,6 C 95 % 1022,8 hPa 0,0 l/m 0,0 km/h (0 Bft) S-SO 155 0 min 0,000 mm 0,0 UV-I 0 W/m 6,9 C 7,6 C 0,0 km/h (0 Bft) 100,00 %
05.11.2015 20:50 7,6 C 95 % 1022,8 hPa 0,0 l/m 0,0 km/h (0 Bft) S-SO 155 0 min 0,000 mm 0,0 UV-I 0 W/m 6,9 C 7,6 C 0,0 km/h (0 Bft) 100,00 %
05.11.2015 20:51 7,6 C 95 % 1022,8 hPa 0,0 l/m 0,0 km/h (0 Bft) S-SO 155 0 min 0,000 mm 0,0 UV-I 0 W/m 6,9 C 7,6 C 0,0 km/h (0 Bft) 100,00 %
05.11.2015 20:52 7,5 C 95 % 1022,8 hPa 0,0 l/m 0,0 km/h (0 Bft) S-SO 155 0 min 0,000 mm 0,0 UV-I 0 W/m 6,8 C 7,5 C 0,0 km/h (0 Bft) 95,83 %
05.11.2015 20:53 7,4 C 94 % 1022,8 hPa 0,0 l/m 0,0 km/h (0 Bft) S-SO 155 0 min 0,000 mm 0,0 UV-I 0 W/m 6,5 C 7,4 C 0,0 km/h (0 Bft) 100,00 %
05.11.2015 20:54 7,4 C 94 % 1022,8 hPa 0,0 l/m 0,0 km/h (0 Bft) S-SO 155 0 min 0,000 mm 0,0 UV-I 0 W/m 6,5 C 7,4 C 0,0 km/h (0 Bft) 95,83 %
05.11.2015 20:55 7,4 C 94 % 1022,8 hPa 0,0 l/m 0,0 km/h (0 Bft) S-SO 155 0 min 0,000 mm 0,0 UV-I 0 W/m 6,5 C 7,4 C 0,0 km/h (0 Bft) 96,15 %
05.11.2015 20:56 7,3 C 95 % 1022,8 hPa 0,0 l/m 0,0 km/h (0 Bft) S-SO 155 0 min 0,000 mm 0,0 UV-I 0 W/m 6,6 C 7,3 C 0,0 km/h (0 Bft) 91,67 %
05.11.2015 20:57 7,3 C 95 % 1022,8 hPa 0,0 l/m 0,0 km/h (0 Bft) S-SO 155 0 min 0,000 mm 0,0 UV-I 0 W/m 6,6 C 7,3 C 0,0 km/h (0 Bft) 100,00 %
05.11.2015 20:58 7,3 C 95 % 1022,9 hPa 0,0 l/m 0,0 km/h (0 Bft) S-SO 155 0 min 0,000 mm 0,0 UV-I 0 W/m 6,6 C 7,3 C 0,0 km/h (0 Bft) 100,00 %
05.11.2015 20:59 7,3 C 95 % 1022,9 hPa 0,0 l/m 0,0 km/h (0 Bft) S-SO 155 0 min 0,000 mm 0,0 UV-I 0 W/m 6,6 C 7,3 C 0,0 km/h (0 Bft) 100,00 %
05.11.2015 21:00 7,3 C 95 % 1022,9 hPa 0,0 l/m 0,0 km/h (0 Bft) S-SO 155 0 min 0,000 mm 0,0 UV-I 0 W/m 6,6 C 7,3 C 0,0 km/h (0 Bft) 100,00 %
05.11.2015 21:01 7,3 C 95 % 1022,8 hPa 0,0 l/m 0,0 km/h (0 Bft) S-SO 155 0 min 0,000 mm 0,0 UV-I 0 W/m 6,6 C 7,3 C 0,0 km/h (0 Bft) 100,00 %
05.11.2015 21:02 7,3 C 95 % 1022,8 hPa 0,0 l/m 0,0 km/h (0 Bft) S-SO 149 0 min 0,000 mm 0,0 UV-I 0 W/m 6,6 C 7,3 C 0,0 km/h (0 Bft) 100,00 %
05.11.2015 21:03 7,3 C 95 % 1022,9 hPa 0,0 l/m 0,0 km/h (0 Bft) SO 137 0 min 0,000 mm 0,0 UV-I 0 W/m 6,6 C 7,3 C 0,0 km/h (0 Bft) 100,00 %
05.11.2015 21:04 7,3 C 95 % 1022,9 hPa 0,0 l/m 0,0 km/h (0 Bft) SO 137 0 min 0,000 mm 0,0 UV-I 0 W/m 6,6 C 7,3 C 0,0 km/h (0 Bft) 95,65 %
05.11.2015 21:05 7,3 C 95 % 1022,9 hPa 0,0 l/m 0,0 km/h (0 Bft) SO 137 0 min 0,000 mm 0,0 UV-I 0 W/m 6,6 C 7,3 C 0,0 km/h (0 Bft) 100,00 %
05.11.2015 21:06 7,3 C 95 % 1022,9 hPa 0,0 l/m 0,0 km/h (0 Bft) SO 137 0 min 0,000 mm 0,0 UV-I 0 W/m 6,6 C 7,3 C 0,0 km/h (0 Bft) 100,00 %
05.11.2015 21:07 7,3 C 96 % 1022,9 hPa 0,0 l/m 0,0 km/h (0 Bft) SO 137 0 min 0,000 mm 0,0 UV-I 0 W/m 6,7 C 7,3 C 0,0 km/h (0 Bft) 100,00 %
05.11.2015 21:08 7,4 C 96 % 1023,0 hPa 0,0 l/m 0,0 km/h (0 Bft) SO 137 0 min 0,000 mm 0,0 UV-I 0 W/m 6,8 C 7,4 C 0,0 km/h (0 Bft) 100,00 %
05.11.2015 21:09 7,4 C 96 % 1022,9 hPa 0,0 l/m 0,0 km/h (0 Bft) SO 137 0 min 0,000 mm 0,0 UV-I 0 W/m 6,8 C 7,4 C 0,0 km/h (0 Bft) 100,00 %
05.11.2015 21:10 7,4 C 96 % 1023,0 hPa 0,0 l/m 0,0 km/h (0 Bft) SO 137 0 min 0,000 mm 0,0 UV-I 0 W/m 6,8 C 7,4 C 0,0 km/h (0 Bft) 100,00 %
05.11.2015 21:11 7,4 C 95 % 1022,9 hPa 0,0 l/m 0,0 km/h (0 Bft) SO 137 0 min 0,000 mm 0,0 UV-I 0 W/m 6,7 C 7,4 C 0,0 km/h (0 Bft) 100,00 %
05.11.2015 21:12 7,3 C 95 % 1022,9 hPa 0,0 l/m 0,0 km/h (0 Bft) SO 137 0 min 0,000 mm 0,0 UV-I 0 W/m 6,6 C 7,3 C 0,0 km/h (0 Bft) 100,00 %
05.11.2015 21:13 7,2 C 94 % 1022,9 hPa 0,0 l/m 0,0 km/h (0 Bft) SO 137 0 min 0,000 mm 0,0 UV-I 0 W/m 6,3 C 7,2 C 0,0 km/h (0 Bft) 95,83 %
05.11.2015 21:14 7,0 C 94 % 1022,9 hPa 0,0 l/m 0,0 km/h (0 Bft) SO 137 0 min 0,000 mm 0,0 UV-I 0 W/m 6,1 C 7,0 C 0,0 km/h (0 Bft) 100,00 %
05.11.2015 21:15 6,9 C 94 % 1022,8 hPa 0,0 l/m 0,0 km/h (0 Bft) SO 137 0 min 0,000 mm 0,0 UV-I 0 W/m 6,0 C 6,9 C 0,0 km/h (0 Bft) 100,00 %
05.11.2015 21:16 6,8 C 94 % 1022,9 hPa 0,0 l/m 0,0 km/h (0 Bft) SO 137 0 min 0,000 mm 0,0 UV-I 0 W/m 5,9 C 6,8 C 0,0 km/h (0 Bft) 100,00 %
05.11.2015 21:17 6,7 C 95 % 1023,0 hPa 0,0 l/m 0,0 km/h (0 Bft) SO 137 0 min 0,000 mm 0,0 UV-I 0 W/m 6,0 C 6,7 C 0,0 km/h (0 Bft) 95,83 %
05.11.2015 21:18 6,7 C 95 % 1023,0 hPa 0,0 l/m 0,0 km/h (0 Bft) SO 137 0 min 0,000 mm 0,0 UV-I 0 W/m 6,0 C 6,7 C 0,0 km/h (0 Bft) 100,00 %
05.11.2015 21:19 6,6 C 94 % 1022,9 hPa 0,0 l/m 0,0 km/h (0 Bft) SO 137 0 min 0,000 mm 0,0 UV-I 0 W/m 5,7 C 6,6 C 0,0 km/h (0 Bft) 100,00 %
05.11.2015 21:20 6,6 C 95 % 1022,9 hPa 0,0 l/m 0,0 km/h (0 Bft) SO 137 0 min 0,000 mm 0,0 UV-I 0 W/m 5,9 C 6,6 C 0,0 km/h (0 Bft) 100,00 %
05.11.2015 21:21 6,5 C 95 % 1022,9 hPa 0,0 l/m 0,0 km/h (0 Bft) SO 137 0 min 0,000 mm 0,0 UV-I 0 W/m 5,8 C 6,5 C 0,0 km/h (0 Bft) 100,00 %
05.11.2015 21:22 6,4 C 95 % 1022,9 hPa 0,0 l/m 0,0 km/h (0 Bft) SO 137 0 min 0,000 mm 0,0 UV-I 0 W/m 5,7 C 6,4 C 0,0 km/h (0 Bft) 100,00 %
05.11.2015 21:23 6,4 C 96 % 1022,9 hPa 0,0 l/m 0,0 km/h (0 Bft) SO 137 0 min 0,000 mm 0,0 UV-I 0 W/m 5,8 C 6,4 C 0,0 km/h (0 Bft) 100,00 %
05.11.2015 21:24 6,5 C 96 % 1022,9 hPa 0,0 l/m 0,0 km/h (0 Bft) SO 137 0 min 0,000 mm 0,0 UV-I 0 W/m 5,9 C 6,5 C 0,0 km/h (0 Bft) 100,00 %
05.11.2015 21:25 6,5 C 96 % 1022,9 hPa 0,0 l/m 0,0 km/h (0 Bft) SO 137 0 min 0,000 mm 0,0 UV-I 0 W/m 5,9 C 6,5 C 0,0 km/h (0 Bft) 100,00 %
05.11.2015 21:26 6,4 C 96 % 1022,9 hPa 0,0 l/m 0,5 km/h (0 Bft) SO 137 0 min 0,000 mm 0,0 UV-I 0 W/m 5,8 C 6,4 C 3,2 km/h (1 Bft) 100,00 %
05.11.2015 21:27 6,5 C 96 % 1022,9 hPa 0,0 l/m 2,0 km/h (1 Bft) SO 137 0 min 0,000 mm 0,0 UV-I 0 W/m 5,9 C 6,5 C 3,2 km/h (1 Bft) 100,00 %
05.11.2015 21:28 6,6 C 96 % 1022,9 hPa 0,0 l/m 2,3 km/h (1 Bft) SO 136 0 min 0,000 mm 0,0 UV-I 0 W/m 6,0 C 6,6 C 3,2 km/h (1 Bft) 100,00 %
05.11.2015 21:29 6,6 C 96 % 1022,9 hPa 0,0 l/m 2,2 km/h (1 Bft) SO 136 0 min 0,000 mm 0,0 UV-I 0 W/m 6,0 C 6,6 C 3,2 km/h (1 Bft) 100,00 %
05.11.2015 21:30 6,5 C 96 % 1022,8 hPa 0,0 l/m 1,5 km/h (1 Bft) SO 136 0 min 0,000 mm 0,0 UV-I 0 W/m 5,9 C 6,5 C 3,2 km/h (1 Bft) 91,67 %
05.11.2015 21:31 6,4 C 96 % 1022,9 hPa 0,0 l/m 2,0 km/h (1 Bft) SO 136 0 min 0,000 mm 0,0 UV-I 0 W/m 5,8 C 6,4 C 3,2 km/h (1 Bft) 95,65 %
05.11.2015 21:32 6,4 C 96 % 1022,8 hPa 0,0 l/m 2,1 km/h (1 Bft) SO 136 0 min 0,000 mm 0,0 UV-I 0 W/m 5,8 C 6,4 C 3,2 km/h (1 Bft) 100,00 %
05.11.2015 21:33 6,4 C 96 % 1022,8 hPa 0,0 l/m 2,0 km/h (1 Bft) SO 136 0 min 0,000 mm 0,0 UV-I 0 W/m 5,8 C 6,4 C 3,2 km/h (1 Bft) 100,00 %
05.11.2015 21:34 6,3 C 96 % 1022,8 hPa 0,0 l/m 2,7 km/h (1 Bft) SO 136 0 min 0,000 mm 0,0 UV-I 0 W/m 5,7 C 6,3 C 3,2 km/h (1 Bft) 100,00 %
05.11.2015 21:35 6,3 C 96 % 1022,8 hPa 0,0 l/m 2,4 km/h (1 Bft) SO 133 0 min 0,000 mm 0,0 UV-I 0 W/m 5,7 C 6,3 C 3,2 km/h (1 Bft) 100,00 %
05.11.2015 21:36 6,3 C 96 % 1022,8 hPa 0,0 l/m 2,7 km/h (1 Bft) SO 131 0 min 0,000 mm 0,0 UV-I 0 W/m 5,7 C 6,3 C 3,2 km/h (1 Bft) 100,00 %
05.11.2015 21:37 6,3 C 96 % 1022,9 hPa 0,0 l/m 2,3 km/h (1 Bft) SO 131 0 min 0,000 mm 0,0 UV-I 0 W/m 5,7 C 6,3 C 3,2 km/h (1 Bft) 100,00 %
05.11.2015 21:38 6,4 C 97 % 1022,9 hPa 0,0 l/m 1,8 km/h (1 Bft) SO 131 0 min 0,000 mm 0,0 UV-I 0 W/m 6,0 C 6,4 C 3,2 km/h (1 Bft) 95,65 %
05.11.2015 21:39 6,4 C 97 % 1022,9 hPa 0,0 l/m 1,5 km/h (1 Bft) SO 131 0 min 0,000 mm 0,0 UV-I 0 W/m 6,0 C 6,4 C 3,2 km/h (1 Bft) 100,00 %
05.11.2015 21:40 6,3 C 96 % 1022,8 hPa 0,0 l/m 0,9 km/h (0 Bft) SO 131 0 min 0,000 mm 0,0 UV-I 0 W/m 5,7 C 6,3 C 1,6 km/h (1 Bft) 100,00 %
05.11.2015 21:41 6,3 C 96 % 1022,9 hPa 0,0 l/m 0,5 km/h (0 Bft) SO 131 0 min 0,000 mm 0,0 UV-I 0 W/m 5,7 C 6,3 C 1,6 km/h (1 Bft) 96,30 %
05.11.2015 21:42 6,2 C 96 % 1022,8 hPa 0,0 l/m 0,6 km/h (0 Bft) SO 131 0 min 0,000 mm 0,0 UV-I 0 W/m 5,6 C 6,2 C 1,6 km/h (1 Bft) 100,00 %
05.11.2015 21:43 6,1 C 96 % 1022,8 hPa 0,0 l/m 0,1 km/h (0 Bft) SO 131 0 min 0,000 mm 0,0 UV-I 0 W/m 5,5 C 6,1 C 1,6 km/h (1 Bft) 100,00 %
05.11.2015 21:44 6,0 C 95 % 1022,8 hPa 0,0 l/m 0,2 km/h (0 Bft) SO 131 0 min 0,000 mm 0,0 UV-I 0 W/m 5,3 C 6,0 C 1,6 km/h (1 Bft) 100,00 %
05.11.2015 21:45 6,0 C 96 % 1022,8 hPa 0,0 l/m 0,1 km/h (0 Bft) SO 131 0 min 0,000 mm 0,0 UV-I 0 W/m 5,4 C 6,0 C 1,6 km/h (1 Bft) 100,00 %
05.11.2015 21:46 5,9 C 96 % 1022,8 hPa 0,0 l/m 0,0 km/h (0 Bft) SO 131 0 min 0,000 mm 0,0 UV-I 0 W/m 5,3 C 5,9 C 0,0 km/h (0 Bft) 95,65 %
05.11.2015 21:47 5,9 C 96 % 1022,8 hPa 0,0 l/m 0,1 km/h (0 Bft) SO 131 0 min 0,000 mm 0,0 UV-I 0 W/m 5,3 C 5,9 C 1,6 km/h (1 Bft) 95,83 %
05.11.2015 21:48 5,9 C 96 % 1022,8 hPa 0,0 l/m 0,0 km/h (0 Bft) SO 131 0 min 0,000 mm 0,0 UV-I 0 W/m 5,3 C 5,9 C 0,0 km/h (0 Bft) 100,00 %
05.11.2015 21:49 5,9 C 96 % 1022,8 hPa 0,0 l/m 0,0 km/h (0 Bft) SO 131 0 min 0,000 mm 0,0 UV-I 0 W/m 5,3 C 5,9 C 0,0 km/h (0 Bft) 95,83 %
05.11.2015 21:50 5,9 C 96 % 1022,8 hPa 0,0 l/m 0,0 km/h (0 Bft) SO 131 0 min 0,000 mm 0,0 UV-I 0 W/m 5,3 C 5,9 C 0,0 km/h (0 Bft) 100,00 %
05.11.2015 21:51 5,9 C 96 % 1022,9 hPa 0,0 l/m 0,1 km/h (0 Bft) SO 131 0 min 0,000 mm 0,0 UV-I 0 W/m 5,3 C 5,9 C 1,6 km/h (1 Bft) 100,00 %
05.11.2015 21:52 5,9 C 96 % 1022,9 hPa 0,0 l/m 1,1 km/h (1 Bft) SO 131 0 min 0,000 mm 0,0 UV-I 0 W/m 5,3 C 5,9 C 1,6 km/h (1 Bft) 100,00 %
05.11.2015 21:53 5,8 C 96 % 1022,9 hPa 0,0 l/m 1,3 km/h (1 Bft) SO 131 0 min 0,000 mm 0,0 UV-I 0 W/m 5,2 C 5,8 C 1,6 km/h (1 Bft) 100,00 %
05.11.2015 21:54 5,7 C 96 % 1022,9 hPa 0,0 l/m 1,8 km/h (1 Bft) SO 132 0 min 0,000 mm 0,0 UV-I 0 W/m 5,1 C 5,7 C 3,2 km/h (1 Bft) 100,00 %
05.11.2015 21:55 5,6 C 95 % 1023,0 hPa 0,0 l/m 1,5 km/h (1 Bft) SO 132 0 min 0,000 mm 0,0 UV-I 0 W/m 4,9 C 5,6 C 3,2 km/h (1 Bft) 100,00 %
05.11.2015 21:56 5,5 C 96 % 1022,9 hPa 0,0 l/m 1,0 km/h (0 Bft) SO 132 0 min 0,000 mm 0,0 UV-I 0 W/m 4,9 C 5,5 C 1,6 km/h (1 Bft) 100,00 %
05.11.2015 21:57 5,4 C 95 % 1023,0 hPa 0,0 l/m 0,6 km/h (0 Bft) SO 132 0 min 0,000 mm 0,0 UV-I 0 W/m 4,7 C 5,4 C 1,6 km/h (1 Bft) 100,00 %
05.11.2015 21:58 5,4 C 96 % 1023,0 hPa 0,0 l/m 0,8 km/h (0 Bft) SO 132 0 min 0,000 mm 0,0 UV-I 0 W/m 4,8 C 5,4 C 1,6 km/h (1 Bft) 100,00 %
05.11.2015 21:59 5,3 C 96 % 1023,0 hPa 0,0 l/m 0,6 km/h (0 Bft) SO 132 0 min 0,000 mm 0,0 UV-I 0 W/m 4,7 C 5,3 C 1,6 km/h (1 Bft) 100,00 %
05.11.2015 22:00 5,3 C 96 % 1023,0 hPa 0,0 l/m 0,1 km/h (0 Bft) SO 132 0 min 0,000 mm 0,0 UV-I 0 W/m 4,7 C 5,3 C 1,6 km/h (1 Bft) 100,00 %
05.11.2015 22:01 5,3 C 96 % 1023,0 hPa 0,0 l/m 0,7 km/h (0 Bft) SO 132 0 min 0,000 mm 0,0 UV-I 0 W/m 4,7 C 5,3 C 1,6 km/h (1 Bft) 100,00 %
05.11.2015 22:02 5,3 C 96 % 1023,0 hPa 0,0 l/m 1,1 km/h (1 Bft) SO 132 0 min 0,000 mm 0,0 UV-I 0 W/m 4,7 C 5,3 C 1,6 km/h (1 Bft) 100,00 %
05.11.2015 22:03 5,4 C 97 % 1023,0 hPa 0,0 l/m 1,0 km/h (0 Bft) SO 132 0 min 0,000 mm 0,0 UV-I 0 W/m 5,0 C 5,4 C 1,6 km/h (1 Bft) 100,00 %
05.11.2015 22:04 5,4 C 97 % 1023,0 hPa 0,0 l/m 0,0 km/h (0 Bft) SO 132 0 min 0,000 mm 0,0 UV-I 0 W/m 5,0 C 5,4 C 0,0 km/h (0 Bft) 100,00 %
05.11.2015 22:05 5,5 C 97 % 1023,0 hPa 0,0 l/m 0,0 km/h (0 Bft) SO 132 0 min 0,000 mm 0,0 UV-I 0 W/m 5,1 C 5,5 C 0,0 km/h (0 Bft) 99,31 %
05.11.2015 22:06 5,6 C 97 % 1023,0 hPa 0,0 l/m 1,0 km/h (0 Bft) SO 132 0 min 0,000 mm 0,0 UV-I 0 W/m 5,2 C 5,6 C 1,6 km/h (1 Bft) 100,00 %
05.11.2015 22:07 5,7 C 97 % 1023,0 hPa 0,0 l/m 1,4 km/h (1 Bft) SO 132 0 min 0,000 mm 0,0 UV-I 0 W/m 5,3 C 5,7 C 3,2 km/h (1 Bft) 100,00 %
05.11.2015 22:08 5,8 C 97 % 1023,0 hPa 0,0 l/m 1,3 km/h (1 Bft) SO 132 0 min 0,000 mm 0,0 UV-I 0 W/m 5,4 C 5,8 C 1,6 km/h (1 Bft) 100,00 %
05.11.2015 22:09 5,8 C 97 % 1023,0 hPa 0,0 l/m 1,9 km/h (1 Bft) SO 132 0 min 0,000 mm 0,0 UV-I 0 W/m 5,4 C 5,8 C 3,2 km/h (1 Bft) 100,00 %
05.11.2015 22:10 5,9 C 97 % 1023,0 hPa 0,0 l/m 2,1 km/h (1 Bft) SO 132 0 min 0,000 mm 0,0 UV-I 0 W/m 5,5 C 5,9 C 3,2 km/h (1 Bft) 100,00 %
05.11.2015 22:11 6,1 C 97 % 1023,0 hPa 0,0 l/m 1,2 km/h (1 Bft) SO 132 0 min 0,000 mm 0,0 UV-I 0 W/m 5,7 C 6,1 C 3,2 km/h (1 Bft) 100,00 %
05.11.2015 22:12 6,2 C 97 % 1023,0 hPa 0,0 l/m 2,3 km/h (1 Bft) SO 131 0 min 0,000 mm 0,0 UV-I 0 W/m 5,8 C 6,2 C 3,2 km/h (1 Bft) 100,00 %
05.11.2015 22:13 6,3 C 97 % 1023,0 hPa 0,0 l/m 2,0 km/h (1 Bft) SO 131 0 min 0,000 mm 0,0 UV-I 0 W/m 5,9 C 6,3 C 3,2 km/h (1 Bft) 100,00 %
05.11.2015 22:14 6,3 C 97 % 1022,9 hPa 0,0 l/m 0,7 km/h (0 Bft) SO 131 0 min 0,000 mm 0,0 UV-I 0 W/m 5,9 C 6,3 C 1,6 km/h (1 Bft) 100,00 %
05.11.2015 22:15 6,3 C 97 % 1022,9 hPa 0,0 l/m 1,0 km/h (0 Bft) SO 134 0 min 0,000 mm 0,0 UV-I 0 W/m 5,9 C 6,3 C 1,6 km/h (1 Bft) 91,67 %
05.11.2015 22:16 6,3 C 97 % 1022,9 hPa 0,0 l/m 0,7 km/h (0 Bft) SO 134 0 min 0,000 mm 0,0 UV-I 0 W/m 5,9 C 6,3 C 1,6 km/h (1 Bft) 100,00 %
05.11.2015 22:20 6,1 C 97 % 1022,9 hPa 0,0 l/m 1,6 km/h (1 Bft) SO 135 0 min 0,000 mm 0,0 UV-I 0 W/m 5,7 C 6,1 C 4,8 km/h (1 Bft) 100,00 %
05.11.2015 22:26 6,2 C 97 % 1022,8 hPa 0,0 l/m 0,0 km/h (0 Bft) S-SO 166 0 min 0,000 mm 0,0 UV-I 0 W/m 5,8 C 6,2 C 0,0 km/h (0 Bft) 99,04 %
05.11.2015 22:27 6,3 C 97 % 1022,8 hPa 0,0 l/m 0,0 km/h (0 Bft) S-SO 166 0 min 0,000 mm 0,0 UV-I 0 W/m 5,9 C 6,3 C 0,0 km/h (0 Bft) 100,00 %
05.11.2015 22:28 6,3 C 97 % 1022,8 hPa 0,0 l/m 0,0 km/h (0 Bft) S-SO 166 0 min 0,000 mm 0,0 UV-I 0 W/m 5,9 C 6,3 C 0,0 km/h (0 Bft) 100,00 %
05.11.2015 22:30 6,3 C 97 % 1022,8 hPa 0,0 l/m 0,0 km/h (0 Bft) S-SO 157 0 min 0,000 mm 0,0 UV-I 0 W/m 5,9 C 6,3 C 1,6 km/h (1 Bft) 96,49 %
05.11.2015 22:35 5,6 C 95 % 1022,8 hPa 0,0 l/m 0,0 km/h (0 Bft) S-SO 157 0 min 0,000 mm 0,0 UV-I 0 W/m 4,9 C 5,6 C 1,6 km/h (1 Bft) 100,00 %
05.11.2015 22:36 5,5 C 95 % 1022,8 hPa 0,0 l/m 0,0 km/h (0 Bft) S-SO 166 0 min 0,000 mm 0,0 UV-I 0 W/m 4,8 C 5,5 C 0,0 km/h (0 Bft) 99,34 %
05.11.2015 22:40 5,2 C 96 % 1022,7 hPa 0,0 l/m 0,0 km/h (0 Bft) S-SO 157 0 min 0,000 mm 0,0 UV-I 0 W/m 4,6 C 5,2 C 1,6 km/h (1 Bft) 100,00 %
05.11.2015 22:41 5,2 C 96 % 1022,7 hPa 0,0 l/m 0,0 km/h (0 Bft) S-SO 166 0 min 0,000 mm 0,0 UV-I 0 W/m 4,6 C 5,2 C 0,0 km/h (0 Bft) 100,00 %
05.11.2015 22:42 5,2 C 96 % 1022,7 hPa 0,0 l/m 0,0 km/h (0 Bft) S-SO 166 0 min 0,000 mm 0,0 UV-I 0 W/m 4,6 C 5,2 C 0,0 km/h (0 Bft) 100,00 %
05.11.2015 22:43 5,1 C 96 % 1022,7 hPa 0,0 l/m 0,0 km/h (0 Bft) S-SO 166 0 min 0,000 mm 0,0 UV-I 0 W/m 4,5 C 5,1 C 0,0 km/h (0 Bft) 100,00 %
05.11.2015 22:44 5,2 C 96 % 1022,7 hPa 0,0 l/m 0,0 km/h (0 Bft) S-SO 166 0 min 0,000 mm 0,0 UV-I 0 W/m 4,6 C 5,2 C 0,0 km/h (0 Bft) 100,00 %
05.11.2015 22:45 5,2 C 97 % 1022,7 hPa 0,0 l/m 0,0 km/h (0 Bft) S-SO 166 0 min 0,000 mm 0,0 UV-I 0 W/m 4,8 C 5,2 C 0,0 km/h (0 Bft) 100,00 %
05.11.2015 22:46 5,2 C 97 % 1022,7 hPa 0,0 l/m 0,0 km/h (0 Bft) S-SO 166 0 min 0,000 mm 0,0 UV-I 0 W/m 4,8 C 5,2 C 0,0 km/h (0 Bft) 100,00 %
05.11.2015 22:47 5,2 C 97 % 1022,7 hPa 0,0 l/m 0,0 km/h (0 Bft) S-SO 166 0 min 0,000 mm 0,0 UV-I 0 W/m 4,8 C 5,2 C 0,0 km/h (0 Bft) 100,00 %
05.11.2015 22:48 5,2 C 97 % 1022,7 hPa 0,0 l/m 0,0 km/h (0 Bft) S-SO 166 0 min 0,000 mm 0,0 UV-I 0 W/m 4,8 C 5,2 C 0,0 km/h (0 Bft) 100,00 %
05.11.2015 22:49 5,3 C 97 % 1022,6 hPa 0,0 l/m 0,0 km/h (0 Bft) S-SO 166 0 min 0,000 mm 0,0 UV-I 0 W/m 4,9 C 5,3 C 0,0 km/h (0 Bft) 100,00 %
05.11.2015 22:50 5,3 C 97 % 1022,6 hPa 0,0 l/m 0,0 km/h (0 Bft) S-SO 166 0 min 0,000 mm 0,0 UV-I 0 W/m 4,9 C 5,3 C 0,0 km/h (0 Bft) 100,00 %
05.11.2015 22:51 5,3 C 97 % 1022,7 hPa 0,0 l/m 0,5 km/h (0 Bft) S-SO 166 0 min 0,000 mm 0,0 UV-I 0 W/m 4,9 C 5,3 C 1,6 km/h (1 Bft) 100,00 %
05.11.2015 22:52 5,4 C 97 % 1022,6 hPa 0,0 l/m 0,0 km/h (0 Bft) S-SO 166 0 min 0,000 mm 0,0 UV-I 0 W/m 5,0 C 5,4 C 0,0 km/h (0 Bft) 100,00 %
05.11.2015 22:53 5,4 C 97 % 1022,6 hPa 0,0 l/m 0,0 km/h (0 Bft) S-SO 166 0 min 0,000 mm 0,0 UV-I 0 W/m 5,0 C 5,4 C 0,0 km/h (0 Bft) 100,00 %
05.11.2015 22:54 5,4 C 97 % 1022,6 hPa 0,0 l/m 0,0 km/h (0 Bft) S-SO 166 0 min 0,000 mm 0,0 UV-I 0 W/m 5,0 C 5,4 C 0,0 km/h (0 Bft) 100,00 %
05.11.2015 22:55 5,4 C 97 % 1022,6 hPa 0,0 l/m 0,0 km/h (0 Bft) S-SO 166 0 min 0,000 mm 0,0 UV-I 0 W/m 5,0 C 5,4 C 0,0 km/h (0 Bft) 100,00 %
05.11.2015 22:56 5,5 C 97 % 1022,6 hPa 0,0 l/m 0,1 km/h (0 Bft) S-SO 166 0 min 0,000 mm 0,0 UV-I 0 W/m 5,1 C 5,5 C 1,6 km/h (1 Bft) 100,00 %
05.11.2015 22:57 5,4 C 97 % 1022,6 hPa 0,0 l/m 0,0 km/h (0 Bft) S-SO 166 0 min 0,000 mm 0,0 UV-I 0 W/m 5,0 C 5,4 C 0,0 km/h (0 Bft) 100,00 %
05.11.2015 22:58 5,4 C 97 % 1022,6 hPa 0,0 l/m 0,0 km/h (0 Bft) S-SO 166 0 min 0,000 mm 0,0 UV-I 0 W/m 5,0 C 5,4 C 0,0 km/h (0 Bft) 100,00 %
05.11.2015 22:59 5,3 C 97 % 1022,6 hPa 0,0 l/m 0,0 km/h (0 Bft) S-SO 166 0 min 0,000 mm 0,0 UV-I 0 W/m 4,9 C 5,3 C 0,0 km/h (0 Bft) 100,00 %
05.11.2015 23:00 5,4 C 97 % 1022,7 hPa 0,0 l/m 0,0 km/h (0 Bft) S-SO 166 0 min 0,000 mm 0,0 UV-I 0 W/m 5,0 C 5,4 C 0,0 km/h (0 Bft) 100,00 %
05.11.2015 23:01 5,4 C 97 % 1022,7 hPa 0,0 l/m 0,0 km/h (0 Bft) S-SO 166 0 min 0,000 mm 0,0 UV-I 0 W/m 5,0 C 5,4 C 0,0 km/h (0 Bft) 100,00 %
05.11.2015 23:02 5,4 C 97 % 1022,7 hPa 0,0 l/m 0,0 km/h (0 Bft) S-SO 166 0 min 0,000 mm 0,0 UV-I 0 W/m 5,0 C 5,4 C 0,0 km/h (0 Bft) 100,00 %
05.11.2015 23:03 5,4 C 97 % 1022,7 hPa 0,0 l/m 0,0 km/h (0 Bft) S-SO 166 0 min 0,000 mm 0,0 UV-I 0 W/m 5,0 C 5,4 C 0,0 km/h (0 Bft) 96,15 %
05.11.2015 23:04 5,5 C 97 % 1022,7 hPa 0,0 l/m 0,0 km/h (0 Bft) S-SO 166 0 min 0,000 mm 0,0 UV-I 0 W/m 5,1 C 5,5 C 0,0 km/h (0 Bft) 100,00 %
05.11.2015 23:05 5,5 C 97 % 1022,7 hPa 0,0 l/m 0,0 km/h (0 Bft) S-SO 166 0 min 0,000 mm 0,0 UV-I 0 W/m 5,1 C 5,5 C 0,0 km/h (0 Bft) 100,00 %
05.11.2015 23:06 5,4 C 97 % 1022,7 hPa 0,0 l/m 0,0 km/h (0 Bft) S-SO 166 0 min 0,000 mm 0,0 UV-I 0 W/m 5,0 C 5,4 C 0,0 km/h (0 Bft) 100,00 %
05.11.2015 23:08 5,4 C 97 % 1022,7 hPa 0,0 l/m 0,0 km/h (0 Bft) S-SO 166 0 min 0,000 mm 0,0 UV-I 0 W/m 5,0 C 5,4 C 0,0 km/h (0 Bft) 100,00 %
05.11.2015 23:09 5,4 C 97 % 1022,7 hPa 0,0 l/m 0,0 km/h (0 Bft) S-SO 166 0 min 0,000 mm 0,0 UV-I 0 W/m 5,0 C 5,4 C 0,0 km/h (0 Bft) 100,00 %
05.11.2015 23:10 5,4 C 97 % 1022,7 hPa 0,0 l/m 0,0 km/h (0 Bft) S-SO 166 0 min 0,000 mm 0,0 UV-I 0 W/m 5,0 C 5,4 C 0,0 km/h (0 Bft) 100,00 %
05.11.2015 23:11 5,4 C 97 % 1022,7 hPa 0,0 l/m 0,0 km/h (0 Bft) S-SO 166 0 min 0,000 mm 0,0 UV-I 0 W/m 5,0 C 5,4 C 0,0 km/h (0 Bft) 95,65 %
05.11.2015 23:12 5,4 C 97 % 1022,7 hPa 0,0 l/m 0,0 km/h (0 Bft) S-SO 166 0 min 0,000 mm 0,0 UV-I 0 W/m 5,0 C 5,4 C 0,0 km/h (0 Bft) 100,00 %
05.11.2015 23:13 5,5 C 97 % 1022,7 hPa 0,0 l/m 0,0 km/h (0 Bft) S-SO 166 0 min 0,000 mm 0,0 UV-I 0 W/m 5,1 C 5,5 C 0,0 km/h (0 Bft) 100,00 %
05.11.2015 23:14 5,5 C 97 % 1022,7 hPa 0,0 l/m 0,0 km/h (0 Bft) S-SO 166 0 min 0,000 mm 0,0 UV-I 0 W/m 5,1 C 5,5 C 0,0 km/h (0 Bft) 100,00 %
05.11.2015 23:15 5,6 C 97 % 1022,7 hPa 0,0 l/m 0,0 km/h (0 Bft) S-SO 166 0 min 0,000 mm 0,0 UV-I 0 W/m 5,2 C 5,6 C 0,0 km/h (0 Bft) 95,65 %
05.11.2015 23:16 5,6 C 97 % 1022,7 hPa 0,0 l/m 0,0 km/h (0 Bft) S-SO 166 0 min 0,000 mm 0,0 UV-I 0 W/m 5,2 C 5,6 C 0,0 km/h (0 Bft) 100,00 %
05.11.2015 23:17 5,5 C 97 % 1022,7 hPa 0,0 l/m 0,0 km/h (0 Bft) S-SO 166 0 min 0,000 mm 0,0 UV-I 0 W/m 5,1 C 5,5 C 0,0 km/h (0 Bft) 100,00 %
05.11.2015 23:18 5,4 C 97 % 1022,7 hPa 0,0 l/m 0,0 km/h (0 Bft) S-SO 166 0 min 0,000 mm 0,0 UV-I 0 W/m 5,0 C 5,4 C 0,0 km/h (0 Bft) 100,00 %
05.11.2015 23:19 5,3 C 97 % 1022,7 hPa 0,0 l/m 0,0 km/h (0 Bft) S-SO 166 0 min 0,000 mm 0,0 UV-I 0 W/m 4,9 C 5,3 C 0,0 km/h (0 Bft) 100,00 %
05.11.2015 23:20 5,3 C 97 % 1022,7 hPa 0,0 l/m 0,0 km/h (0 Bft) S-SO 166 0 min 0,000 mm 0,0 UV-I 0 W/m 4,9 C 5,3 C 0,0 km/h (0 Bft) 100,00 %
05.11.2015 23:21 5,3 C 97 % 1022,7 hPa 0,0 l/m 0,0 km/h (0 Bft) S-SO 166 0 min 0,000 mm 0,0 UV-I 0 W/m 4,9 C 5,3 C 0,0 km/h (0 Bft) 100,00 %
05.11.2015 23:22 5,4 C 97 % 1022,7 hPa 0,0 l/m 0,0 km/h (0 Bft) S-SO 166 0 min 0,000 mm 0,0 UV-I 0 W/m 5,0 C 5,4 C 0,0 km/h (0 Bft) 100,00 %
05.11.2015 23:23 5,4 C 97 % 1022,7 hPa 0,0 l/m 0,0 km/h (0 Bft) S-SO 166 0 min 0,000 mm 0,0 UV-I 0 W/m 5,0 C 5,4 C 0,0 km/h (0 Bft) 100,00 %
05.11.2015 23:24 5,5 C 97 % 1022,7 hPa 0,0 l/m 1,6 km/h (1 Bft) S-SO 165 0 min 0,000 mm 0,0 UV-I 0 W/m 5,1 C 5,5 C 1,6 km/h (1 Bft) 100,00 %
05.11.2015 23:25 5,4 C 97 % 1022,7 hPa 0,0 l/m 1,8 km/h (1 Bft) S-SO 165 0 min 0,000 mm 0,0 UV-I 0 W/m 5,0 C 5,4 C 3,2 km/h (1 Bft) 100,00 %
05.11.2015 23:26 5,3 C 97 % 1022,7 hPa 0,0 l/m 1,4 km/h (1 Bft) S-SO 165 0 min 0,000 mm 0,0 UV-I 0 W/m 4,9 C 5,3 C 1,6 km/h (1 Bft) 100,00 %
05.11.2015 23:27 5,2 C 97 % 1022,7 hPa 0,0 l/m 1,6 km/h (1 Bft) S-SO 165 0 min 0,000 mm 0,0 UV-I 0 W/m 4,8 C 5,2 C 3,2 km/h (1 Bft) 100,00 %
05.11.2015 23:28 5,2 C 97 % 1022,7 hPa 0,0 l/m 0,6 km/h (0 Bft) S-SO 165 0 min 0,000 mm 0,0 UV-I 0 W/m 4,8 C 5,2 C 1,6 km/h (1 Bft) 100,00 %
05.11.2015 23:29 5,1 C 97 % 1022,7 hPa 0,0 l/m 0,0 km/h (0 Bft) S-SO 165 0 min 0,000 mm 0,0 UV-I 0 W/m 4,7 C 5,1 C 0,0 km/h (0 Bft) 100,00 %
05.11.2015 23:30 5,0 C 97 % 1022,7 hPa 0,0 l/m 0,0 km/h (0 Bft) S-SO 165 0 min 0,000 mm 0,0 UV-I 0 W/m 4,6 C 5,0 C 0,0 km/h (0 Bft) 100,00 %
05.11.2015 23:31 5,0 C 97 % 1022,7 hPa 0,0 l/m 0,0 km/h (0 Bft) S-SO 165 0 min 0,000 mm 0,0 UV-I 0 W/m 4,6 C 5,0 C 0,0 km/h (0 Bft) 95,83 %
05.11.2015 23:32 5,0 C 97 % 1022,7 hPa 0,0 l/m 0,0 km/h (0 Bft) S-SO 165 0 min 0,000 mm 0,0 UV-I 0 W/m 4,6 C 5,0 C 0,0 km/h (0 Bft) 100,00 %
05.11.2015 23:33 5,0 C 97 % 1022,7 hPa 0,0 l/m 0,0 km/h (0 Bft) S-SO 165 0 min 0,000 mm 0,0 UV-I 0 W/m 4,6 C 5,0 C 0,0 km/h (0 Bft) 100,00 %
05.11.2015 23:34 5,1 C 97 % 1022,7 hPa 0,0 l/m 0,0 km/h (0 Bft) S-SO 165 0 min 0,000 mm 0,0 UV-I 0 W/m 4,7 C 5,1 C 0,0 km/h (0 Bft) 100,00 %
05.11.2015 23:35 5,1 C 97 % 1022,7 hPa 0,0 l/m 0,0 km/h (0 Bft) S-SO 165 0 min 0,000 mm 0,0 UV-I 0 W/m 4,7 C 5,1 C 0,0 km/h (0 Bft) 100,00 %
05.11.2015 23:36 5,1 C 97 % 1022,8 hPa 0,0 l/m 0,0 km/h (0 Bft) S-SO 165 0 min 0,000 mm 0,0 UV-I 0 W/m 4,7 C 5,1 C 0,0 km/h (0 Bft) 100,00 %
05.11.2015 23:37 5,1 C 97 % 1022,8 hPa 0,0 l/m 0,0 km/h (0 Bft) S-SO 165 0 min 0,000 mm 0,0 UV-I 0 W/m 4,7 C 5,1 C 0,0 km/h (0 Bft) 100,00 %
05.11.2015 23:38 5,1 C 97 % 1022,7 hPa 0,0 l/m 0,0 km/h (0 Bft) S-SO 165 0 min 0,000 mm 0,0 UV-I 0 W/m 4,7 C 5,1 C 0,0 km/h (0 Bft) 95,65 %
05.11.2015 23:39 5,2 C 97 % 1022,8 hPa 0,0 l/m 0,0 km/h (0 Bft) S-SO 165 0 min 0,000 mm 0,0 UV-I 0 W/m 4,8 C 5,2 C 0,0 km/h (0 Bft) 100,00 %
05.11.2015 23:40 5,3 C 97 % 1022,8 hPa 0,0 l/m 0,0 km/h (0 Bft) S-SO 165 0 min 0,000 mm 0,0 UV-I 0 W/m 4,9 C 5,3 C 0,0 km/h (0 Bft) 100,00 %
05.11.2015 23:41 5,3 C 97 % 1022,7 hPa 0,0 l/m 0,0 km/h (0 Bft) S-SO 165 0 min 0,000 mm 0,0 UV-I 0 W/m 4,9 C 5,3 C 0,0 km/h (0 Bft) 100,00 %
05.11.2015 23:42 5,2 C 97 % 1022,8 hPa 0,0 l/m 0,0 km/h (0 Bft) S-SO 165 0 min 0,000 mm 0,0 UV-I 0 W/m 4,8 C 5,2 C 0,0 km/h (0 Bft) 100,00 %
05.11.2015 23:43 5,2 C 97 % 1022,8 hPa 0,0 l/m 0,0 km/h (0 Bft) S-SO 165 0 min 0,000 mm 0,0 UV-I 0 W/m 4,8 C 5,2 C 0,0 km/h (0 Bft) 100,00 %
05.11.2015 23:44 5,3 C 98 % 1022,8 hPa 0,0 l/m 0,0 km/h (0 Bft) S-SO 165 0 min 0,000 mm 0,0 UV-I 0 W/m 5,0 C 5,3 C 0,0 km/h (0 Bft) 100,00 %
05.11.2015 23:45 5,3 C 98 % 1022,8 hPa 0,0 l/m 0,0 km/h (0 Bft) S-SO 165 0 min 0,000 mm 0,0 UV-I 0 W/m 5,0 C 5,3 C 0,0 km/h (0 Bft) 100,00 %
05.11.2015 23:46 5,4 C 98 % 1022,8 hPa 0,0 l/m 0,0 km/h (0 Bft) S-SO 165 0 min 0,000 mm 0,0 UV-I 0 W/m 5,1 C 5,4 C 0,0 km/h (0 Bft) 100,00 %
05.11.2015 23:47 5,5 C 97 % 1022,8 hPa 0,0 l/m 0,0 km/h (0 Bft) S-SO 165 0 min 0,000 mm 0,0 UV-I 0 W/m 5,1 C 5,5 C 0,0 km/h (0 Bft) 95,65 %
05.11.2015 23:48 5,4 C 98 % 1022,8 hPa 0,0 l/m 0,0 km/h (0 Bft) S-SO 165 0 min 0,000 mm 0,0 UV-I 0 W/m 5,1 C 5,4 C 0,0 km/h (0 Bft) 100,00 %
05.11.2015 23:49 5,4 C 98 % 1022,8 hPa 0,0 l/m 0,0 km/h (0 Bft) S-SO 165 0 min 0,000 mm 0,0 UV-I 0 W/m 5,1 C 5,4 C 0,0 km/h (0 Bft) 100,00 %
05.11.2015 23:50 5,5 C 98 % 1022,8 hPa 0,0 l/m 0,0 km/h (0 Bft) S-SO 165 0 min 0,000 mm 0,0 UV-I 0 W/m 5,2 C 5,5 C 0,0 km/h (0 Bft) 100,00 %
05.11.2015 23:51 5,6 C 98 % 1022,8 hPa 0,0 l/m 0,0 km/h (0 Bft) S-SO 165 0 min 0,000 mm 0,0 UV-I 0 W/m 5,3 C 5,6 C 0,0 km/h (0 Bft) 100,00 %
05.11.2015 23:52 5,6 C 98 % 1022,8 hPa 0,0 l/m 0,0 km/h (0 Bft) S-SO 165 0 min 0,000 mm 0,0 UV-I 0 W/m 5,3 C 5,6 C 0,0 km/h (0 Bft) 100,00 %
05.11.2015 23:53 5,6 C 97 % 1022,8 hPa 0,0 l/m 0,0 km/h (0 Bft) S-SO 165 0 min 0,000 mm 0,0 UV-I 0 W/m 5,2 C 5,6 C 0,0 km/h (0 Bft) 100,00 %
05.11.2015 23:54 5,6 C 98 % 1022,9 hPa 0,0 l/m 0,0 km/h (0 Bft) S-SO 165 0 min 0,000 mm 0,0 UV-I 0 W/m 5,3 C 5,6 C 0,0 km/h (0 Bft) 100,00 %
05.11.2015 23:55 5,6 C 98 % 1022,9 hPa 0,0 l/m 0,0 km/h (0 Bft) S-SO 165 0 min 0,000 mm 0,0 UV-I 0 W/m 5,3 C 5,6 C 0,0 km/h (0 Bft) 100,00 %
05.11.2015 23:56 5,5 C 97 % 1022,9 hPa 0,0 l/m 0,0 km/h (0 Bft) S-SO 165 0 min 0,000 mm 0,0 UV-I 0 W/m 5,1 C 5,5 C 0,0 km/h (0 Bft) 92,59 %
05.11.2015 23:57 5,4 C 97 % 1022,9 hPa 0,0 l/m 0,0 km/h (0 Bft) S-SO 165 0 min 0,000 mm 0,0 UV-I 0 W/m 5,0 C 5,4 C 0,0 km/h (0 Bft) 95,65 %
05.11.2015 23:58 5,4 C 97 % 1022,9 hPa 0,0 l/m 0,0 km/h (0 Bft) S-SO 165 0 min 0,000 mm 0,0 UV-I 0 W/m 5,0 C 5,4 C 0,0 km/h (0 Bft) 100,00 %
05.11.2015 23:59 5,4 C 98 % 1022,8 hPa 0,0 l/m 0,0 km/h (0 Bft) S-SO 165 0 min 0,000 mm 0,0 UV-I 0 W/m 5,1 C 5,4 C 0,0 km/h (0 Bft) 100,00 %
_ Min-Zeit 07:59 13:46 14:46 - 00:06 - - - - - - 07:59 07:59 00:06 19:10
Minimum _ 4,2 C 67 % 1021,6 hPa - 0,0 km/h (0 Bft) - - - - - - 3,8 C 4,2 C 0,0 km/h (0 Bft) 85,71 %
_ Max-Zeit 13:55 05:23 09:06 00:00 13:56 - - 11:39 12:00 11:09 10:16 12:25 13:55 14:05 00:00
Maximum _ 15,3 C 98 % 1024,0 hPa 0,0 l/m 5,6 km/h
NW (1 Bft)
- - 4 min 0,204 mm 1,4 UV-I 418 W/m 9,9 C 15,3 C 9,7 km/h
W (2 Bft)
100,00 %
Durchschnitt _ 8,3 C 90 % 1022,6 hPa #0,0 l/m 0,8 km/h (0 Bft) N - #6:11 h #1,041 mm 1,0 UV-I 216 W/m 6,6 C 8,3 C 1,6 km/h (1 Bft) 99,33 %